GFSGBSN_prec_cloud_003.txt.gz
Cloud_Cover
0 1 5 5 7 20 64 100 100 72 100 100 100 100 100 100 100 100 33 5 5 2 3 73 23 32 100 100 96 100 100 100 100 100 100 59 23 35 5 0 2 12 0 0 0 0 0
0 0 0 12 4 18 96 78 100 100 100 85 98 100 100 100 100 100 100 5 25 10 5 25 98 89 100 98 77 39 94 100 100 100 100 100 34 39 5 5 5 25 13 0 0 0 0
0 51 4 14 0 0 3 18 68 13 100 100 100 98 100 80 94 100 100 68 100 94 10 100 100 100 100 76 100 94 54 37 100 100 100 100 99 6 6 10 95 100 6 0 0 0 0
0 29 0 0 0 0 1 4 5 44 100 100 100 100 100 100 100 100 100 100 100 100 84 100 100 100 100 100 100 100 58 88 85 100 100 100 100 61 40 9 30 100 81 5 0 0 0
0 0 10 0 10 5 12 4 4 5 99 100 100 100 100 100 100 100 100 100 100 100 38 99 100 100 100 99 95 100 97 67 100 100 100 100 100 70 19 73 64 100 100 95 5 2 2
43 100 18 4 3 1 1 0 3 14 90 100 100 98 97 100 100 100 100 100 100 100 87 100 100 100 100 86 96 90 97 100 100 100 100 100 100 100 100 100 42 98 100 100 82 34 5
54 76 5 25 14 0 0 0 0 5 100 100 100 100 99 100 100 100 100 100 100 96 100 31 61 31 5 26 97 100 100 100 100 100 100 100 100 100 100 100 99 12 30 75 100 65 52
39 77 100 99 100 41 72 6 0 28 15 5 7 21 20 76 100 100 100 100 100 90 100 28 100 74 100 100 100 100 100 100 100 100 100 100 100 100 100 94 87 15 6 34 96 98 20
100 100 100 53 100 31 98 5 0 3 4 10 98 76 70 10 100 100 100 100 100 100 37 94 100 100 100 100 100 100 100 100 100 100 100 100 100 100 100 100 100 100 100 96 89 48 5
100 100 77 43 8 3 2 5 0 22 78 68 79 100 97 30 38 89 100 100 100 100 30 73 100 100 100 100 100 100 100 100 100 100 100 100 100 100 100 100 95 94 16 11 5 64 77
89 50 76 5 5 2 1 4 86 100 100 100 82 100 86 100 71 91 100 100 100 100 48 41 65 100 100 100 100 100 100 100 98 99 100 97 83 24 100 21 5 16 5 5 5 45 71
68 55 5 6 5 5 5 5 8 91 99 100 100 92 100 79 40 100 100 100 100 100 52 56 76 100 100 100 100 100 100 100 90 54 88 82 99 57 36 5 32 75 76 97 66 42 94
31 100 78 6 56 28 58 5 11 98 100 100 100 71 100 100 85 100 100 100 100 100 98 94 87 100 100 100 100 100 100 100 100 100 100 100 93 81 26 41 5 20 100 100 100 100 41
100 100 92 12 52 78 60 14 30 100 100 100 100 100 29 73 100 100 100 100 100 85 98 100 100 100 100 98 100 100 100 100 100 100 100 82 10 84 23 30 9 6 94 99 100 100 89
58 100 17 62 5 41 68 62 100 100 100 100 100 66 35 97 81 100 100 100 98 100 100 100 100 100 100 100 100 100 100 100 100 100 64 99 62 5 5 5 9 96 98 28 100 100 100
30 37 40 100 5 22 5 51 82 88 100 100 96 58 100 18 99 100 100 100 97 100 100 100 100 100 100 100 100 100 100 100 100 100 100 76 95 84 46 16 49 16 82 94 100 100 95
10 5 52 53 5 87 7 34 46 100 82 100 100 100 99 100 100 100 100 100 100 100 100 100 100 100 100 100 100 100 100 100 100 100 41 100 97 63 97 71 11 97 100 100 100 100 100
6 8 35 60 30 43 47 16 72 26 78 100 100 100 100 100 100 100 100 87 100 100 100 100 100 100 100 100 100 100 100 100 89 97 81 61 98 82 22 51 100 100 100 100 100 100 100
1 5 24 84 100 66 33 12 87 100 100 100 100 100 100 100 100 100 98 76 100 100 100 100 100 100 100 100 100 100 100 78 63 100 100 97 99 74 82 83 100 100 100 100 100 100 54
0 5 5 5 100 72 5 14 30 98 100 100 100 100 100 100 100 70 78 94 100 100 100 100 100 100 100 100 100 100 100 98 100 98 49 54 90 48 27 100 100 100 100 100 100 100 28
1 5 67 10 99 82 68 100 99 100 100 100 100 100 100 100 100 81 100 100 100 100 100 100 100 100 100 100 100 100 100 100 94 94 86 100 100 100 93 100 100 100 100 100 100 71 86
2 0 8 5 5 17 70 100 33 100 100 100 100 100 100 100 100 100 100 100 76 98 96 100 100 100 100 100 100 100 100 100 100 100 74 100 100 100 100 100 100 100 100 100 100 48 53
14 0 12 9 5 7 5 97 94 100 100 100 100 100 100 100 100 100 100 96 28 76 100 100 100 100 100 100 100 100 100 100 100 100 100 100 100 100 100 99 100 100 100 100 96 100 57
100 63 53 28 59 5 5 5 36 100 100 100 100 100 100 98 99 93 40 47 93 44 76 100 100 100 100 100 100 100 100 100 34 97 78 100 100 100 100 100 100 100 100 100 100 100 100
12 92 27 18 5 5 5 5 5 100 100 100 100 100 100 100 100 100 100 100 100 46 96 100 100 100 100 100 99 100 100 96 100 95 73 82 100 100 100 100 100 100 100 100 100 100 100
5 5 5 7 5 5 5 5 5 81 100 100 100 100 100 100 100 100 100 100 94 100 100 100 100 100 100 99 100 100 100 51 98 94 91 99 100 100 100 100 100 100 100 100 100 100 100
5 4 5 5 5 5 5 5 5 59 100 99 100 100 100 100 100 100 100 97 100 100 100 100 100 100 97 100 100 100 100 78 6 97 100 100 100 100 100 100 100 100 100 100 100 100 100
5 5 5 5 5 5 5 5 5 58 97 90 100 100 100 100 100 100 100 86 100 76 56 100 100 100 100 100 100 100 99 83 33 81 100 100 100 100 100 90 94 100 100 100 100 100 100
5 5 5 7 5 4 5 5 5 5 61 100 100 100 100 100 100 78 99 100 100 98 100 100 100 98 100 100 100 100 86 98 5 98 100 100 100 96 99 49 76 56 75 100 100 100 100

GFSGBSN_prec_cloud_006.txt.gz
Cloud_Cover
0 60 36 4 99 0 3 38 80 24 5 30 100 100 100 100 100 100 100 100 100 100 100 100 13 11 77 94 100 19 14 100 100 100 100 94 98 94 10 73 28 5 5 0 0 0 0
21 14 30 1 0 2 18 5 7 70 96 8 52 99 100 100 100 100 100 100 100 100 100 100 100 99 6 94 59 8 29 71 86 100 100 100 100 100 99 50 79 19 5 5 5 5 5
0 0 1 21 5 100 85 16 50 3 5 63 100 100 100 100 100 100 100 100 100 100 100 100 100 28 5 5 69 74 14 86 74 98 100 100 100 100 100 100 62 59 15 5 5 5 78
6 48 50 5 1 6 86 72 0 0 5 5 65 100 100 90 100 100 100 100 74 100 100 100 84 5 5 5 12 100 90 84 100 80 96 100 100 100 100 100 100 43 40 36 5 5 13
100 100 5 12 23 3 2 19 23 5 4 5 77 100 100 91 100 100 100 100 100 100 90 83 85 15 37 64 44 100 81 100 98 93 71 70 97 100 100 100 100 100 8 6 12 5 34
100 100 94 93 90 40 5 13 5 5 2 5 15 7 19 81 38 100 100 100 100 100 100 100 100 38 100 99 92 100 100 100 100 100 100 68 65 68 100 100 100 100 94 100 39 25 30
100 100 93 70 100 100 72 93 99 25 4 1 0 2 5 5 5 100 100 100 100 100 100 100 100 100 99 100 100 100 100 100 100 100 100 94 99 92 21 55 100 100 100 67 100 100 8
100 100 77 94 100 88 58 77 5 3 0 1 37 5 65 90 3 89 100 100 100 100 100 100 100 100 100 100 100 100 100 100 100 100 100 100 100 100 100 99 74 100 100 100 100 99 76
100 100 100 100 100 66 20 7 2 0 2 42 100 50 97 100 92 68 97 100 100 100 100 100 100 97 84 100 100 100 100 100 100 100 100 100 100 100 100 100 100 100 47 50 44 5 5
100 100 100 100 44 76 5 27 2 5 8 100 100 100 100 93 6 11 38 100 100 100 100 100 100 94 71 93 100 100 100 100 100 100 100 100 100 100 100 100 76 7 8 10 36 72 46
100 100 100 100 48 6 35 28 5 5 24 45 76 99 100 100 100 32 96 100 100 100 100 100 98 87 100 28 97 96 100 100 100 100 100 100 36 39 99 100 96 78 100 100 99 88 95
100 100 100 56 80 70 79 73 36 67 98 92 100 100 32 96 62 74 100 100 100 100 100 100 100 100 100 78 100 100 100 100 100 100 100 96 15 26 30 41 56 27 68 100 100 100 95
32 91 34 64 84 32 4 69 58 100 100 100 100 100 100 91 96 60 100 100 100 100 100 100 100 100 100 100 97 100 100 100 100 100 96 99 80 18 28 90 42 64 100 79 93 100 3
93 87 99 77 74 5 5 100 5 63 100 100 100 100 99 100 9 83 100 100 100 100 96 100 100 100 100 100 100 100 100 100 98 73 83 84 90 90 92 34 42 60 59 23 2 28 70
21 58 23 76 5 4 9 68 6 5 100 100 100 84 99 70 10 84 100 100 100 90 100 100 100 100 100 100 100 100 100 100 98 99 100 100 100 100 87 5 32 98 94 19 100 73 100
100 48 86 19 5 17 4 5 5 87 93 100 100 72 61 29 84 100 100 100 100 98 100 100 100 100 100 100 82 100 76 83 76 61 100 100 100 79 33 20 9 48 95 86 93 95 100
100 74 31 5 44 24 5 6 46 96 76 100 100 100 86 91 100 100 100 100 100 100 100 100 100 100 56 37 50 99 100 100 100 100 100 96 60 79 64 80 11 95 100 95 98 100 100
100 67 96 5 81 68 5 5 97 98 97 100 100 100 49 100 100 100 100 100 100 100 100 100 100 100 84 99 100 100 100 100 100 100 90 28 97 87 45 10 24 59 98 100 100 100 100
100 63 85 5 24 57 38 5 5 99 100 100 100 100 88 100 100 100 100 100 100 100 100 100 100 89 100 100 100 99 100 100 100 63 24 68 97 57 98 29 74 100 98 100 100 100 95
100 89 41 15 5 51 46 5 7 54 100 95 100 100 100 100 100 100 100 100 100 100 100 100 100 100 100 100 100 100 100 100 71 75 100 85 92 46 95 100 100 100 98 100 100 100 87
100 100 37 6 5 12 5 5 5 58 100 100 100 100 100 100 100 100 99 100 100 100 100 100 100 100 100 100 100 100 100 95 100 100 94 79 100 81 48 62 100 100 100 100 100 48 100
100 100 37 5 5 5 5 5 53 84 100 100 100 100 70 100 99 93 65 94 100 100 100 100 100 100 100 100 100 100 100 52 100 98 99 100 79 96 100 96 100 100 100 100 100 100 100
94 5 29 5 5 5 5 5 5 17 87 100 100 100 100 100 100 98 74 82 99 100 100 100 100 100 100 100 80 100 100 100 100 100 100 100 100 100 79 79 100 100 100 100 100 100 100
5 8 5 5 5 5 5 5 5 8 56 97 100 100 100 100 100 64 95 100 84 100 100 100 100 100 100 97 100 100 92 100 100 100 100 100 100 100 100 70 98 100 100 100 100 100 100
7 5 5 5 5 5 5 2 5 5 13 92 100 100 100 100 100 100 79 33 8 96 100 100 100 100 100 98 99 100 100 100 100 100 100 98 100 100 100 100 99 100 100 98 100 100 100
5 5 5 5 5 5 5 5 5 1 11 47 100 100 100 100 35 96 92 5 5 12 100 100 100 100 100 100 100 100 100 100 100 100 100 100 100 100 100 100 99 100 100 100 100 100 100
5 5 5 5 5 5 5 5 5 0 2 25 100 100 100 100 99 100 98 84 67 85 99 100 100 100 100 99 100 100 96 100 100 100 81 100 100 100 100 100 100 100 100 100 100 100 100
5 5 5 5 5 5 5 5 5 4 5 67 46 100 100 100 100 100 100 100 100 92 73 100 100 100 100 100 100 100 100 100 100 100 71 12 100 100 71 99 100 100 100 100 98 100 100
8 5 5 5 5 5 5 5 5 5 5 8 59 92 100 100 100 99 100 100 100 98 93 100 100 100 100 100 100 100 100 100 100 100 94 95 97 100 98 98 87 92 100 96 93 85 100

GFSGBSN_prec_cloud_009.txt.gz
Cloud_Cover
1 0 0 3 5 16 56 93 1 1 0 5 5 5 100 61 100 100 100 100 100 100 100 100 100 100 80 100 98 77 20 23 15 96 100 100 100 100 100 100 88 6 11 54 16 5 1
0 0 24 71 5 48 10 80 94 1 3 3 6 26 8 100 64 100 100 100 100 100 100 100 100 100 100 94 100 100 92 5 26 34 100 100 100 100 100 100 100 32 11 5 72 72 5
4 93 96 9 12 1 14 5 5 5 5 0 5 7 99 7 6 65 100 100 100 100 100 100 100 100 89 100 50 78 62 92 5 39 100 51 100 100 100 100 100 43 11 6 5 51 60
100 93 52 71 27 8 20 5 13 5 4 5 0 5 6 55 35 16 99 100 100 100 100 100 100 100 100 100 100 100 7 21 45 64 71 45 82 100 100 100 100 72 53 32 13 24 79
83 100 64 93 100 52 75 45 100 67 2 2 0 4 5 5 8 10 97 99 100 100 100 100 100 100 100 100 100 100 90 50 50 82 100 91 76 98 100 100 100 96 99 100 100 83 48
97 100 99 72 100 26 36 99 100 52 5 5 0 0 4 4 5 5 63 100 100 100 100 100 100 100 100 100 100 100 100 96 9 8 65 57 54 72 88 100 100 100 100 100 100 100 100
100 100 96 36 96 67 50 94 100 54 5 5 5 3 3 0 5 5 83 46 100 100 100 100 100 100 100 97 100 100 8 28 80 32 6 100 88 100 43 76 100 100 100 100 100 100 100
25 90 100 74 100 57 43 100 74 16 5 5 14 50 50 96 96 71 13 100 100 100 100 100 100 100 100 100 100 46 21 26 99 100 87 100 100 100 100 70 69 86 82 93 100 100 100
100 100 100 96 49 46 51 97 100 76 5 62 29 100 97 100 100 98 14 100 100 100 100 100 100 100 100 88 23 16 5 37 89 100 100 100 100 100 100 59 24 8 49 54 8 28 81
100 99 90 19 49 76 57 100 77 79 16 31 69 89 91 100 48 92 32 100 100 100 100 100 100 100 100 100 98 93 34 88 100 100 100 100 100 100 100 100 95 38 41 13 5 25 5
100 98 100 53 94 90 75 100 100 97 100 100 100 99 59 6 66 100 100 100 100 100 100 100 100 100 100 98 100 100 50 100 100 100 100 100 100 100 100 100 100 99 75 13 64 80 77
100 100 88 13 22 69 98 51 89 84 86 100 100 100 100 100 88 98 100 100 100 100 100 100 100 100 100 100 99 94 100 98 100 100 100 100 100 100 100 100 100 100 98 95 70 94 61
60 100 60 31 5 68 100 97 88 10 96 100 100 100 100 100 30 90 99 100 100 100 100 100 94 100 100 100 100 100 100 100 100 100 100 100 100 100 100 100 100 100 99 59 79 99 5
80 48 53 97 35 100 100 100 6 29 18 100 39 96 97 93 82 54 100 100 100 80 100 100 100 100 100 100 100 100 100 100 99 100 100 86 99 100 100 100 82 100 100 54 1 1 0
100 17 85 97 91 99 100 46 7 7 33 41 86 53 82 100 100 99 100 100 100 94 78 100 100 99 100 100 100 96 100 100 98 93 74 75 45 24 5 6 18 83 91 62 100 87 88
100 10 59 64 8 100 37 5 17 54 61 100 74 56 93 83 86 96 100 100 100 100 100 100 97 100 100 100 100 99 100 40 89 42 44 87 37 98 93 15 20 87 100 81 95 82 98
58 6 57 50 40 12 100 5 100 100 79 99 98 77 95 57 88 100 100 100 100 100 100 100 100 100 100 100 100 96 66 43 70 88 100 92 59 84 88 100 95 94 99 75 71 90 100
97 71 10 72 60 90 33 35 100 100 100 100 61 100 86 30 100 100 100 100 100 100 100 100 100 100 83 92 71 80 65 55 89 100 100 100 100 100 86 81 39 62 74 97 100 76 100
33 99 77 11 5 91 5 5 36 100 100 100 100 100 86 70 100 100 100 100 97 100 100 100 100 100 100 61 36 71 90 100 100 100 100 99 70 58 51 22 60 95 96 100 100 100 100
69 5 11 13 5 5 5 12 6 96 100 100 82 100 100 92 100 100 100 100 100 100 100 100 100 100 100 91 13 44 31 73 100 100 90 78 80 73 10 11 100 98 100 100 100 100 90
18 5 5 5 5 20 5 5 5 12 89 92 100 94 82 100 99 100 100 100 100 100 100 100 100 100 100 100 56 14 94 100 100 100 80 96 98 74 38 35 61 100 98 100 100 100 100
10 5 5 5 5 5 5 5 5 5 100 72 100 98 100 94 100 100 100 100 100 100 100 100 100 100 100 81 100 100 100 100 100 70 100 99 77 87 100 54 73 98 98 100 100 100 100
5 5 11 5 5 5 5 5 3 5 97 100 97 99 100 63 37 75 56 79 100 100 100 100 100 100 100 98 100 100 100 100 96 100 100 100 99 100 99 68 50 88 100 100 100 100 100
5 5 5 10 5 5 5 5 0 2 82 100 100 100 100 94 97 92 100 89 100 100 100 100 100 100 100 100 100 100 100 100 100 100 100 100 96 100 96 76 92 100 100 100 100 96 100
5 20 5 5 82 95 5 5 5 0 4 96 100 100 100 75 95 55 75 99 100 100 100 100 100 100 100 100 100 100 100 100 100 100 100 100 100 97 97 92 65 100 100 91 100 72 100
5 11 5 5 98 5 5 5 5 4 0 60 56 100 100 100 32 43 41 69 97 100 100 100 100 100 100 100 100 100 100 100 100 100 100 100 100 100 100 100 100 100 100 61 100 100 100
85 51 5 5 100 33 5 5 5 5 2 5 93 99 100 100 100 100 85 87 14 80 100 100 100 100 100 100 100 100 100 100 100 100 100 100 100 100 100 100 95 88 80 90 100 100 100
87 26 5 15 100 100 5 5 5 5 5 4 100 90 55 100 49 18 28 37 11 69 99 100 100 100 100 100 100 100 100 100 100 100 100 100 100 100 100 100 86 81 23 75 98 98 100
8 98 7 7 8 86 5 5 5 2 5 5 90 91 99 99 100 100 29 28 14 97 91 100 100 100 100 100 100 100 100 100 100 100 100 100 100 91 100 100 53 10 58 28 95 35 100

GFSGBSN_prec_cloud_012.txt.gz
Cloud_Cover
23 5 66 100 64 88 4 88 18 57 52 5 5 5 5 1 5 58 100 100 100 100 100 100 100 100 100 100 96 31 20 20 1 14 21 100 100 100 100 100 100 100 100 100 84 64 92
100 100 100 100 68 1 6 78 5 18 7 5 27 76 18 5 3 5 24 100 100 100 100 100 100 100 100 96 100 100 58 5 8 82 63 100 100 100 100 100 100 100 100 100 100 100 39
100 95 67 100 100 56 42 48 79 67 94 17 5 78 100 98 75 45 6 100 100 100 100 100 100 100 100 100 100 100 56 65 26 48 52 100 100 100 100 100 100 100 100 100 100 100 85
100 100 100 100 100 80 49 74 62 98 100 100 99 5 4 0 69 3 58 34 100 100 100 100 100 100 100 100 100 100 100 100 99 35 88 99 59 33 100 100 100 100 100 100 100 100 100
100 100 87 100 96 100 81 54 72 93 97 83 30 4 17 2 0 1 5 5 100 96 100 100 100 100 100 100 100 100 100 100 99 100 100 100 99 89 100 100 100 100 100 100 100 100 100
100 94 98 100 100 99 97 72 96 100 99 95 53 5 5 2 1 0 2 5 100 100 100 100 99 100 100 100 100 100 100 100 100 100 100 92 100 41 5 5 55 99 100 100 100 100 100
100 100 100 100 5 9 17 32 84 40 100 6 5 9 100 73 5 5 48 4 91 100 100 100 100 100 100 100 100 100 100 100 100 100 100 57 64 8 8 5 5 5 57 96 100 100 100
100 100 89 89 97 68 88 64 11 100 5 5 24 80 97 100 100 98 95 22 100 100 100 100 100 100 100 100 100 100 100 100 100 100 100 100 100 55 11 65 30 35 5 5 5 94 100
89 88 57 72 40 26 92 16 32 28 24 41 43 61 80 16 100 50 76 12 100 100 100 100 100 100 100 100 100 100 100 100 100 100 100 99 89 93 90 7 7 52 26 5 5 5 92
96 100 60 42 65 56 90 13 8 72 20 12 17 100 100 100 28 100 51 25 100 100 100 100 100 100 100 100 100 100 100 100 100 100 100 100 94 58 46 21 92 98 62 11 5 5 5
56 96 64 26 68 41 90 13 13 5 88 5 56 100 100 100 20 82 94 100 100 100 100 100 100 100 100 79 100 100 100 100 100 100 96 85 78 16 5 98 100 100 100 100 19 5 6
17 25 80 100 100 98 5 5 5 5 60 34 5 24 100 100 60 52 56 100 100 100 100 100 100 100 34 98 100 100 100 99 100 98 100 73 28 43 46 100 100 100 100 100 79 27 44
10 8 92 50 34 46 5 5 5 5 88 100 52 100 88 95 100 14 98 100 100 100 100 100 100 100 99 100 100 100 100 100 30 72 79 87 100 100 100 100 100 100 100 100 100 99 100
100 92 78 21 5 5 13 21 5 15 7 22 5 51 89 97 99 36 100 100 100 100 100 84 100 100 100 100 100 100 100 60 32 53 99 100 100 100 100 100 100 100 100 100 100 100 100
100 100 19 99 5 4 14 5 5 93 99 100 97 59 81 100 100 97 100 100 100 100 81 100 100 100 100 100 100 100 100 100 95 99 65 100 100 100 100 100 100 100 100 100 100 100 100
96 100 11 57 7 5 15 5 7 96 100 100 100 67 88 100 94 100 100 100 100 100 100 99 99 93 99 100 100 100 100 100 98 100 99 99 97 100 98 100 100 100 100 100 98 83 75
100 100 61 76 5 5 5 5 6 90 100 100 56 99 89 63 100 100 100 100 100 100 100 100 83 96 100 100 100 100 100 62 89 90 94 97 85 74 58 83 96 100 100 100 76 49 22
52 100 80 5 3 5 5 5 5 100 100 100 99 100 55 87 100 100 100 100 100 100 82 100 100 100 91 66 82 99 74 97 30 82 32 94 100 77 38 100 100 100 87 74 100 16 69
100 100 89 12 3 5 5 4 30 100 100 98 100 100 50 75 100 99 100 100 100 99 100 100 100 100 100 100 100 100 93 31 25 6 62 75 100 90 100 100 100 91 15 86 70 92 95
100 100 92 62 5 5 13 1 5 100 88 6 93 84 92 100 99 77 100 100 100 100 100 100 100 100 100 100 100 90 14 5 6 89 100 100 100 68 61 80 25 57 10 92 100 100 47
100 100 100 100 5 5 13 0 5 100 60 45 82 47 85 71 100 100 100 100 100 100 100 100 100 100 100 100 76 70 100 13 97 100 100 99 83 7 5 5 5 7 100 93 100 90 100
100 100 100 46 19 5 5 5 5 64 9 56 91 100 99 90 82 100 100 95 94 97 73 100 100 100 100 100 100 100 58 86 100 100 100 16 66 70 100 44 6 94 100 90 100 100 100
100 100 100 32 5 29 19 5 0 5 94 100 100 100 99 5 11 98 37 63 84 84 86 100 100 100 100 100 95 82 68 100 100 100 100 90 94 99 100 46 94 99 100 100 100 100 100
100 100 100 100 63 14 24 14 4 1 85 100 100 100 99 8 17 84 14 100 100 100 100 100 100 100 100 100 100 100 100 100 100 99 100 99 98 100 93 86 72 51 98 100 96 15 100
100 100 100 100 100 7 5 68 5 5 4 93 100 100 100 61 8 5 17 81 100 99 100 100 100 100 100 100 100 100 100 100 53 80 100 100 100 100 100 65 46 72 98 100 100 31 86
100 100 100 100 100 81 78 23 66 5 2 4 100 100 100 100 92 98 73 100 100 100 100 100 100 100 100 100 100 100 100 100 100 100 100 100 100 93 97 100 86 99 80 99 100 100 25
100 100 100 100 100 60 79 99 24 5 2 1 85 100 100 100 76 28 69 92 100 100 69 100 85 100 100 100 89 100 100 100 100 100 100 100 100 100 100 100 64 86 34 100 91 76 65
100 100 100 100 100 98 100 94 13 5 0 3 3 99 100 100 50 53 33 47 100 49 68 76 60 100 100 100 92 100 99 100 100 100 98 98 100 100 100 100 90 73 86 50 5 6 26
97 100 100 100 100 100 100 100 99 8 4 4 7 4 84 100 55 76 37 5 24 61 100 89 100 100 100 100 100 100 100 100 100 100 100 100 100 100 82 83 100 100 98 45 5 5 36

GFSGBSN_prec_cloud_015.txt.gz
Cloud_Cover
100 100 100 100 100 48 13 12 19 12 20 56 5 15 71 100 98 35 100 5 100 100 100 100 100 100 100 100 100 100 30 4 2 0 68 100 100 100 100 100 100 89 98 100 100 100 85
100 96 100 100 99 60 24 60 58 100 100 96 92 97 14 5 67 100 100 100 70 100 100 100 100 100 100 100 100 100 100 47 31 4 5 56 100 100 100 100 100 100 100 100 100 100 100
99 100 85 20 100 100 89 50 10 51 79 66 100 100 100 6 50 8 53 3 31 100 100 100 100 100 100 100 100 100 100 100 100 46 11 47 86 100 100 100 100 100 100 100 100 100 100
100 100 100 100 100 97 5 7 7 70 97 99 100 100 100 80 1 0 2 0 4 2 100 100 100 100 99 100 100 100 100 100 100 100 51 96 98 78 12 98 100 100 100 100 100 100 100
100 100 100 100 54 7 8 58 72 18 93 100 100 100 41 5 4 0 0 0 0 3 76 100 100 100 100 100 100 100 100 100 100 100 100 70 82 75 100 95 72 100 100 100 100 100 100
100 100 100 100 100 51 19 13 5 33 100 100 58 5 95 100 100 27 29 2 5 9 99 100 100 100 95 99 100 100 100 100 100 100 91 100 100 98 72 98 53 6 65 100 100 100 100
100 100 100 96 91 50 5 5 6 4 6 5 0 2 5 10 100 100 14 20 46 82 80 100 94 100 100 100 100 100 100 100 100 100 100 100 100 100 5 5 32 5 10 56 100 100 100
100 100 100 69 58 5 5 5 2 1 4 1 0 2 5 34 24 96 78 62 36 98 87 100 100 100 100 100 100 100 100 100 100 100 100 100 100 98 100 99 87 52 5 3 2 68 100
100 100 100 68 45 5 5 4 5 47 18 5 2 5 8 89 88 12 85 62 65 100 100 100 100 100 100 100 100 100 100 100 100 100 100 100 100 100 99 98 88 5 5 4 1 1 8
100 100 100 65 8 31 25 5 5 5 5 41 19 32 97 100 74 5 23 58 90 100 100 100 100 100 100 100 100 100 100 100 100 100 100 100 100 100 100 100 93 5 5 26 5 2 0
100 100 100 66 5 30 5 5 6 8 6 18 95 100 100 100 100 10 88 100 100 100 100 100 100 100 99 100 100 100 100 100 100 100 100 100 100 100 100 100 100 98 9 8 61 5 2
100 100 100 16 5 26 5 21 24 7 19 89 78 100 100 100 99 43 12 99 100 100 100 100 97 78 98 100 100 100 100 100 100 100 100 100 100 100 100 100 100 100 48 5 5 4 33
100 100 100 46 15 88 72 99 28 56 98 100 100 100 95 80 100 94 92 100 100 100 100 100 100 97 100 100 100 100 100 100 100 100 100 100 100 100 100 100 100 81 63 30 18 81 49
100 8 34 53 68 5 5 8 5 99 100 100 100 89 10 68 92 100 100 100 100 100 100 100 100 100 100 100 75 100 100 100 100 100 100 100 100 99 99 86 67 5 2 5 14 87 100
97 33 48 100 91 5 37 5 31 100 100 100 17 15 100 100 100 100 100 100 100 100 100 100 100 100 100 99 51 99 100 100 100 100 100 100 96 99 98 20 5 6 36 90 100 100 100
100 19 89 100 89 5 5 5 100 83 100 100 72 59 100 91 43 100 100 100 100 100 100 100 78 100 100 100 99 100 100 100 100 100 97 76 67 35 5 8 95 100 100 100 100 100 100
100 84 85 100 100 41 6 9 67 100 97 45 20 38 88 100 100 100 100 100 100 100 100 88 75 98 100 100 100 100 100 100 100 100 100 100 100 64 79 94 100 100 100 100 100 100 96
100 83 72 100 100 42 5 14 100 100 6 4 12 99 97 100 100 100 100 100 100 100 94 60 53 79 61 82 85 71 73 100 100 100 100 100 100 69 98 100 100 100 49 59 78 19 6
100 92 100 100 100 41 5 7 99 93 24 37 8 61 100 100 100 100 100 100 100 100 92 100 94 73 85 49 48 96 100 100 100 100 96 97 88 99 100 99 100 71 52 11 46 94 19
97 98 98 100 100 69 56 8 58 10 16 1 15 5 93 78 100 93 100 99 93 100 98 86 75 88 94 97 100 100 100 100 94 100 100 85 96 81 100 100 73 52 5 43 99 99 95
100 100 100 100 100 100 7 5 5 5 0 0 34 56 47 55 39 96 99 100 92 24 95 99 100 100 100 100 100 100 100 83 81 94 100 95 63 100 100 69 37 5 10 100 99 82 100
100 100 100 98 100 100 97 32 3 5 3 52 94 94 83 10 11 55 27 14 6 79 100 100 100 100 100 100 100 100 100 100 78 19 71 90 87 91 90 6 5 46 51 100 100 95 85
100 100 100 100 100 100 100 51 5 3 5 67 93 100 100 5 5 9 27 42 7 100 96 100 100 100 100 100 100 100 82 24 26 97 92 94 81 68 11 37 8 51 100 100 100 83 100
100 90 100 100 100 100 100 5 84 3 21 92 97 100 100 15 5 42 5 29 69 21 98 100 100 100 100 100 100 100 34 72 100 100 100 72 95 62 80 74 58 94 89 100 23 24 99
100 95 100 100 100 100 100 67 5 7 2 26 99 67 100 100 35 43 17 100 51 57 49 100 100 100 100 100 100 100 70 40 80 100 100 99 100 91 95 72 53 100 94 100 77 23 44
100 99 100 100 100 100 100 59 6 7 5 5 100 100 92 100 89 80 53 91 98 74 67 100 100 83 100 100 100 100 86 98 78 100 100 100 100 91 100 95 38 72 100 74 92 53 8
100 100 93 100 100 100 100 100 32 5 5 5 69 90 100 100 87 100 100 99 98 67 74 98 100 100 98 100 99 75 88 79 79 74 94 100 100 100 100 90 40 13 100 69 100 53 72
100 100 100 100 100 100 98 100 85 100 24 5 4 89 64 100 62 100 100 99 47 98 24 25 79 100 100 99 100 96 69 90 74 82 99 100 100 100 100 100 100 29 57 100 100 40 80
100 100 100 100 100 100 100 86 100 100 52 77 5 4 5 58 38 52 100 100 54 58 82 44 48 41 99 95 99 100 100 63 60 100 100 95 76 98 60 88 76 30 100 100 75 58 60

GFSGBSN_prec_cloud_018.txt.gz
Cloud_Cover
99 79 62 100 100 100 100 100 96 82 84 96 41 8 42 94 15 5 88 70 84 36 99 100 100 100 100 100 100 100 100 38 1 14 100 100 100 100 100 100 100 100 100 100 100 100 100
100 81 50 100 100 100 100 40 73 6 5 14 22 97 100 94 100 57 18 49 1 0 4 100 100 100 100 100 100 100 100 100 31 0 92 100 100 100 100 100 100 100 100 100 100 100 100
80 100 100 100 100 100 100 45 5 5 5 81 100 100 100 100 100 91 3 0 0 0 0 98 100 100 100 100 100 100 100 100 100 8 0 0 88 100 100 100 100 100 100 100 100 100 98
78 100 100 100 100 93 100 12 5 65 42 4 5 4 5 89 25 5 0 3 0 0 1 50 100 100 100 100 100 100 100 100 100 100 81 23 8 5 100 100 100 100 100 100 100 100 100
100 92 100 100 100 100 17 8 69 28 69 3 2 5 0 0 0 3 0 0 0 0 0 87 100 100 100 100 100 100 100 100 100 100 100 100 78 22 21 100 100 100 100 100 100 100 100
97 100 100 100 100 95 79 14 52 54 3 5 5 2 5 5 4 5 29 5 0 8 0 30 100 100 100 100 100 100 100 100 100 100 100 100 94 92 68 16 88 100 100 100 100 100 100
99 99 100 100 100 59 25 8 96 23 36 8 5 4 5 5 5 5 10 12 9 72 70 32 100 100 100 100 100 100 100 100 100 100 100 99 100 100 88 5 27 100 82 100 100 100 100
100 11 100 97 100 22 66 5 100 68 95 100 83 93 51 79 85 6 6 8 78 100 36 99 100 100 100 100 100 100 100 100 100 100 100 100 100 100 99 100 55 94 83 32 91 100 100
100 42 100 72 100 66 100 5 34 100 98 100 100 100 100 100 89 70 82 13 46 100 86 100 100 100 100 100 100 100 100 100 100 100 100 100 100 100 99 26 36 5 5 5 5 37 53
99 100 100 78 68 75 100 9 97 87 100 100 100 100 100 100 97 60 22 80 93 92 80 100 100 100 100 100 100 100 100 100 100 100 100 100 100 100 100 100 10 6 64 5 5 2 3
100 100 82 47 46 60 53 5 100 82 100 100 100 100 100 100 100 100 40 6 100 92 60 71 100 100 100 100 100 100 100 100 100 100 100 100 100 100 100 96 29 35 53 22 5 9 5
73 76 73 26 100 76 5 76 12 26 100 100 100 94 87 100 95 100 24 85 60 74 100 100 100 100 100 100 100 89 100 100 100 100 100 100 100 86 89 100 100 100 95 92 78 86 23
94 85 95 93 35 6 7 9 15 100 100 100 98 21 26 91 94 100 13 82 92 100 100 100 100 100 100 100 100 100 100 100 100 100 100 100 100 100 100 100 100 100 100 20 77 100 28
100 100 100 92 24 15 5 49 100 100 100 100 42 95 91 93 100 72 75 100 100 100 100 99 91 97 100 100 100 100 100 100 100 100 100 100 100 74 97 100 100 100 100 90 100 100 100
100 100 100 96 74 33 5 48 100 100 38 5 64 21 100 46 48 100 100 100 100 100 100 96 100 99 98 98 100 100 100 100 100 100 100 100 100 100 100 100 100 100 86 100 100 100 96
100 100 100 65 84 38 7 100 100 28 0 0 4 10 92 100 100 96 100 100 100 100 100 93 98 91 100 100 100 100 100 100 100 100 100 100 100 100 100 100 100 100 100 100 90 26 12
100 100 100 100 100 96 75 14 100 14 1 0 4 100 100 100 100 100 100 100 100 100 88 97 79 100 100 100 100 100 100 100 100 100 100 100 100 100 100 100 100 100 88 9 5 5 51
100 100 100 100 100 96 100 5 93 99 0 13 5 14 99 100 90 100 100 100 100 99 76 27 61 59 86 96 100 95 69 99 100 100 100 100 100 100 100 68 10 5 5 7 38 5 70
100 100 100 100 100 97 100 5 1 92 34 16 7 5 4 99 90 100 100 100 98 20 30 16 72 100 100 68 81 77 100 100 100 100 100 100 100 100 61 58 14 11 97 55 70 86 64
100 95 100 100 100 100 100 14 2 0 0 0 10 5 5 98 52 72 69 62 20 23 57 69 68 71 90 100 100 100 100 100 100 100 100 100 100 100 100 100 84 100 72 70 69 81 58
100 99 100 100 100 100 100 69 5 0 0 0 18 41 100 67 35 97 91 98 5 5 8 38 79 94 100 100 100 100 100 100 100 100 100 100 100 100 100 100 69 82 64 46 7 100 100
100 100 100 100 100 100 100 96 10 0 0 5 88 96 100 37 7 5 5 5 5 38 42 55 91 97 100 100 100 100 100 100 100 100 100 100 100 100 100 100 48 68 5 61 100 96 80
100 100 100 100 100 100 83 17 58 3 1 24 18 52 77 8 5 5 5 5 5 5 22 59 26 80 100 100 100 100 100 100 100 72 52 93 100 100 100 56 40 6 8 100 77 5 20
100 100 100 100 84 100 89 30 40 5 0 57 62 100 96 46 5 5 5 5 5 58 90 92 55 100 100 100 100 94 100 97 93 100 100 100 100 100 54 24 48 9 5 5 5 5 5
83 100 100 100 100 100 36 14 19 28 9 88 77 16 98 100 88 5 11 5 9 49 22 74 100 96 100 100 96 97 97 90 100 100 100 100 100 72 74 91 80 9 11 5 5 5 48
100 100 100 100 100 100 100 94 100 5 5 1 95 54 59 100 24 20 5 5 77 33 27 65 100 98 59 94 100 100 100 82 98 100 100 100 100 99 99 73 79 28 36 5 5 54 95
100 100 100 100 100 100 100 100 100 87 8 100 4 6 35 100 75 39 5 30 24 38 48 28 97 100 100 70 100 100 100 100 93 100 100 100 100 100 100 92 98 66 5 5 5 34 98
100 100 100 100 100 100 100 100 100 100 97 78 60 5 4 84 80 29 66 51 83 25 54 81 28 94 100 100 96 100 100 100 99 100 100 92 100 100 100 92 97 60 87 42 5 60 62
100 100 100 100 100 100 100 100 100 92 93 100 32 31 5 10 5 4 65 97 82 78 71 68 62 29 83 99 91 98 100 100 100 100 100 93 80 96 80 74 89 68 74 6 12 80 68

GFSGBSN_prec_cloud_021.txt.gz
Cloud_Cover
74 100 94 100 100 94 55 63 96 59 6 5 4 17 3 62 97 100 100 97 5 3 1 0 100 95 100 100 100 100 100 100 33 5 34 100 100 100 100 100 100 100 100 100 100 100 100
99 100 100 100 100 54 78 5 14 7 92 99 5 5 5 5 5 18 95 68 5 0 0 0 100 100 100 95 100 100 100 100 100 15 14 7 99 100 100 100 100 100 100 100 100 100 100
100 100 100 26 100 34 52 15 46 62 100 99 18 5 5 5 4 0 6 8 5 0 0 5 100 100 100 100 100 100 100 100 100 100 5 13 5 100 100 100 100 100 100 100 100 100 100
100 100 100 100 100 24 64 86 26 17 35 95 10 6 5 0 0 1 0 0 5 8 0 0 87 100 100 100 100 100 100 100 100 100 91 5 61 61 100 100 100 100 100 100 100 100 100
100 100 100 100 100 92 100 60 68 88 76 78 78 100 100 100 5 5 1 4 2 0 15 91 57 100 100 100 100 100 100 100 100 100 100 98 26 20 98 100 100 100 100 100 100 100 100
100 100 24 75 19 82 100 50 56 50 28 91 94 100 100 75 34 14 5 5 3 8 16 0 82 100 100 100 100 100 100 100 100 100 100 100 88 7 29 100 100 100 100 100 100 100 100
100 100 100 100 56 42 100 100 56 14 100 100 100 100 100 100 100 91 5 5 5 4 60 16 28 100 100 100 100 100 100 100 100 100 100 100 100 100 60 38 88 100 100 100 100 100 100
100 100 100 99 35 79 87 100 100 100 100 100 100 100 100 100 100 100 74 12 87 89 23 57 100 68 100 100 100 100 100 100 100 100 100 100 100 100 100 87 39 99 100 100 100 100 100
100 100 83 100 60 96 95 87 13 90 100 100 100 100 100 100 100 100 100 33 68 79 76 50 100 100 100 100 100 100 100 100 100 100 100 100 100 100 100 100 98 88 31 9 49 95 100
100 100 100 100 70 88 64 46 42 93 100 100 100 100 100 100 100 100 73 57 75 52 26 58 100 100 100 100 100 100 100 100 100 100 100 100 100 100 100 98 87 19 97 55 5 5 100
100 100 85 100 67 64 95 29 100 100 100 100 100 100 100 100 100 100 34 6 99 69 36 99 100 98 100 98 100 100 100 100 100 100 100 100 100 100 100 100 98 100 100 99 17 5 4
100 100 97 100 64 90 10 94 100 100 100 81 56 6 49 89 88 99 16 5 82 66 97 100 100 100 89 98 100 100 100 100 100 100 100 100 100 100 93 63 98 14 34 14 30 12 30
100 100 100 100 70 36 66 100 100 100 26 5 5 13 5 18 33 49 12 5 76 80 100 100 100 87 100 100 100 100 100 100 100 100 100 100 100 100 100 100 94 100 96 92 24 7 62
100 100 95 82 100 42 100 100 100 92 6 5 82 5 21 1 5 5 22 85 95 100 100 100 98 73 100 100 100 100 100 100 100 100 100 100 100 100 100 100 100 100 100 100 84 100 8
100 100 100 96 100 41 28 100 100 18 3 3 27 48 25 10 69 100 100 100 100 100 100 100 100 100 100 93 100 95 100 100 100 100 100 100 100 100 100 100 100 100 100 40 100 100 73
100 100 100 93 100 54 71 95 100 90 0 5 32 3 5 35 100 67 89 100 100 100 98 44 100 100 100 100 100 100 100 100 100 100 100 100 100 100 100 100 100 100 100 68 68 43 56
100 100 100 100 100 83 89 42 61 68 0 0 58 70 96 100 82 60 100 100 100 100 90 100 100 100 100 100 100 100 87 86 100 100 100 100 100 100 100 100 100 100 100 90 5 56 90
34 100 100 62 100 44 71 67 14 38 0 2 0 4 94 13 57 100 100 100 83 82 52 6 42 57 98 94 89 100 100 100 100 100 100 100 100 100 100 100 100 100 100 97 99 100 100
99 100 100 92 100 100 86 92 21 10 65 5 0 6 5 100 95 74 59 40 80 87 5 88 100 93 95 100 100 100 100 100 100 100 100 100 100 100 100 100 100 100 100 100 100 96 10
48 100 100 100 100 97 90 80 95 0 10 0 8 4 5 48 100 98 86 5 5 5 5 26 77 61 100 100 100 99 100 100 100 100 100 100 100 100 100 100 100 100 86 29 38 74 36
75 86 100 100 100 100 75 100 100 2 0 0 12 78 96 80 90 100 45 5 5 5 5 45 74 78 21 47 100 100 100 100 100 100 100 100 100 100 100 100 98 92 94 52 89 85 100
85 45 100 100 100 100 79 95 100 10 0 8 25 88 96 44 5 5 5 5 5 5 5 46 18 100 71 38 61 100 100 100 100 100 100 100 100 100 100 100 100 100 100 100 100 100 100
5 80 100 100 100 100 100 80 100 99 2 8 19 80 74 4 5 5 5 5 5 5 5 24 96 99 67 44 86 100 100 100 100 100 100 100 100 100 100 100 100 100 100 100 91 100 28
95 74 100 100 100 100 100 99 100 100 30 100 100 100 94 3 0 2 5 5 4 5 38 68 100 100 80 90 99 97 100 100 100 100 100 100 100 100 98 100 100 100 100 84 73 29 5
84 99 100 100 100 100 100 100 100 100 88 20 99 33 97 100 94 1 2 3 4 5 36 100 100 100 100 100 91 70 95 100 100 100 100 93 97 96 97 100 98 90 35 39 5 6 5
95 84 100 100 100 100 100 100 100 100 100 91 13 47 73 100 14 80 84 0 5 7 82 100 100 100 100 100 99 80 88 42 95 96 100 100 100 100 96 99 18 40 19 5 5 5 5
87 100 97 100 100 100 100 100 100 100 100 58 22 5 50 100 84 20 40 55 9 5 5 71 98 97 100 100 100 100 87 90 86 100 100 100 100 100 100 100 10 96 74 5 31 5 15
100 100 96 100 100 100 100 100 100 100 100 100 78 6 56 93 14 7 23 27 99 70 5 5 22 100 100 100 100 100 100 100 97 64 100 100 100 100 100 100 65 100 97 7 5 5 5
100 100 99 100 100 100 100 100 100 100 100 100 100 62 94 95 3 6 2 5 18 93 94 98 29 5 97 100 100 100 100 100 100 98 43 81 9 71 31 52 76 99 98 29 5 5 25

GFSGBSN_prec_cloud_024.txt.gz
Cloud_Cover
100 100 100 100 100 100 54 18 42 100 31 100 100 49 19 51 8 13 5 44 100 100 11 0 16 100 100 100 100 94 100 100 100 100 100 100 100 100 100 100 100 100 100 100 100 100 100
100 100 72 95 100 100 40 49 100 100 6 88 57 60 55 2 94 100 2 2 4 100 15 8 32 99 100 100 100 100 100 100 100 100 95 100 100 100 100 100 100 100 100 100 100 100 100
100 73 100 100 100 100 76 95 100 100 84 96 85 84 100 57 100 100 5 4 2 17 34 100 97 30 100 94 100 100 100 100 100 100 100 49 100 100 100 100 100 100 100 100 100 100 100
100 87 74 100 100 94 78 100 100 93 80 97 100 98 100 100 100 100 77 72 0 5 10 98 100 40 100 99 100 100 100 100 100 100 100 98 55 100 100 100 100 100 100 100 100 100 100
100 100 100 100 100 100 100 64 87 90 24 73 100 100 100 100 100 100 98 100 21 2 4 100 53 66 90 49 100 100 100 100 100 100 100 100 79 71 100 100 100 100 100 100 100 100 100
98 100 100 96 100 100 100 43 40 90 60 99 100 100 100 100 100 100 100 100 63 1 0 2 26 100 86 82 100 93 100 100 100 100 100 100 100 97 72 94 100 100 100 100 100 98 95
100 88 52 64 100 100 18 23 19 86 100 100 100 99 97 97 100 100 88 93 5 4 56 3 40 100 100 98 100 100 100 100 100 100 100 100 100 100 98 30 5 25 100 100 100 100 100
97 38 78 98 100 90 76 83 15 94 100 95 99 100 100 100 100 99 53 89 93 70 38 91 93 100 100 100 100 100 100 100 100 100 100 100 100 100 100 71 9 5 32 100 100 100 100
94 59 98 97 100 77 60 33 100 89 90 100 100 96 100 71 98 100 91 60 27 43 9 78 97 93 100 100 100 98 100 100 100 100 100 100 100 100 100 100 100 94 97 28 100 100 100
44 49 94 96 100 90 75 100 82 92 40 52 45 100 99 92 90 70 54 57 38 27 6 61 100 100 100 100 100 100 100 100 100 100 100 100 100 100 100 100 100 100 97 7 37 100 100
5 44 100 74 88 27 100 100 48 61 5 10 5 5 85 98 65 100 60 78 13 29 5 100 100 100 100 100 100 100 100 100 100 100 100 100 100 100 100 100 100 100 100 92 18 53 94
23 96 96 62 88 72 100 80 51 76 4 5 6 5 4 10 33 100 16 44 24 12 94 98 100 100 95 100 100 100 100 86 100 100 100 100 100 100 100 100 100 100 100 98 88 14 98
85 100 100 70 78 79 100 100 29 100 0 14 20 4 5 4 43 50 4 5 17 58 98 100 100 99 21 100 100 68 100 100 67 100 100 100 100 100 89 100 97 100 57 95 100 99 99
100 35 92 100 55 91 100 100 96 100 24 2 5 28 3 8 4 5 13 30 29 63 82 100 97 90 98 97 100 100 100 85 100 100 100 100 100 100 100 99 95 74 76 100 100 74 95
100 46 75 92 100 94 100 85 97 12 7 0 5 8 32 14 11 11 96 100 98 100 100 96 76 73 100 100 100 100 78 100 100 100 100 100 100 100 100 100 100 100 100 72 66 45 60
5 20 28 82 100 87 87 100 100 22 10 5 1 0 5 86 96 39 43 100 100 100 50 96 100 100 100 100 100 100 100 100 100 100 100 100 100 100 100 100 100 100 100 100 92 98 97
64 81 57 46 54 100 96 100 100 60 4 2 4 5 55 5 5 42 100 100 100 100 53 10 20 71 100 100 97 100 100 100 100 100 100 100 100 100 100 100 100 100 100 100 100 100 100
74 67 28 99 73 100 100 95 100 100 6 0 5 5 18 5 34 100 100 100 98 24 5 10 5 20 39 41 76 100 100 100 100 100 100 100 100 100 100 100 100 100 100 100 100 100 100
27 89 12 92 97 99 100 84 100 100 53 10 0 5 5 5 100 100 67 19 23 5 5 6 29 43 86 100 88 100 100 100 100 100 100 100 99 100 100 100 100 100 100 100 100 100 100
14 14 6 50 100 100 100 100 100 100 24 0 5 13 4 5 99 100 71 5 5 5 5 5 23 69 85 99 100 100 100 98 100 100 100 100 100 100 100 100 100 100 100 100 63 99 64
83 59 16 7 99 100 100 100 100 100 73 0 16 93 94 74 5 48 24 12 5 5 5 25 65 34 68 47 33 100 100 100 100 100 100 100 100 100 100 100 95 100 100 100 100 73 99
95 58 61 76 44 100 77 100 62 100 100 17 49 63 96 28 5 3 4 5 5 5 5 5 19 66 72 99 72 86 55 11 97 81 100 100 100 100 100 100 100 100 100 100 100 65 67
100 20 5 92 100 98 99 100 100 100 100 20 50 99 96 6 2 0 4 4 5 5 5 16 24 90 46 85 100 94 84 90 61 98 100 100 100 100 100 100 76 58 100 98 85 99 100
100 60 5 70 100 99 100 100 100 100 100 67 100 100 96 16 7 1 3 1 3 3 4 5 26 85 86 100 93 88 100 90 95 47 94 100 100 100 100 100 99 98 100 100 100 100 100
100 78 32 62 100 100 100 100 100 100 100 100 55 80 99 100 84 3 16 8 4 2 4 5 76 100 100 100 100 86 100 100 98 55 23 92 99 93 100 100 100 100 100 100 100 100 100
89 36 82 99 100 100 100 100 100 100 100 100 100 5 72 99 24 71 99 80 6 5 5 3 6 100 100 100 78 98 86 60 56 98 98 100 68 92 94 100 100 100 100 100 100 100 36
85 83 86 100 100 100 100 100 100 100 100 100 100 79 98 94 19 92 70 94 80 5 5 2 5 60 100 100 100 64 59 13 81 100 100 100 100 100 100 99 100 100 100 100 100 93 41
35 96 98 100 100 100 100 100 100 100 100 100 100 100 100 78 6 6 9 71 57 100 54 10 5 5 24 79 100 100 64 55 76 6 99 100 93 100 100 94 93 83 100 91 74 87 5
100 99 97 98 100 100 100 100 100 100 100 100 100 100 100 100 100 100 100 5 4 96 100 100 62 5 5 59 43 100 100 28 62 98 12 36 6 36 7 7 82 94 86 94 94 16 5

GFSGBSN_prec_cloud_027.txt.gz
Cloud_Cover
100 65 81 84 100 100 100 100 100 100 88 85 96 77 79 73 91 29 100 100 100 93 37 100 78 79 27 100 99 64 100 93 100 100 100 100 100 100 100 100 100 100 100 100 100 100 100
39 81 99 100 100 100 100 100 98 93 85 72 7 42 100 100 99 100 100 100 100 100 0 90 83 99 16 97 73 98 100 83 57 100 100 100 100 100 100 100 100 100 100 100 100 100 100
52 40 66 100 100 94 91 97 100 89 65 52 65 98 100 100 94 98 100 100 100 100 2 8 100 100 70 46 89 99 100 97 98 100 100 100 100 100 100 100 100 100 100 100 100 100 100
97 100 92 100 81 96 100 81 100 12 19 19 68 100 100 100 100 100 100 100 100 84 2 59 100 92 52 9 98 100 100 100 100 100 100 100 100 100 100 100 98 94 100 100 100 100 100
100 99 92 100 100 84 24 100 100 5 5 13 30 74 100 100 100 100 100 100 84 100 6 99 4 64 3 100 43 74 100 100 100 100 100 100 100 82 100 100 100 42 96 100 100 100 100
100 100 100 43 100 93 100 71 39 50 19 66 44 100 97 99 97 97 96 100 78 15 49 6 6 61 18 23 59 5 100 100 100 100 100 100 100 100 99 100 100 100 100 100 100 100 100
100 18 100 100 93 100 94 21 45 96 100 100 88 100 100 89 48 98 77 59 41 5 4 0 3 99 21 5 97 100 100 100 100 100 100 100 100 100 100 99 100 100 100 100 100 100 100
100 81 23 87 53 100 100 86 100 100 84 84 16 34 100 100 35 39 100 55 20 25 11 2 4 100 98 76 100 100 73 100 100 100 100 100 100 100 100 100 100 100 100 100 100 100 95
48 98 21 5 48 100 95 100 100 94 20 17 7 16 100 93 19 47 43 5 6 5 76 54 100 100 100 100 100 100 100 100 100 100 100 100 100 100 100 100 96 100 100 100 100 100 100
47 100 24 5 80 100 100 100 100 41 4 18 17 5 98 18 14 76 7 33 5 11 16 100 100 100 100 100 100 100 100 100 100 100 100 100 100 100 100 100 100 100 100 100 100 100 100
91 73 48 5 50 100 100 86 100 0 0 1 58 5 5 5 5 18 7 28 5 5 8 37 100 100 100 100 100 100 100 100 100 100 100 100 100 100 100 100 100 100 78 100 100 100 100
5 95 84 5 93 62 87 100 100 30 3 0 0 4 11 5 28 76 50 41 5 5 88 90 100 99 99 100 97 100 100 100 100 100 100 100 100 100 100 100 100 100 100 54 100 100 100
5 88 98 11 100 94 77 97 100 100 4 0 1 1 0 0 76 19 5 5 5 58 80 100 100 99 99 86 100 100 100 100 100 100 100 100 100 100 100 99 100 100 100 100 100 52 100
15 99 100 76 100 100 83 100 100 100 38 0 1 5 5 72 10 7 5 5 16 94 100 100 97 67 100 78 98 100 99 84 100 100 100 100 100 100 100 97 100 99 92 99 100 100 100
5 100 22 44 12 100 100 100 99 17 83 13 0 0 5 3 100 100 34 36 88 98 100 80 64 84 100 100 100 83 52 100 80 100 100 100 100 94 96 88 92 100 14 98 100 90 99
10 100 8 32 90 94 100 100 99 6 16 23 3 5 5 5 5 25 44 100 100 100 85 18 35 100 94 100 100 92 100 92 99 94 100 100 92 86 57 100 100 100 71 18 33 63 48
30 74 5 65 47 91 100 100 100 58 18 0 1 1 5 5 5 68 98 100 87 26 5 5 6 21 15 44 100 100 96 96 100 100 100 100 100 99 100 75 98 100 98 81 100 100 78
30 58 80 14 100 60 92 97 100 88 62 2 0 5 5 5 70 36 99 98 57 5 5 5 37 49 86 100 100 100 100 100 100 100 100 100 100 100 100 79 79 100 100 100 56 98 100
36 100 46 8 65 100 100 100 99 100 98 14 0 0 5 5 86 100 100 98 45 5 5 5 5 25 11 10 82 100 100 100 100 100 100 98 100 100 100 100 100 98 100 100 100 100 100
100 100 86 38 5 81 100 72 99 100 67 1 5 10 3 5 5 20 6 5 5 5 5 5 15 5 5 63 52 91 100 100 100 100 100 100 100 100 100 100 100 100 100 100 100 100 100
100 100 100 75 31 45 88 82 100 100 90 7 12 96 97 71 5 5 5 5 5 5 5 5 5 5 5 18 10 49 100 100 100 100 100 100 100 100 100 100 100 100 100 100 100 100 100
100 100 42 76 28 25 5 88 99 100 100 32 92 91 96 52 5 5 2 5 5 5 1 5 5 5 5 5 6 8 61 83 94 100 100 100 97 100 100 100 100 100 100 100 100 100 100
100 100 44 5 41 91 5 18 89 100 94 100 100 99 96 15 5 5 4 3 4 5 5 4 54 100 32 5 5 5 5 55 96 100 100 100 100 100 100 100 100 100 100 98 81 6 71
100 100 71 5 47 94 56 96 100 100 99 100 100 100 96 40 6 12 5 5 5 0 5 5 5 7 70 31 17 31 67 72 39 96 100 100 100 100 100 100 100 100 100 100 100 100 100
94 64 5 5 9 89 67 100 99 100 100 99 100 100 94 37 60 8 22 51 5 4 4 5 5 10 5 47 31 10 97 97 100 76 92 100 100 100 100 100 57 50 73 86 100 100 100
49 97 12 12 100 100 100 100 100 100 100 100 100 100 100 100 89 81 100 88 58 5 5 5 5 5 5 21 98 42 13 17 70 99 99 83 76 98 87 79 70 58 63 69 94 99 100
93 100 100 94 100 100 100 100 100 100 100 100 100 100 100 100 100 16 87 59 99 95 8 4 5 5 6 43 76 98 76 68 57 96 100 100 100 99 99 100 39 41 78 100 100 100 100
97 92 100 100 100 100 100 100 100 100 100 100 100 100 100 100 100 100 99 87 99 68 100 36 64 50 77 97 100 100 76 76 15 16 100 90 100 100 100 100 90 34 100 100 100 100 92
98 52 99 100 100 100 100 100 100 100 100 100 100 100 100 100 100 100 100 100 97 99 100 100 100 95 5 28 36 62 98 94 95 97 82 52 49 76 44 23 64 97 100 100 100 100 100

GFSGBSN_prec_cloud_030.txt.gz
Cloud_Cover
18 49 100 100 100 64 60 97 68 95 84 76 41 100 96 100 100 91 96 100 100 100 100 74 24 58 5 16 8 100 87 100 100 5 99 100 100 100 100 100 100 100 100 100 100 100 100
0 96 93 100 5 100 100 99 100 77 64 13 38 70 49 92 100 100 100 100 100 100 100 45 87 21 98 25 9 92 100 99 100 7 100 100 100 100 100 100 100 100 100 100 100 100 100
56 78 87 57 31 100 100 59 38 97 16 37 5 5 20 40 100 100 100 100 100 100 53 99 32 6 76 5 14 98 100 100 63 5 100 100 100 100 100 100 100 100 100 100 100 100 100
81 51 100 31 100 100 100 88 72 81 58 96 100 100 97 60 36 99 100 100 100 100 72 43 51 14 95 0 80 98 100 100 46 15 99 100 100 100 100 100 100 100 99 100 100 100 100
51 15 55 100 16 100 75 78 34 77 99 39 18 46 100 100 100 29 96 100 100 100 18 81 23 93 15 3 71 100 100 90 97 100 87 100 100 100 100 100 100 100 96 100 100 100 100
31 11 43 100 48 100 93 46 49 95 72 65 5 17 100 100 100 34 90 42 13 25 49 100 92 71 3 14 60 99 70 95 100 100 100 100 100 100 100 100 100 100 100 100 100 100 100
33 5 38 72 5 64 100 57 76 67 50 74 33 5 100 100 100 40 24 100 37 7 84 84 63 86 15 44 5 79 99 93 100 94 100 100 100 100 97 100 100 100 100 100 100 100 100
5 75 45 5 5 100 95 4 12 100 100 99 97 8 63 28 5 16 38 5 7 41 22 5 42 100 100 60 100 99 100 100 93 85 100 100 100 100 100 99 100 100 100 100 100 91 39
8 100 6 20 5 70 100 11 95 100 1 33 97 5 5 5 5 5 5 14 6 13 77 96 100 100 77 64 54 66 86 100 100 100 100 100 100 100 100 99 100 100 100 100 100 100 100
13 11 6 94 94 11 100 62 98 100 0 0 0 5 4 5 5 5 18 43 8 12 98 100 100 100 96 99 95 99 100 100 100 100 100 100 100 100 100 100 100 92 100 100 100 100 100
10 26 51 99 11 36 100 87 31 100 10 0 0 0 0 0 5 36 62 100 100 79 96 100 100 100 100 99 94 100 100 100 100 100 100 100 100 100 100 100 100 98 100 100 100 100 100
13 41 91 34 3 10 77 29 20 95 100 3 0 0 0 0 5 20 5 6 59 70 93 100 100 100 100 100 100 100 100 100 100 100 100 100 100 100 100 98 100 100 96 100 100 100 100
5 32 100 46 40 23 76 43 5 93 100 98 0 0 0 0 5 5 5 4 31 66 93 100 100 100 99 100 100 100 100 100 100 100 100 100 100 100 100 100 100 100 100 84 97 100 100
8 100 45 100 12 79 64 75 5 1 81 100 64 5 5 0 5 5 5 7 35 100 100 82 100 100 100 100 100 100 100 100 100 100 100 100 100 100 100 100 100 100 99 64 6 100 100
11 100 59 100 100 15 84 68 5 0 12 76 0 5 5 5 5 6 17 61 95 100 100 100 90 54 94 100 99 100 58 98 99 100 100 100 98 100 100 100 100 100 99 69 100 24 100
100 96 94 86 100 100 98 38 5 2 38 67 0 1 0 5 5 30 61 100 92 98 17 8 5 25 89 88 12 22 33 100 100 100 100 100 99 83 100 100 100 100 93 56 100 91 100
100 43 40 8 1 97 100 62 5 37 31 1 0 0 4 5 9 14 100 85 100 80 5 5 9 16 70 97 54 91 100 100 100 100 100 100 99 92 84 98 85 91 100 100 100 100 100
100 97 20 31 5 57 100 49 5 20 69 0 0 0 0 1 9 23 100 100 65 6 5 5 38 46 47 67 25 30 77 94 100 100 100 100 100 100 100 97 68 100 94 99 100 100 92
100 100 100 90 5 38 3 8 5 7 97 83 0 0 1 0 2 5 5 37 66 5 5 5 5 5 6 6 46 100 93 24 58 95 100 100 100 100 100 38 91 97 100 100 100 89 24
100 100 97 97 100 5 10 3 5 5 78 6 2 16 0 0 10 4 4 4 2 0 0 4 5 5 15 66 61 13 100 94 98 91 93 100 100 100 100 100 36 22 70 100 100 100 100
19 100 100 72 100 5 5 5 5 47 49 11 30 91 90 15 5 3 5 2 0 3 4 4 5 4 5 51 23 96 100 100 100 100 100 100 100 98 100 100 100 99 100 100 100 86 100
85 100 94 5 5 5 5 39 6 55 100 100 92 97 89 45 5 4 3 5 5 2 0 5 5 5 5 13 30 61 67 100 100 100 100 100 100 100 100 93 100 100 100 100 100 100 67
92 100 87 5 5 5 5 5 77 95 100 100 87 98 96 8 4 5 3 3 5 5 5 5 8 25 5 53 5 5 81 71 98 100 100 100 100 100 100 100 100 100 100 100 100 100 100
75 6 8 6 5 12 66 55 34 99 100 100 100 95 97 9 5 6 5 16 5 5 5 5 5 5 5 5 19 72 8 85 96 93 91 100 100 100 100 100 100 100 100 100 100 100 100
15 22 31 5 5 57 70 58 93 96 100 100 100 100 100 100 30 7 42 72 12 5 5 5 5 5 5 20 5 64 57 66 94 100 100 100 100 96 97 100 100 100 98 92 100 100 100
5 14 12 7 5 61 16 40 100 100 100 100 100 100 100 100 100 100 60 62 79 16 5 5 5 5 7 66 70 62 97 50 39 85 100 100 95 100 94 98 99 100 100 100 100 100 100
5 82 6 5 5 25 12 43 100 100 100 100 100 100 100 100 100 100 100 70 55 75 55 5 14 20 9 36 61 78 51 100 73 71 82 67 99 80 99 100 62 87 66 87 100 100 100
28 77 5 5 5 62 74 86 100 100 100 100 100 100 100 100 100 100 100 100 100 96 100 56 34 68 90 97 100 100 51 69 99 94 100 92 99 88 98 97 62 38 90 83 100 100 100
99 100 20 5 6 13 67 60 99 100 100 93 100 100 100 100 100 100 100 100 100 73 100 100 100 98 40 100 52 100 47 6 49 100 100 92 100 100 86 20 56 97 86 100 100 100 100

GFSGBSN_prec_cloud_033.txt.gz
Cloud_Cover
18 1 10 44 80 79 18 6 5 5 5 5 62 73 31 5 72 52 82 97 100 100 89 100 77 9 5 16 26 5 5 42 86 52 1 67 100 100 100 100 100 100 100 100 100 100 100
97 54 9 56 6 13 96 89 58 65 6 28 22 100 100 99 5 100 100 100 100 100 100 100 82 23 5 50 5 1 98 97 100 89 90 8 95 100 100 100 100 100 100 100 100 100 100
100 95 41 7 48 88 97 35 51 62 83 56 6 11 79 100 100 89 89 100 100 100 100 100 94 90 80 11 20 2 99 94 98 100 54 83 36 100 100 100 100 100 100 100 100 100 100
100 84 30 0 4 97 45 100 100 81 36 100 79 13 7 100 100 90 49 100 100 100 74 54 77 46 49 17 0 2 72 99 100 100 54 100 62 65 100 100 100 100 100 100 100 100 100
98 7 1 13 18 94 100 92 100 52 4 100 76 4 61 87 100 100 5 95 100 100 100 20 43 48 25 26 0 23 70 82 100 100 71 94 60 60 100 100 100 96 100 100 100 100 100
5 53 2 25 9 91 100 100 83 67 53 100 5 4 5 88 71 20 5 5 7 5 15 97 85 64 2 3 3 10 80 47 65 79 100 95 50 17 100 99 100 93 100 100 100 100 100
5 96 72 5 5 66 100 96 43 87 96 92 5 18 7 5 5 5 25 94 72 77 45 62 83 91 18 100 100 100 100 100 100 97 82 76 76 36 15 48 100 100 100 100 100 100 100
5 42 31 8 5 9 100 57 89 100 78 100 0 0 5 5 2 2 8 92 25 54 57 100 92 83 100 100 100 100 100 100 100 80 83 42 60 79 100 100 73 100 100 100 100 92 100
5 42 5 29 2 2 97 65 100 98 77 32 3 4 0 0 0 3 8 39 38 89 98 84 96 83 100 100 100 100 100 100 98 99 86 100 94 100 100 96 77 100 100 100 100 100 99
5 6 5 5 0 5 2 78 100 100 86 32 0 0 1 0 24 78 99 100 99 97 100 96 99 96 100 100 100 90 100 96 100 68 99 100 63 100 100 100 100 100 100 100 100 100 99
5 77 25 99 94 5 3 5 69 100 100 71 5 0 0 5 5 19 75 13 64 97 100 100 100 71 100 100 100 100 100 100 100 97 100 100 83 95 100 100 63 98 100 100 100 100 100
36 46 9 64 100 2 5 5 2 37 100 100 97 0 3 22 2 5 4 99 62 100 100 100 100 100 100 100 100 100 100 100 100 100 100 100 100 100 100 100 91 41 100 100 100 100 100
5 9 79 100 100 97 43 13 0 0 56 100 100 50 5 5 30 5 5 40 92 76 96 100 100 100 100 100 100 100 100 100 100 100 100 100 100 100 100 100 99 96 100 100 100 100 100
5 7 100 22 95 95 100 100 0 0 1 100 68 12 0 6 5 0 86 96 53 100 79 78 95 100 90 100 100 100 100 100 100 100 100 100 100 100 100 100 95 100 100 83 100 100 100
5 5 64 32 84 28 88 100 36 0 3 93 0 0 0 9 5 84 98 72 88 100 38 86 74 91 100 100 100 100 100 100 100 100 100 100 100 100 100 100 99 96 100 94 100 99 100
5 5 5 68 7 29 0 68 49 0 0 70 0 1 5 5 26 100 25 78 72 98 65 68 96 100 100 35 79 87 85 77 100 100 100 100 100 100 100 100 90 87 97 95 89 100 73
24 80 12 85 78 17 0 19 29 1 0 3 0 10 4 5 83 68 79 64 26 5 8 32 47 79 70 57 47 72 70 91 97 64 100 100 77 100 100 100 100 100 100 100 98 100 100
82 100 99 42 33 16 15 12 18 4 0 3 0 86 0 0 18 5 15 100 97 5 5 5 18 96 92 60 99 100 100 98 89 100 100 100 100 100 100 100 100 100 100 100 100 99 100
87 100 100 21 5 83 12 0 2 3 18 100 1 0 0 0 56 8 5 8 12 5 5 5 17 12 5 23 64 54 5 88 100 100 100 100 100 100 89 34 80 100 100 100 100 100 100
63 100 100 19 0 2 13 0 0 0 5 53 23 54 8 1 4 11 5 4 5 0 0 0 2 5 5 6 4 6 9 52 42 99 100 100 100 100 91 89 75 100 100 100 100 100 100
5 100 28 5 0 3 4 4 0 3 67 41 42 97 94 79 13 26 10 3 5 5 5 3 6 5 5 8 5 45 37 51 31 64 40 60 100 100 100 58 5 16 92 98 100 81 70
5 5 5 5 5 5 5 5 2 3 58 100 99 99 80 53 5 5 6 11 5 4 5 7 44 5 5 5 7 21 64 100 100 80 100 100 100 100 100 100 100 100 54 10 85 100 100
5 5 5 5 5 5 5 5 5 5 100 100 47 98 97 22 10 10 45 49 43 3 2 3 13 59 21 12 5 12 59 68 100 100 72 94 100 93 74 97 100 100 100 91 80 80 100
0 5 5 84 5 5 5 5 20 5 43 100 100 99 100 93 6 60 5 6 33 12 50 5 5 75 36 5 5 5 6 47 29 98 100 100 100 96 100 99 91 100 89 99 100 91 100
2 5 5 5 5 5 6 5 59 49 32 98 100 100 100 100 95 18 6 5 5 5 5 18 27 5 5 5 75 88 84 68 54 84 100 100 100 91 100 100 100 100 100 100 100 100 100
5 5 5 5 5 5 5 5 21 15 70 100 99 100 100 100 100 100 80 24 12 50 14 17 7 5 5 14 32 100 100 99 89 79 91 99 100 97 100 100 100 100 100 100 100 100 100
5 10 6 5 5 5 5 5 16 5 34 71 92 100 100 100 100 100 100 100 82 98 42 28 83 48 7 49 100 100 94 100 100 88 90 92 100 100 100 99 96 100 100 100 100 100 100
5 64 96 12 5 5 5 5 5 10 50 36 77 94 100 100 100 100 100 100 100 100 100 86 46 46 58 97 100 99 76 95 100 100 100 99 100 100 100 100 79 100 100 100 100 100 100
14 5 24 10 5 5 82 7 5 22 86 98 100 8 94 100 100 100 100 100 100 100 100 100 91 100 95 68 43 54 44 71 76 100 100 100 100 100 100 61 57 41 53 58 99 100 100

GFSGBSN_prec_cloud_036.txt.gz
Cloud_Cover
95 99 19 95 91 100 82 97 46 5 41 99 82 4 12 20 100 71 20 100 99 12 95 96 100 100 100 84 100 62 100 100 65 100 34 1 64 96 100 100 100 100 100 100 100 100 90
95 98 26 40 10 100 31 18 32 62 100 49 100 98 10 12 100 99 28 100 100 93 100 97 100 100 60 91 100 92 100 100 100 91 26 41 36 88 100 100 100 100 100 100 100 100 100
26 21 36 89 2 55 0 0 77 100 93 84 100 100 4 31 100 69 12 86 100 100 100 100 100 95 12 8 100 100 100 100 98 77 97 58 42 67 100 100 100 100 100 100 98 100 100
6 38 19 0 21 52 80 22 19 100 100 86 75 1 1 5 61 93 63 8 100 100 100 100 77 96 98 16 22 100 100 100 100 53 91 100 82 88 100 100 100 100 100 100 100 100 100
5 33 88 2 5 16 100 98 62 86 32 98 20 13 13 1 1 4 5 5 78 94 100 32 13 40 79 16 1 60 100 100 100 100 100 100 96 78 83 100 100 100 100 85 100 100 100
10 62 26 6 5 1 92 95 37 98 54 83 3 0 0 0 0 5 21 3 1 56 6 16 52 74 3 8 13 0 58 100 100 100 100 100 100 46 77 37 98 100 100 100 100 100 100
5 7 5 5 5 3 4 100 100 4 100 13 0 0 0 31 0 0 2 26 79 53 9 86 68 5 25 84 59 0 66 48 100 100 100 100 100 6 1 0 5 97 100 100 100 100 100
5 5 12 8 25 3 5 44 100 100 62 66 0 0 0 5 63 51 14 62 96 81 52 4 7 7 12 54 69 6 14 100 100 100 100 99 86 18 5 4 2 100 100 100 100 100 100
5 6 5 12 37 4 5 0 40 100 100 100 51 0 0 0 15 100 100 100 65 97 100 100 100 100 100 76 84 36 53 100 100 100 70 62 51 54 5 5 1 90 100 100 100 100 100
5 5 5 12 100 98 67 5 2 4 59 100 100 79 0 0 5 14 79 100 100 95 100 100 100 100 100 100 100 100 100 100 100 100 83 100 100 83 99 93 15 98 100 100 100 100 100
5 5 5 38 82 78 100 100 47 0 0 67 100 98 17 5 5 43 5 37 74 71 97 100 100 100 100 100 100 100 100 98 56 100 100 98 88 59 98 81 100 100 72 100 100 100 100
5 5 44 14 62 53 54 100 100 16 0 3 100 100 9 5 42 7 5 5 75 94 87 100 89 100 100 100 100 100 100 100 100 96 100 100 80 90 98 98 100 99 90 99 100 100 96
10 12 6 30 100 50 17 0 36 85 0 0 100 100 39 5 77 2 5 47 99 32 78 91 97 99 80 100 100 100 100 100 100 100 100 100 99 100 88 100 92 100 96 100 100 100 100
5 7 5 6 100 100 4 2 0 4 0 0 5 8 9 5 14 6 88 95 34 99 100 83 100 100 97 100 100 100 100 100 100 100 100 100 100 100 90 98 100 100 100 100 97 98 100
53 6 5 10 100 100 100 2 0 12 0 0 1 0 0 5 0 79 96 89 67 97 33 98 100 100 100 100 99 100 100 100 100 100 100 100 100 100 100 100 100 99 25 31 72 100 87
5 10 39 90 46 100 100 1 0 0 0 0 9 2 0 5 4 74 32 62 38 8 33 41 58 39 93 96 100 100 97 100 100 100 100 100 100 100 100 100 100 96 90 78 73 94 100
7 10 100 55 0 90 100 2 0 0 0 0 3 32 0 5 17 61 54 58 5 5 2 73 86 70 6 60 91 62 21 74 100 100 100 100 96 100 100 100 95 98 100 84 100 90 100
10 100 100 71 0 28 14 0 0 0 0 2 1 99 0 0 20 6 5 4 2 2 4 5 7 12 68 14 67 99 100 100 100 100 100 100 100 99 97 93 97 98 93 100 100 100 100
5 5 19 0 0 3 3 7 0 0 11 91 0 1 3 4 100 23 3 1 0 4 4 5 72 86 95 32 82 98 94 96 100 100 100 100 100 100 96 100 100 100 100 100 100 100 100
5 0 4 0 0 5 5 6 0 0 0 52 46 90 80 3 67 99 22 16 17 0 3 4 7 37 56 28 42 92 100 93 84 100 100 98 100 100 100 79 100 100 100 100 100 100 100
5 5 2 4 5 5 4 2 0 0 0 9 72 100 94 87 19 24 44 54 71 67 6 5 8 5 72 73 5 5 6 25 43 39 100 100 92 100 100 91 78 24 100 100 100 100 100
4 5 1 5 5 5 5 5 4 0 0 5 99 99 87 99 6 5 6 97 54 21 4 34 45 38 5 100 70 68 18 5 5 5 7 67 100 100 100 100 83 17 84 100 100 100 100
5 4 0 4 5 5 5 5 20 2 5 5 15 97 97 95 100 15 100 92 92 5 16 5 26 35 15 30 5 16 70 54 9 33 49 5 20 64 38 99 100 97 100 100 100 100 100
5 0 4 2 5 5 6 5 5 5 5 5 73 100 100 94 100 100 40 5 41 5 68 16 5 51 34 5 5 5 5 57 88 100 84 15 5 56 100 98 100 100 82 100 98 100 99
2 5 5 5 5 5 20 5 7 5 5 5 25 80 100 100 100 100 82 22 5 5 5 17 5 5 5 5 20 82 81 74 69 99 100 98 90 98 84 100 100 100 100 100 100 99 100
5 5 5 5 5 5 5 5 5 44 5 5 5 55 91 100 100 100 100 100 88 44 98 12 5 5 5 11 88 98 82 77 90 98 53 94 100 76 99 100 100 100 100 100 100 100 100
4 6 12 5 5 5 5 5 5 5 5 7 63 45 77 96 100 100 100 100 100 100 64 100 88 44 5 8 72 100 100 89 92 57 93 90 100 100 100 100 100 100 100 100 100 100 100
5 5 33 5 5 5 5 5 5 5 5 15 68 92 18 29 100 99 100 100 100 100 100 86 91 73 84 70 24 84 89 99 72 58 41 22 60 96 100 100 100 100 100 100 100 100 100
5 91 100 28 5 5 5 5 5 34 8 99 100 100 82 19 26 91 100 100 100 100 100 100 100 100 100 91 46 65 52 6 17 71 18 57 41 94 74 100 100 100 100 100 100 100 100

GFSGBSN_prec_cloud_039.txt.gz
Cloud_Cover
10 24 36 29 1 70 86 100 96 29 70 90 100 95 86 0 3 98 97 5 39 100 44 99 99 99 100 84 100 98 100 100 100 100 46 17 100 100 62 100 100 100 100 100 100 100 100
39 42 48 4 0 16 100 71 12 57 67 100 49 69 0 5 5 5 48 14 55 27 13 100 100 100 100 100 51 100 100 100 100 100 64 4 1 94 97 100 100 100 100 100 100 100 100
60 12 69 4 2 2 100 88 11 64 25 15 94 7 3 0 0 4 5 10 67 84 98 85 85 100 100 100 43 93 100 100 100 100 98 51 1 91 100 87 100 100 100 100 100 100 100
5 32 5 1 5 2 98 100 89 18 67 3 50 75 1 2 0 0 0 2 5 95 100 96 89 100 100 100 76 81 100 100 100 100 100 100 17 30 100 66 100 100 100 100 100 100 100
5 37 6 13 5 4 10 100 100 34 95 2 0 30 1 100 86 1 0 0 1 14 74 86 7 99 82 39 45 98 100 100 100 100 100 100 78 4 36 95 85 100 100 100 100 100 100
11 9 45 19 15 1 3 2 100 100 100 92 0 0 8 98 100 47 0 2 2 16 2 5 34 57 7 9 4 3 100 100 100 100 100 100 32 5 46 81 83 100 100 100 100 100 100
5 42 30 25 32 17 17 2 0 100 100 100 52 0 4 80 95 99 86 4 50 4 5 44 5 4 5 5 7 3 100 100 100 100 100 100 100 5 4 36 92 87 100 100 100 100 100
5 14 52 60 28 99 100 100 9 0 60 100 99 23 6 3 98 98 10 10 84 88 73 13 3 0 3 10 5 3 45 100 100 100 100 100 100 98 6 5 5 99 100 100 100 100 99
5 9 34 57 4 0 42 100 100 57 0 36 99 100 83 1 7 95 7 5 65 90 100 100 94 90 19 8 39 6 31 96 100 100 100 100 96 99 27 5 4 5 96 100 100 100 100
5 5 88 6 1 0 1 26 48 100 61 18 48 100 100 10 6 5 15 88 46 100 100 100 100 100 100 86 62 7 7 34 100 100 100 100 100 49 5 5 5 5 5 57 100 100 100
12 5 52 100 100 39 4 0 0 15 97 0 36 100 100 38 5 2 5 5 41 42 82 100 100 100 100 100 99 87 33 75 100 100 100 100 100 48 28 2 5 9 9 64 67 100 100
6 5 23 100 100 100 12 2 1 3 29 1 0 100 96 5 4 62 12 5 66 87 95 100 100 100 100 100 100 100 100 100 100 100 100 100 100 100 97 30 81 57 8 5 44 92 100
5 9 28 100 100 100 100 0 0 2 12 0 0 100 87 2 29 53 7 82 80 45 92 95 100 100 100 100 100 100 100 100 100 100 100 100 100 100 87 52 34 98 98 52 72 98 100
5 14 100 91 100 100 100 19 0 0 0 0 0 1 0 0 5 3 88 91 34 93 99 99 100 100 100 100 100 100 100 100 71 12 100 88 100 68 64 68 13 48 28 12 15 54 86
10 24 100 87 100 100 100 62 1 3 0 0 0 0 0 0 3 26 97 10 99 65 61 88 100 100 100 100 100 100 100 100 99 74 57 97 100 100 74 80 5 12 84 68 51 9 19
20 12 100 21 1 100 86 16 44 0 0 0 15 0 0 2 5 13 46 38 13 86 97 93 88 82 100 100 100 92 98 100 99 70 89 85 97 100 100 87 94 76 92 100 100 82 55
5 4 15 0 3 29 4 24 37 1 0 0 8 5 0 1 8 59 12 9 0 1 2 34 62 72 82 100 100 89 64 100 94 100 100 90 100 100 100 100 100 100 98 96 100 79 26
5 0 0 12 26 4 7 0 0 0 7 0 21 44 0 5 20 12 5 0 2 0 0 2 5 5 96 80 100 99 36 96 98 100 100 100 100 100 100 100 100 100 100 100 100 82 68
5 0 0 31 30 4 0 1 0 0 62 100 62 4 4 84 12 2 0 0 2 5 5 4 4 4 5 62 80 94 100 100 100 100 100 99 94 93 99 100 100 100 100 93 100 100 100
1 1 0 0 0 0 0 5 0 0 0 18 66 71 86 7 100 54 11 4 5 3 0 3 4 4 6 11 40 100 89 100 100 100 100 100 100 100 100 64 92 100 100 100 100 100 100
4 0 0 7 4 1 42 2 0 0 0 2 18 99 97 99 79 68 93 91 81 83 5 0 5 5 32 23 5 5 16 14 49 39 96 100 100 100 49 94 14 100 100 100 100 100 100
5 0 0 0 3 0 1 0 0 0 0 0 64 73 100 36 9 20 8 100 100 46 41 28 100 5 60 31 5 5 4 5 5 23 73 50 16 100 100 100 46 19 100 100 100 100 100
5 4 0 1 0 0 1 3 0 0 0 0 5 21 99 99 85 68 100 100 98 5 17 77 96 23 36 36 81 5 5 5 5 5 5 5 5 5 53 26 87 100 100 93 100 100 100
5 5 5 4 0 5 12 3 14 1 0 0 2 9 73 93 99 75 96 100 8 5 47 5 48 91 61 5 5 5 5 5 5 5 5 5 5 12 40 34 41 55 100 92 88 10 100
5 23 5 0 5 5 5 2 5 5 0 0 0 4 6 67 98 100 56 100 5 5 5 14 5 8 38 5 10 33 5 71 44 7 5 57 84 74 35 98 100 75 50 98 100 100 99
5 5 5 5 5 5 5 5 5 5 5 5 5 1 4 46 80 99 71 100 92 24 84 14 5 5 5 5 5 96 100 91 91 100 42 90 100 96 100 100 100 100 100 93 100 100 100
5 5 6 5 5 5 6 5 5 5 5 5 17 49 5 5 37 52 73 100 94 68 100 96 54 8 5 5 18 89 92 78 78 10 57 96 98 94 100 100 100 94 100 100 100 100 100
5 5 87 32 5 5 5 5 5 73 6 28 52 100 17 5 5 7 98 100 78 97 100 100 76 75 86 50 5 5 24 20 17 15 14 5 16 45 100 100 100 88 100 100 100 100 100
49 5 46 6 7 91 5 5 49 76 15 59 96 7 98 55 5 5 46 100 90 97 99 100 100 100 100 100 100 47 22 82 5 21 24 81 26 7 30 100 100 100 100 100 100 100 100

GFSGBSN_prec_cloud_042.txt.gz
Cloud_Cover
84 64 82 0 0 25 97 88 2 100 2 81 94 51 5 16 5 4 5 5 5 100 100 5 6 74 100 98 100 100 100 100 100 100 100 5 34 37 48 0 75 100 100 100 100 100 100
7 97 7 14 30 0 95 100 37 100 3 6 0 8 1 3 1 0 5 7 52 95 100 5 100 99 100 95 56 100 100 100 100 100 100 54 3 0 100 14 26 100 100 100 100 100 100
26 44 8 35 100 63 1 100 100 100 82 0 2 8 5 5 1 0 2 5 6 79 14 5 95 100 96 100 100 83 100 100 100 100 100 89 86 1 46 12 27 100 100 100 100 100 100
6 11 5 83 100 100 50 1 100 100 88 9 0 0 6 17 46 0 0 0 4 5 18 48 76 100 94 100 100 100 100 100 100 100 100 100 40 48 0 2 75 88 100 100 100 100 100
5 9 77 48 100 100 99 58 1 100 100 26 23 0 5 16 20 2 2 1 0 0 2 4 5 98 95 99 78 71 100 100 100 100 100 100 100 100 0 4 47 7 100 100 100 100 100
5 16 33 37 31 100 100 100 99 2 98 100 93 27 5 5 5 5 58 2 24 14 0 2 3 5 22 73 78 100 100 100 100 100 100 100 78 92 4 5 56 3 100 100 100 100 100
6 9 86 30 8 17 1 75 100 100 56 84 100 14 37 1 4 4 72 77 36 94 95 4 4 5 4 5 100 100 100 100 100 100 100 100 59 27 5 10 67 82 73 100 100 100 100
10 5 6 36 0 94 100 63 100 100 100 71 1 100 100 56 0 5 5 78 100 57 100 100 14 0 0 10 99 100 100 100 100 100 100 100 87 22 33 18 92 100 26 100 100 100 100
22 3 20 100 16 98 100 100 100 99 79 100 100 100 100 100 10 4 5 8 100 100 91 100 100 21 5 9 56 100 100 100 100 100 100 100 100 8 98 10 5 100 48 100 100 100 100
13 20 73 100 100 100 77 100 90 100 100 100 15 94 100 100 5 5 5 5 32 91 100 100 100 100 23 5 100 100 100 100 100 100 100 100 100 49 100 92 5 5 7 100 100 100 100
0 42 29 100 100 100 100 98 97 53 25 76 4 100 100 99 6 5 5 5 6 68 100 100 100 99 99 64 89 92 100 100 100 100 100 100 53 78 63 100 7 5 5 17 100 100 100
11 18 73 100 100 100 100 60 74 72 59 18 0 100 96 1 72 9 9 6 88 79 72 100 100 100 99 100 69 100 79 71 100 100 100 100 100 98 100 100 70 13 5 8 24 99 100
14 13 100 100 100 100 71 100 42 100 93 0 0 93 84 0 4 8 46 27 40 49 76 78 100 100 100 100 98 100 94 100 100 100 100 100 100 100 100 73 67 11 6 90 100 99 100
10 7 64 100 100 92 100 50 100 98 1 0 0 0 1 0 5 5 86 91 18 56 100 87 100 100 100 100 100 100 100 100 100 100 100 100 100 87 5 41 37 75 9 5 15 54 5
3 16 38 75 100 49 28 33 99 0 0 0 0 0 4 5 5 22 100 5 5 10 5 82 100 99 100 100 100 100 100 100 83 100 100 100 100 100 61 72 15 56 5 4 4 0 5
2 11 6 22 8 14 2 9 93 0 0 0 5 0 5 5 29 99 37 27 3 5 5 19 88 100 100 100 100 100 100 100 96 64 93 100 91 100 100 100 88 5 7 42 64 20 5
0 1 6 98 4 0 0 98 83 1 4 0 1 2 2 5 48 98 5 6 4 5 3 57 6 66 100 92 58 85 53 100 85 85 33 5 19 100 94 100 68 63 94 84 78 9 5
5 0 73 39 5 0 70 61 67 0 0 3 6 19 5 48 89 39 5 5 5 5 5 5 24 6 39 99 100 100 100 45 26 75 74 86 99 100 100 99 96 74 84 63 95 60 57
5 5 5 5 27 0 99 21 1 0 0 7 74 3 10 30 16 0 0 0 4 4 2 4 4 5 5 68 76 66 85 100 100 100 100 77 85 95 100 100 100 100 100 99 100 100 64
9 24 5 0 2 3 35 4 0 0 0 0 24 18 5 58 19 5 5 5 5 4 0 0 0 5 5 25 100 74 43 33 84 73 91 100 91 99 88 77 99 100 100 86 84 70 98
4 79 5 3 0 92 62 6 0 0 0 0 1 60 71 45 99 98 71 5 41 80 5 2 0 5 5 5 5 45 87 86 63 100 100 30 84 98 99 70 54 9 63 87 99 100 52
5 5 5 1 1 70 26 0 0 0 0 0 5 64 10 100 100 51 95 98 91 98 5 5 22 6 5 5 5 5 5 5 6 20 58 97 100 100 100 98 88 40 69 100 100 100 100
5 5 26 5 0 2 4 0 0 0 0 0 0 10 69 87 93 91 82 95 100 67 12 17 75 24 36 5 5 5 5 5 5 5 14 78 100 100 100 94 100 44 88 46 100 100 100
5 61 12 4 5 5 3 0 0 0 0 0 0 4 8 40 100 100 100 100 97 5 92 5 50 67 37 69 6 5 5 5 5 5 5 5 5 9 26 5 34 54 100 100 74 100 88
5 10 6 3 5 4 5 4 1 0 0 0 3 0 1 5 78 88 100 100 100 49 19 33 73 62 62 55 32 5 5 5 5 7 5 6 11 8 43 50 36 5 5 5 8 9 18
54 9 10 14 5 5 5 5 5 4 0 0 5 3 5 4 30 75 100 92 100 100 67 33 10 16 14 5 57 23 37 97 68 100 94 100 100 90 81 58 38 61 5 10 27 25 100
5 5 24 11 5 5 5 5 5 5 5 4 5 5 4 5 5 51 82 100 100 100 97 100 83 5 5 5 5 34 5 33 98 8 6 96 100 99 97 100 22 10 74 100 100 100 92
46 6 62 5 5 65 31 12 37 5 5 5 5 5 8 5 4 5 75 100 78 100 100 56 75 41 83 37 52 52 5 5 12 60 58 80 67 46 100 100 85 93 100 64 53 100 87
5 5 5 5 28 100 100 96 100 48 7 5 5 5 95 6 5 5 61 91 88 84 100 80 80 100 100 100 97 95 75 88 5 7 5 54 96 89 97 100 100 93 98 84 98 97 100

GFSGBSN_prec_cloud_045.txt.gz
Cloud_Cover
38 18 4 85 100 69 0 100 69 77 100 2 86 0 0 0 0 3 0 1 5 5 61 46 8 100 100 100 53 100 100 100 100 100 100 67 44 0 100 94 100 100 100 100 100 100 100
95 5 0 71 97 100 42 48 100 99 71 54 2 17 0 0 0 1 5 5 5 5 68 77 73 100 100 100 99 100 100 100 100 100 100 87 81 37 100 9 80 100 100 100 100 100 100
100 35 3 99 98 100 100 90 19 100 48 72 67 0 19 0 0 0 3 5 5 5 5 6 12 99 100 100 65 75 100 100 100 100 100 98 55 16 18 0 49 100 100 100 100 100 100
100 38 2 10 61 97 100 100 100 50 94 94 100 78 0 3 0 0 5 5 5 2 0 1 4 94 87 90 100 100 100 100 100 100 100 100 100 100 1 0 0 93 100 100 100 100 100
96 79 11 8 47 100 86 89 17 93 99 53 100 93 81 0 4 1 5 82 5 69 1 0 7 100 32 94 100 100 100 100 100 100 100 100 100 71 6 1 7 4 14 100 100 100 100
86 96 12 10 85 100 100 100 100 52 86 58 49 100 97 0 4 0 4 100 5 100 66 0 0 5 72 100 100 97 91 100 100 100 100 100 100 7 63 3 31 4 30 89 100 100 100
54 100 57 97 100 100 100 100 100 100 92 8 76 100 100 76 2 5 2 34 45 60 100 4 4 4 4 17 35 97 75 100 100 100 100 100 46 59 5 2 1 0 9 100 100 100 100
62 100 72 100 100 100 100 100 100 100 100 72 99 88 100 100 14 5 4 5 22 23 96 67 0 0 1 21 14 100 74 100 100 100 100 100 76 18 41 56 78 0 5 27 100 100 100
89 84 76 94 100 100 100 100 100 100 100 98 100 47 100 100 24 4 5 5 78 99 76 100 16 4 4 4 24 100 68 100 100 100 100 100 87 32 38 26 100 7 0 4 68 95 100
93 100 92 86 100 100 100 100 100 100 100 100 100 94 100 100 19 3 5 28 78 29 93 99 99 25 5 44 53 100 68 100 100 100 100 100 98 88 79 15 100 82 4 4 12 100 100
5 42 27 100 100 100 100 100 100 100 100 100 63 3 100 100 5 5 5 5 15 52 98 98 100 39 6 94 57 53 100 100 100 100 100 100 100 100 100 15 78 60 5 5 71 86 83
5 46 86 100 100 68 90 100 100 100 100 55 0 6 100 46 98 5 5 6 100 62 74 100 100 99 34 99 100 100 93 100 100 100 100 100 100 100 100 77 14 51 74 84 97 10 6
5 96 48 94 47 20 85 100 100 100 77 1 0 58 96 2 7 9 95 23 73 40 74 100 100 100 35 100 87 100 100 100 100 100 100 100 100 100 100 12 42 52 99 99 94 96 36
5 90 9 5 20 29 99 100 100 100 73 37 10 1 50 5 5 10 39 80 23 36 100 100 100 100 100 100 100 100 100 100 100 100 100 100 100 100 89 67 59 81 100 49 23 56 57
5 7 23 5 5 87 55 100 100 80 3 64 0 0 19 22 42 94 100 5 4 5 5 100 100 100 100 97 100 98 100 100 100 100 72 100 100 100 100 100 92 18 58 51 5 3 39
5 13 5 5 62 99 100 100 100 4 3 28 0 2 5 5 100 100 68 13 8 5 70 100 100 100 100 100 100 100 71 100 100 100 100 100 100 100 99 97 89 65 80 43 16 5 5
4 10 9 16 6 28 98 94 32 0 0 0 2 8 7 7 95 96 13 22 5 5 5 35 91 86 84 100 100 100 17 52 100 100 100 100 100 100 92 32 20 25 91 7 21 5 5
5 5 13 87 5 16 92 87 56 0 0 2 0 45 17 45 100 99 6 5 5 5 5 5 5 76 22 100 100 100 82 93 79 100 100 100 100 100 100 95 94 32 15 92 7 7 18
5 5 22 73 5 25 48 2 0 0 0 0 48 17 78 100 43 5 5 5 5 4 4 5 5 5 30 97 21 25 100 97 99 96 99 87 100 100 100 100 99 100 100 98 45 70 35
26 10 100 86 5 7 11 0 0 0 0 0 2 4 39 87 39 5 5 5 5 4 0 0 0 5 5 23 45 49 85 96 100 100 82 78 58 100 94 88 73 84 100 74 60 82 53
33 37 100 6 56 5 5 3 0 0 0 0 4 33 24 52 7 5 5 5 29 74 5 3 5 5 5 5 27 68 43 92 81 83 100 100 100 100 100 100 100 97 70 91 84 100 46
12 8 5 90 97 5 5 0 0 0 0 4 1 3 5 5 82 64 48 98 65 100 50 7 6 6 5 5 5 5 5 5 40 100 100 69 99 100 100 100 76 12 100 95 99 44 100
65 5 5 99 21 5 5 4 0 0 0 0 0 4 13 32 80 98 81 52 30 100 27 88 100 85 84 7 5 5 5 5 28 17 69 94 100 96 38 51 6 21 94 88 100 100 100
5 5 5 100 81 5 5 4 0 0 0 0 0 0 5 5 54 100 92 63 57 43 94 28 96 97 67 97 86 5 5 5 5 5 5 7 38 53 100 100 100 100 97 5 43 100 91
5 72 93 100 78 5 5 5 0 0 3 0 0 0 0 2 5 43 100 100 72 16 95 68 58 60 73 56 61 15 10 52 20 5 5 5 5 29 18 65 49 8 5 5 9 95 4
40 90 100 21 90 5 5 5 0 5 5 1 0 0 0 2 4 5 43 93 86 95 57 79 16 9 81 94 65 12 6 6 61 69 100 100 90 34 6 42 24 10 5 5 5 8 5
85 43 17 5 5 5 5 5 3 5 5 5 4 1 3 5 5 5 5 66 12 97 100 100 100 50 7 22 81 85 58 35 56 99 76 78 100 68 99 100 81 45 27 5 6 24 6
71 16 93 5 5 5 5 5 5 5 5 4 4 5 5 5 5 5 5 22 24 22 97 100 48 17 35 14 24 82 25 17 17 41 99 100 82 53 72 96 98 69 68 13 49 11 28
97 100 33 5 5 5 5 5 5 5 5 5 4 5 10 4 5 5 1 5 11 65 97 100 100 92 94 100 91 64 79 87 5 5 5 50 80 99 99 99 83 96 93 66 100 100 99

GFSGBSN_prec_cloud_048.txt.gz
Cloud_Cover
32 100 88 99 100 100 100 85 6 0 0 43 100 19 100 12 0 14 4 5 5 4 5 35 1 16 25 70 56 100 100 100 100 100 100 97 39 14 1 2 10 100 100 98 100 100 100
56 100 99 67 100 100 100 100 100 22 22 85 90 98 11 100 71 0 5 2 0 4 0 0 13 100 100 95 100 100 100 100 100 100 100 100 94 98 3 100 6 17 100 100 100 100 100
97 98 93 94 100 100 76 69 41 94 39 100 99 27 95 1 44 0 4 2 0 5 0 7 3 33 100 100 100 100 100 100 100 98 100 100 100 62 5 46 96 100 100 100 100 100 100
98 45 70 100 100 100 100 100 97 9 20 100 73 100 77 100 1 0 2 5 0 5 4 0 1 48 88 98 100 100 99 100 100 100 100 100 100 99 59 51 30 100 100 100 100 100 100
75 27 65 92 100 100 100 100 100 100 60 74 100 98 100 39 68 4 0 54 4 13 54 0 2 70 36 100 99 100 100 100 100 100 92 100 100 87 98 6 70 96 48 100 100 100 100
6 98 74 36 100 100 100 99 100 100 100 77 100 100 100 100 5 10 0 17 5 9 9 7 0 2 6 88 90 85 87 100 100 100 100 100 100 100 89 4 39 47 8 57 100 100 100
100 99 15 46 100 100 100 100 100 100 100 100 100 100 100 100 100 8 5 2 52 12 49 32 4 4 80 100 98 88 100 100 100 100 100 100 100 81 38 76 5 5 8 100 100 100 100
100 96 5 45 25 60 100 100 100 100 100 100 100 100 100 100 100 30 5 5 60 42 100 81 1 0 5 94 31 64 95 100 100 100 100 100 100 100 97 47 5 16 0 31 100 100 100
100 98 6 67 95 99 53 100 100 100 100 100 100 100 100 100 100 11 5 5 42 92 88 98 5 3 2 6 4 5 84 100 100 100 100 100 100 100 84 47 20 94 4 1 19 100 100
100 79 11 49 33 7 98 100 100 100 100 100 100 100 47 100 16 5 5 5 31 97 100 100 48 23 5 6 9 49 99 100 100 100 100 100 100 71 83 77 14 69 5 0 0 10 100
100 97 7 38 33 30 100 100 100 100 100 100 100 100 100 100 5 5 5 5 5 70 99 100 94 5 5 31 49 16 100 100 100 100 100 100 100 100 100 90 47 98 12 4 45 71 81
73 67 41 9 6 58 100 100 100 100 100 100 100 100 100 96 99 5 8 5 73 58 93 100 59 25 18 5 16 100 100 100 100 100 100 100 94 72 82 79 99 100 7 9 59 90 84
100 26 100 7 15 61 100 100 100 100 100 100 100 86 100 5 29 9 58 18 65 64 96 100 100 5 26 7 94 60 100 100 100 100 100 100 100 93 53 86 22 35 12 60 22 39 14
79 7 55 52 76 93 100 100 100 100 100 100 69 89 96 18 5 57 30 88 30 56 100 100 100 41 87 84 26 74 86 100 100 100 100 100 100 74 32 85 84 99 24 5 23 52 8
91 20 82 94 57 62 100 100 100 51 92 87 0 9 75 100 100 100 87 5 5 5 84 100 99 100 91 81 62 95 89 100 100 100 100 100 100 100 89 100 67 87 100 100 64 5 5
8 5 68 100 27 6 100 100 100 5 16 3 0 4 24 29 100 100 55 13 8 6 21 100 100 100 100 100 56 98 96 100 100 100 73 65 99 100 100 95 94 49 53 38 39 5 5
40 5 90 89 15 7 99 49 27 5 3 0 0 78 15 100 100 96 44 56 8 20 10 96 94 100 73 74 95 100 100 100 100 100 100 98 62 100 100 100 92 85 62 26 8 5 5
54 8 100 17 11 45 93 6 5 0 0 2 0 88 29 100 100 100 35 5 5 5 5 23 97 95 99 99 76 8 99 100 100 100 100 100 88 100 100 100 72 92 7 5 5 7 24
97 85 100 100 87 100 40 5 5 0 0 0 3 89 100 100 82 5 5 5 5 5 5 5 75 23 8 97 99 67 5 100 100 100 100 100 100 99 100 84 53 99 100 96 47 72 6
83 99 100 100 80 95 5 6 5 0 0 0 5 7 85 100 88 5 5 5 5 5 3 5 5 63 5 10 65 100 100 100 86 100 100 100 100 100 100 100 100 82 80 91 71 96 62
100 100 100 97 100 58 31 14 5 1 0 0 3 34 8 41 32 5 5 5 6 58 5 5 5 5 5 5 5 5 46 100 100 100 97 100 100 100 100 100 100 96 53 53 32 69 57
100 100 100 92 70 16 62 52 5 0 0 6 0 5 5 5 5 8 18 6 12 67 35 8 5 6 5 5 5 5 5 6 59 92 100 100 99 86 82 100 100 90 100 85 84 100 100
100 100 100 69 13 100 58 40 5 0 0 0 1 5 10 5 5 77 99 40 31 8 8 99 100 96 86 11 11 12 5 5 5 10 82 18 28 84 100 99 60 100 100 81 86 100 43
100 100 100 37 100 100 50 36 4 4 1 0 7 1 5 5 5 69 95 94 84 98 53 93 100 84 60 85 79 73 52 6 5 14 33 55 90 98 84 24 49 97 90 63 58 100 25
100 100 100 80 100 28 100 20 5 5 2 4 9 0 3 5 5 5 77 99 62 18 96 93 92 51 96 79 90 87 92 76 25 16 5 5 5 22 66 94 100 97 38 6 48 9 11
100 81 100 100 89 96 89 5 47 5 78 19 12 0 0 2 5 5 5 5 46 26 44 96 87 74 95 96 92 58 17 6 54 79 100 100 100 82 58 55 49 75 43 48 50 8 5
100 67 100 14 100 97 53 16 20 74 100 3 1 0 3 5 5 5 5 5 5 5 86 94 96 98 70 23 16 49 22 64 63 89 41 88 100 71 98 99 75 5 5 15 52 56 5
100 99 86 100 56 11 62 100 100 100 100 7 4 4 2 5 5 5 5 5 5 5 38 98 96 84 97 35 14 5 6 41 58 20 26 78 71 46 34 74 60 10 30 20 44 24 13
100 97 100 85 100 100 31 100 100 100 100 74 0 0 0 2 5 0 4 5 5 5 5 20 9 100 100 98 91 62 23 80 5 5 5 10 73 99 84 17 5 24 5 28 46 7 34

GFSGBSN_prec_cloud_051.txt.gz
Cloud_Cover
98 55 14 100 100 42 100 69 64 100 58 59 46 86 98 6 100 1 0 11 1 0 0 0 0 0 0 63 9 39 98 100 100 100 100 100 92 91 7 1 16 72 100 100 100 98 100
79 99 90 98 98 70 100 100 97 0 23 99 100 65 19 100 26 64 8 1 4 2 4 0 0 5 44 63 4 5 100 100 100 100 100 100 93 74 35 1 4 100 100 100 100 100 100
100 31 99 76 100 55 100 100 100 100 99 73 100 100 59 0 99 0 9 5 5 5 5 0 0 8 69 62 27 5 99 100 100 100 100 100 100 100 45 4 0 93 100 100 100 100 100
100 100 26 24 79 100 82 99 100 100 100 100 100 100 100 100 63 50 0 5 5 5 5 5 0 6 94 96 91 67 96 100 100 100 100 100 100 100 100 50 4 5 14 99 100 100 100
100 93 92 29 93 95 100 100 100 100 100 100 100 100 100 100 44 2 5 2 5 25 5 5 0 1 59 69 94 97 100 75 100 100 100 100 100 100 100 76 70 6 58 77 100 100 100
78 100 100 64 44 100 17 100 100 100 100 100 100 100 100 100 100 10 5 2 23 67 17 5 0 0 21 95 100 99 84 86 100 100 100 100 100 91 100 23 96 28 69 100 100 100 100
100 100 100 100 5 100 52 100 100 99 48 100 100 100 100 100 100 86 6 5 70 90 33 75 0 0 7 100 100 100 56 100 100 88 100 100 100 98 42 95 40 5 85 38 100 100 95
100 100 100 100 65 100 89 100 100 100 99 100 100 100 100 100 100 100 13 5 97 80 87 99 0 0 5 88 100 99 100 100 100 71 100 100 100 100 100 100 97 30 5 5 20 15 68
100 100 89 100 54 100 100 100 100 100 100 78 100 100 100 100 100 28 5 5 82 100 79 87 4 2 28 55 15 90 100 100 99 100 100 100 92 100 100 100 100 14 14 74 2 14 89
100 100 100 91 50 100 100 100 100 100 36 100 100 100 100 100 12 5 5 5 33 90 89 97 49 24 5 5 13 5 100 100 100 99 100 100 100 100 100 100 97 98 84 67 22 4 38
100 100 100 71 63 99 100 100 100 85 99 100 100 100 100 96 5 5 5 17 31 83 96 100 79 5 5 20 11 8 100 99 100 100 100 100 100 100 100 97 79 93 5 73 6 5 5
100 100 100 32 57 100 100 100 99 94 95 100 100 100 100 96 96 5 53 6 80 55 100 100 35 22 37 7 78 73 100 100 100 100 100 100 100 100 100 100 66 12 5 35 81 91 65
100 100 99 18 100 100 100 100 92 100 64 100 100 100 57 7 28 15 66 19 83 68 100 100 81 5 5 95 100 100 100 100 100 100 100 100 100 100 100 94 78 80 55 77 85 88 65
100 98 81 98 100 100 100 100 100 100 29 100 76 99 6 26 41 99 82 81 53 90 100 100 18 5 72 97 97 100 100 100 100 100 100 100 100 47 18 55 86 100 62 5 32 55 5
100 19 75 100 96 100 100 97 78 7 24 61 0 4 96 99 100 100 87 6 84 97 100 100 17 96 8 5 67 100 100 100 100 100 100 100 100 63 13 74 100 99 89 5 7 5 8
100 33 65 61 92 100 100 51 53 37 11 5 1 2 6 96 100 98 70 30 94 100 100 100 91 78 6 5 61 100 100 100 100 100 100 100 94 93 100 95 94 85 29 13 5 24 40
100 100 100 61 99 98 100 94 13 100 5 5 5 18 17 100 97 99 91 64 74 98 99 100 100 100 33 4 25 100 100 100 100 100 100 99 57 100 100 76 43 58 35 87 70 55 5
100 100 100 98 100 100 90 85 16 100 10 5 5 71 79 100 99 100 83 5 21 75 74 98 100 100 86 65 64 100 100 100 100 98 52 25 84 100 100 98 50 64 30 97 5 12 5
100 90 100 100 100 100 91 10 100 100 6 5 5 73 90 100 88 13 5 5 5 5 48 100 100 96 100 100 76 84 100 100 100 95 100 86 27 93 100 100 100 96 100 100 88 95 70
100 100 100 100 100 100 100 56 100 97 18 5 4 35 100 100 100 89 5 7 5 5 5 78 78 99 100 100 100 100 50 100 100 100 100 100 100 100 100 97 71 87 73 15 9 65 61
100 100 100 100 100 90 100 90 98 54 70 5 4 1 6 91 76 5 5 5 6 5 5 2 5 5 24 99 87 73 56 100 100 100 100 100 100 100 100 100 100 100 52 81 100 98 63
100 100 100 100 100 98 96 56 95 66 83 5 0 5 5 5 19 8 30 60 12 5 6 6 5 5 5 78 78 100 100 74 68 99 70 100 100 100 100 100 100 100 100 67 19 26 57
100 100 100 100 100 100 100 100 65 100 35 5 5 25 5 5 27 67 87 49 96 68 27 22 33 45 22 8 5 5 5 38 94 100 73 91 99 95 100 99 100 100 100 64 84 99 19
100 100 100 100 100 100 100 100 84 100 13 5 2 91 5 5 16 39 91 89 100 100 28 37 81 72 96 77 68 64 72 58 33 19 26 21 26 58 100 87 94 100 92 50 100 94 17
100 100 100 100 100 100 100 100 100 100 50 5 24 100 55 5 5 5 62 81 100 85 92 76 92 22 44 98 96 100 78 83 100 98 58 10 60 75 100 89 91 95 68 30 95 26 100
100 100 100 100 100 100 100 100 100 100 7 54 100 98 15 4 6 5 10 85 100 100 76 83 100 85 82 88 90 92 83 84 84 84 99 100 100 79 83 80 85 27 6 28 50 7 100
100 100 100 100 100 100 100 100 100 100 31 89 100 26 15 6 5 5 5 42 12 5 37 55 88 86 78 100 100 95 77 35 28 18 38 78 100 96 100 100 19 25 50 13 17 63 75
100 100 100 100 100 100 100 100 98 99 58 100 100 7 30 5 5 5 5 5 3 5 10 50 21 26 81 58 74 22 10 39 50 36 93 95 93 77 98 99 76 42 62 74 59 21 63
100 100 100 100 100 100 100 100 100 91 100 100 100 61 4 5 81 5 5 5 5 5 5 5 32 100 41 94 96 57 69 77 27 5 26 28 84 98 69 77 92 68 89 99 94 98 71

GFSGBSN_prec_cloud_054.txt.gz
Cloud_Cover
92 63 93 12 97 52 100 100 100 85 19 5 88 98 1 93 97 15 4 0 1 0 2 0 0 0 5 7 44 27 100 100 100 100 91 100 100 100 100 96 100 31 75 80 64 78 100
100 88 60 51 100 84 99 100 100 100 100 98 99 95 85 26 63 55 0 0 1 5 5 3 0 0 28 58 11 68 100 100 100 100 100 100 100 100 100 100 47 100 100 100 78 100 82
100 100 81 83 36 100 100 100 100 100 100 100 100 100 100 73 30 46 13 0 2 5 34 5 0 5 12 35 5 5 88 100 100 100 100 100 100 100 100 100 91 44 100 97 100 100 92
100 100 100 55 100 100 100 100 100 100 79 100 100 100 100 100 10 5 19 1 5 5 31 5 0 3 8 42 62 22 40 100 100 100 100 100 100 100 100 100 99 4 100 100 100 100 95
100 100 100 100 100 100 100 100 100 100 34 91 100 100 100 100 100 97 1 5 5 44 28 5 0 0 31 56 97 100 100 97 100 84 100 100 100 100 100 100 100 15 100 100 100 100 100
100 100 100 100 99 100 100 100 100 100 99 96 100 100 100 100 100 100 2 5 6 95 59 5 0 1 6 90 100 98 94 100 100 100 100 100 100 96 100 100 27 4 57 100 100 100 100
100 100 100 100 100 100 100 100 98 32 93 100 100 100 100 100 84 100 10 5 14 88 81 4 1 0 3 37 100 97 100 100 100 89 100 100 100 100 70 100 100 74 52 64 95 100 100
100 100 100 100 100 100 100 100 100 6 95 100 100 100 100 100 95 100 5 5 27 68 89 2 0 0 4 84 81 100 100 100 100 100 96 100 100 100 95 100 100 100 40 14 100 100 100
100 100 100 100 100 100 100 100 100 11 100 87 100 100 100 100 78 34 6 5 5 63 71 5 4 4 97 60 90 83 96 95 100 100 100 100 100 100 100 100 100 100 100 36 93 100 100
100 100 100 100 100 100 100 100 100 25 96 99 100 100 100 100 51 9 5 5 5 5 55 31 4 21 64 88 100 100 100 100 100 98 100 100 100 100 100 63 100 100 100 100 66 7 15
100 100 100 100 100 100 100 100 100 34 99 100 100 100 100 96 9 5 5 5 5 10 98 54 84 6 5 49 100 100 100 100 100 74 93 100 100 100 100 100 100 100 100 100 100 5 4
100 100 100 100 100 100 100 100 100 68 95 100 100 100 99 73 72 5 5 5 18 61 82 94 31 17 18 20 91 100 100 100 96 100 100 100 100 100 100 100 100 100 96 81 60 53 46
100 100 100 100 100 100 100 100 98 100 76 91 100 100 22 10 43 6 5 10 80 90 100 67 58 26 11 62 98 100 100 94 100 93 100 100 100 100 96 100 100 100 100 80 96 87 45
100 100 100 100 68 100 100 100 87 51 35 100 100 79 11 56 66 59 9 22 56 88 100 67 5 76 67 93 100 100 100 100 89 100 100 100 100 100 100 100 100 100 96 13 82 73 67
100 100 100 100 57 100 100 100 98 11 20 86 27 5 49 95 100 96 84 56 77 94 95 73 5 5 60 65 100 100 100 100 100 100 100 99 100 98 100 31 100 100 23 11 44 27 95
100 100 100 100 83 100 100 100 100 15 18 65 18 6 30 98 100 78 34 48 84 98 69 85 78 24 5 100 85 88 100 100 100 100 100 100 100 100 100 96 83 100 100 100 55 25 34
100 100 100 100 100 100 100 100 100 18 5 9 5 27 23 88 52 83 96 83 83 82 100 100 100 98 51 76 100 100 78 100 100 98 93 100 86 99 66 84 68 100 95 94 90 20 18
100 100 100 100 100 100 100 100 100 14 5 52 5 48 59 43 95 59 95 26 50 78 58 84 93 99 21 5 100 100 92 100 95 94 82 53 92 98 100 100 100 100 68 68 83 31 5
100 100 100 100 100 100 100 100 53 20 57 87 22 90 87 80 62 34 6 8 18 11 70 30 64 99 63 6 97 100 100 52 51 90 30 21 94 92 100 82 91 100 100 100 94 99 98
100 100 100 100 100 100 100 100 65 98 100 61 6 83 98 100 95 72 6 5 5 5 78 85 46 88 100 51 19 100 100 100 100 100 82 14 9 98 71 86 61 61 27 38 17 44 100
100 100 100 100 100 100 100 100 77 100 100 88 5 1 92 94 47 6 5 5 5 5 5 5 89 54 57 100 64 100 100 70 70 55 16 96 100 91 44 74 76 75 26 17 8 27 19
100 100 100 100 100 100 100 100 96 100 100 95 5 3 100 5 5 6 5 5 5 3 5 5 5 5 5 5 74 5 100 100 100 100 100 100 100 100 100 100 100 100 100 100 100 98 9
100 100 100 100 100 100 100 100 100 100 100 16 5 7 72 5 12 60 11 40 82 5 5 5 5 5 6 15 10 14 67 78 6 34 94 96 100 100 100 100 100 100 100 89 96 64 7
100 100 100 100 100 100 100 100 100 100 92 12 5 28 99 6 9 12 5 5 74 61 5 5 5 32 32 86 34 33 6 5 29 38 84 83 77 95 100 100 100 100 100 100 45 7 5
100 100 100 100 100 100 100 100 100 100 71 60 35 67 63 4 5 5 14 5 21 58 13 5 45 63 63 89 91 93 100 95 63 56 51 100 100 100 100 100 96 100 68 18 5 65 42
100 100 100 100 100 100 100 100 100 100 100 6 19 100 20 0 5 5 89 14 85 97 75 38 70 64 46 53 66 16 73 41 64 78 100 100 100 100 100 85 90 17 39 54 36 75 100
100 100 100 100 100 100 100 100 100 100 100 40 90 13 100 6 5 39 59 19 35 80 64 87 95 21 7 5 69 41 30 5 66 54 44 55 95 88 100 100 34 44 28 68 48 79 90
100 100 100 100 100 100 100 100 100 100 100 84 82 60 100 99 36 100 23 5 5 5 5 6 10 6 16 39 14 9 21 5 26 39 64 80 77 89 90 89 73 99 84 70 19 59 50
100 100 100 100 100 100 100 100 100 100 100 77 75 62 100 100 8 100 70 5 65 2 5 5 6 75 13 55 47 92 100 69 5 86 60 92 65 77 40 99 100 80 100 96 95 100 100

GFSGBSN_prec_cloud_057.txt.gz
Cloud_Cover
100 84 100 100 100 50 93 18 45 100 81 12 70 100 98 0 0 55 25 0 3 0 5 5 4 0 6 26 54 99 100 54 14 100 100 56 100 75 66 100 69 100 100 100 76 97 100
100 100 100 70 100 100 100 54 22 100 100 8 99 100 100 29 0 0 52 0 0 8 5 21 5 1 55 56 40 17 100 62 18 100 100 90 100 100 98 93 100 100 100 100 96 100 98
100 100 100 100 92 100 100 100 54 100 99 96 100 100 100 98 58 0 3 56 0 5 5 23 5 0 32 100 37 43 99 93 86 100 100 97 100 100 100 100 100 100 100 100 100 68 100
100 100 72 100 100 100 100 100 65 98 100 100 34 90 99 100 90 2 26 0 1 5 66 24 1 1 66 5 19 37 52 100 99 100 100 100 100 95 100 100 98 100 100 91 100 94 82
100 100 100 100 100 100 100 100 98 85 100 100 36 57 98 88 100 0 49 0 5 5 92 62 1 2 97 28 54 28 6 100 100 100 100 100 99 100 100 100 100 100 100 100 70 91 66
100 100 100 100 100 100 100 98 57 100 100 80 61 29 100 63 100 2 67 2 5 24 77 4 3 26 52 87 99 96 100 96 100 100 100 100 100 100 100 100 100 97 100 93 36 39 77
100 100 100 100 100 100 100 100 83 100 100 37 59 100 100 98 100 1 42 7 48 39 84 4 16 4 5 93 100 82 62 100 100 100 100 100 100 100 20 100 100 100 100 100 96 18 60
100 100 100 100 100 100 100 65 85 100 99 65 5 95 84 99 78 93 53 26 5 28 57 5 0 2 5 78 100 100 100 100 100 100 100 100 100 100 100 100 77 100 99 10 99 93 100
100 100 100 100 100 100 100 100 92 100 55 79 5 73 98 100 100 78 47 5 5 52 95 56 2 4 35 100 100 100 100 100 100 100 67 100 100 100 100 100 100 100 100 88 71 100 100
100 100 100 100 100 100 79 99 100 100 36 98 5 98 99 100 55 66 5 5 5 27 87 51 70 16 6 64 100 100 100 100 100 100 87 100 100 98 100 100 100 100 100 100 100 100 100
100 100 100 100 100 100 94 100 100 100 100 81 6 100 100 100 90 39 9 5 5 28 100 45 64 0 65 53 90 100 100 94 100 67 98 100 100 98 100 100 100 100 100 100 96 100 100
100 100 100 100 100 100 82 100 100 100 100 80 80 100 67 51 98 55 5 5 40 98 97 84 43 24 55 89 100 100 100 100 100 78 100 100 100 100 100 100 100 100 100 100 76 94 100
100 100 100 100 100 100 100 100 100 100 100 84 55 95 100 100 100 5 5 81 98 100 87 49 48 73 99 92 100 100 100 100 44 96 100 100 100 100 100 100 100 100 100 100 100 98 76
100 100 100 100 100 100 100 100 100 100 100 87 93 83 23 63 5 5 82 96 88 68 94 29 56 39 98 100 78 75 100 99 72 42 100 100 100 100 100 100 100 100 100 100 100 100 100
100 100 100 100 100 100 100 100 100 100 100 78 38 98 93 90 6 30 100 100 95 95 59 5 14 96 96 88 100 98 100 79 75 56 100 100 100 100 97 100 100 100 100 100 100 94 27
100 100 100 100 100 100 100 100 100 100 99 98 98 100 82 86 7 79 99 61 87 95 52 29 90 48 96 92 96 100 100 99 69 72 100 100 100 99 98 85 100 100 100 100 100 100 98
100 100 100 100 100 100 100 100 100 100 100 100 100 100 71 6 82 93 98 88 55 78 62 92 97 44 91 83 100 100 89 100 100 100 100 98 96 98 100 87 100 100 100 100 100 86 80
100 100 100 100 100 100 100 100 100 100 100 100 95 100 61 25 95 94 100 69 11 37 97 94 100 99 98 5 69 100 100 100 84 100 98 99 88 61 100 100 100 100 100 100 100 100 98
100 100 100 100 100 100 100 100 100 100 100 100 100 62 60 88 97 95 11 24 24 54 31 97 42 72 17 75 74 100 100 45 97 92 100 100 99 99 100 100 84 52 56 98 100 100 69
100 100 100 100 100 100 100 100 100 100 100 100 100 92 77 96 95 93 44 45 22 5 5 5 31 8 32 70 80 92 98 31 70 89 91 87 100 100 100 100 100 100 100 100 100 100 100
100 100 100 100 100 100 100 100 100 100 100 100 100 35 45 91 32 62 34 23 64 32 5 5 5 14 49 71 92 100 95 97 47 13 75 78 94 100 100 100 100 100 100 100 100 100 76
100 100 100 100 100 100 100 100 100 100 100 100 87 53 64 93 14 36 5 48 58 5 30 5 19 5 5 72 27 100 87 99 36 20 34 66 100 58 59 97 79 100 100 96 100 77 76
100 100 100 100 100 100 100 100 100 100 100 98 98 96 68 17 17 73 25 5 5 5 5 17 5 14 8 44 9 8 53 90 97 96 82 43 25 89 100 88 91 92 88 47 16 11 27
100 100 100 100 100 100 100 100 100 100 100 34 57 74 67 40 26 62 5 5 5 5 6 5 5 52 20 5 5 5 5 46 100 100 100 100 100 100 100 100 100 100 100 100 100 85 24
100 100 100 100 100 100 100 100 100 100 100 64 67 48 92 97 15 5 5 82 29 5 5 5 5 5 44 5 48 19 64 72 79 73 69 82 89 78 79 82 23 74 50 86 100 99 100
100 100 100 100 100 100 100 100 100 100 100 70 54 73 86 98 17 5 6 100 70 96 7 5 5 5 5 9 73 100 98 91 69 43 42 37 40 91 100 98 64 94 100 97 29 50 40
100 100 100 100 100 100 100 100 100 100 100 100 20 6 5 97 71 5 36 100 17 8 58 5 5 5 5 56 99 99 94 15 98 99 95 100 100 100 100 95 75 48 88 83 74 33 99
100 100 100 100 100 100 100 100 100 100 100 100 30 97 5 99 6 5 74 100 19 5 47 6 5 6 10 50 61 86 96 73 42 26 62 87 97 100 100 100 97 100 58 63 44 8 53
100 100 100 100 100 100 100 100 100 100 100 95 95 88 45 86 10 14 96 100 77 16 38 5 10 5 6 56 5 5 12 8 27 82 5 53 19 81 37 86 5 26 94 83 91 100 98

GFSGBSN_prec_cloud_060.txt.gz
Cloud_Cover
100 100 100 100 94 88 62 100 100 100 99 83 100 49 43 5 5 0 10 82 0 11 10 0 5 1 0 24 72 13 100 100 100 100 100 99 100 68 100 100 100 100 100 100 98 76 68
100 100 100 100 99 100 100 99 100 100 100 100 76 17 5 5 16 0 0 3 63 0 10 5 5 0 58 47 72 33 99 100 100 99 100 99 100 82 100 100 100 100 100 100 100 82 100
100 100 100 100 100 100 100 100 100 100 100 100 74 6 5 75 98 18 1 3 12 0 5 5 5 0 34 52 72 100 68 100 100 82 100 100 100 100 100 100 100 100 100 100 100 100 74
100 100 100 100 100 100 100 100 100 100 100 91 21 5 20 80 70 73 2 1 0 5 5 5 2 0 28 19 5 20 89 100 100 85 100 100 100 100 67 100 100 100 73 100 100 100 89
100 100 100 100 100 100 100 100 100 100 100 97 74 5 10 64 89 76 5 0 2 5 5 5 1 21 92 5 9 5 14 100 91 70 100 100 83 86 100 72 90 98 90 100 100 100 100
100 100 100 100 100 100 100 100 100 100 100 74 88 44 70 100 83 25 3 0 5 5 5 3 4 56 31 45 48 96 12 100 19 88 100 100 100 91 100 100 55 85 81 100 100 100 97
100 100 99 100 100 100 100 100 100 100 100 5 99 75 79 100 100 44 2 0 55 36 40 15 30 4 5 7 68 69 55 53 100 100 100 100 94 49 58 100 100 81 100 100 100 100 89
100 100 100 100 100 100 100 100 100 100 100 14 78 94 70 29 9 5 64 42 11 5 54 0 1 2 44 94 100 100 21 97 100 100 100 100 100 59 100 100 100 100 100 100 100 100 89
100 100 100 100 100 100 100 100 100 100 100 97 92 100 35 5 71 14 25 81 5 5 95 43 3 6 4 100 98 100 97 100 100 100 100 100 100 100 100 100 100 100 100 100 100 100 88
100 100 100 100 100 100 100 100 100 100 100 71 99 100 16 100 53 78 40 6 5 5 94 37 36 25 15 100 100 100 100 100 100 100 100 100 100 80 100 100 100 100 100 100 100 100 96
100 100 100 100 100 100 100 100 100 100 100 61 100 100 16 89 98 75 57 5 5 11 100 52 4 0 4 91 97 100 100 100 100 100 100 100 100 100 100 100 100 100 100 100 100 100 100
100 100 100 100 100 100 100 100 100 100 100 86 86 100 94 13 100 83 5 5 65 100 99 16 3 8 78 97 100 100 100 100 100 100 100 100 100 100 100 98 55 12 98 33 99 100 94
100 100 100 100 100 100 100 100 100 100 100 100 100 100 92 98 98 5 5 62 99 99 94 38 14 36 74 82 77 100 96 100 100 100 100 100 100 100 93 83 100 99 100 71 66 77 46
100 100 100 100 100 100 100 100 100 100 100 100 100 100 71 100 8 5 22 94 100 93 80 11 27 38 55 33 100 84 94 86 100 77 100 100 100 100 100 100 100 100 100 100 99 99 100
100 100 100 100 100 100 100 100 100 100 100 100 100 100 100 6 5 35 97 100 95 98 7 42 81 98 18 6 91 100 100 62 74 80 77 100 100 100 100 73 100 99 100 100 43 37 100
100 100 100 100 100 100 100 100 100 100 100 100 100 100 100 5 5 52 100 66 95 76 3 43 89 65 82 88 71 90 71 51 86 17 54 100 100 96 99 94 100 100 100 100 97 100 100
100 100 100 100 100 100 100 100 100 100 100 100 100 100 98 15 27 94 100 94 97 68 5 32 5 90 30 99 94 31 93 47 6 100 91 99 87 100 75 98 100 100 100 100 100 100 100
100 100 100 100 100 100 100 100 100 100 100 100 100 100 96 56 87 81 99 59 100 100 100 81 5 35 96 5 9 12 58 72 55 26 76 74 100 97 100 96 92 100 100 100 100 100 100
100 100 100 100 100 100 100 100 100 100 100 100 100 100 100 62 60 92 23 8 100 99 100 100 14 5 5 73 72 99 88 100 100 72 80 100 99 79 100 100 86 100 100 100 100 100 100
100 100 100 100 100 100 100 100 100 100 100 100 100 100 100 70 66 100 37 28 5 24 28 80 23 45 98 96 100 100 100 92 75 69 72 83 85 99 100 100 81 74 100 100 100 100 100
100 100 100 100 100 100 100 100 100 100 100 100 100 100 96 73 39 94 94 14 5 5 14 21 6 25 82 63 100 100 100 98 16 13 51 97 98 95 95 100 100 100 39 89 100 100 100
100 100 100 100 100 100 100 100 100 100 100 100 100 100 88 5 5 84 53 5 76 5 25 5 62 5 5 87 86 99 74 93 77 18 35 57 100 100 100 100 100 100 100 100 93 93 100
100 100 100 100 100 100 100 100 100 100 100 100 97 100 82 5 59 20 8 15 26 3 5 7 50 8 4 0 2 16 8 21 95 48 27 22 44 74 100 88 84 99 100 100 79 92 100
100 100 100 100 100 100 100 100 100 100 100 100 86 95 22 47 8 42 98 19 4 5 3 3 6 13 4 1 5 5 7 99 35 75 84 88 69 42 38 13 58 100 65 44 33 71 100
100 100 100 100 100 100 100 100 100 100 100 100 100 80 72 100 31 75 75 6 38 5 5 3 0 0 5 5 10 5 36 12 33 98 98 97 100 100 99 96 59 83 100 97 48 79 100
100 100 100 100 100 100 100 100 100 100 100 100 100 40 97 66 18 5 5 5 5 14 100 9 1 4 4 5 5 5 77 94 27 5 5 5 5 43 19 9 6 14 100 24 5 18 78
100 100 100 100 100 100 100 100 100 100 100 100 100 66 100 83 64 8 5 33 95 35 100 6 5 5 5 5 5 46 60 12 15 42 5 5 20 54 84 82 21 17 62 80 26 34 99
100 100 100 100 100 100 100 100 100 100 100 100 100 99 100 38 44 5 5 5 5 5 98 5 5 5 5 53 20 25 46 9 30 27 61 6 5 5 5 56 48 60 74 76 36 66 5
100 100 100 100 100 100 100 100 100 100 100 100 100 100 100 92 57 5 5 5 5 21 82 5 5 5 5 80 5 5 5 5 16 83 5 8 6 33 37 23 5 57 15 20 94 100 58

GFSGBSN_prec_cloud_063.txt.gz
Cloud_Cover
99 100 100 100 100 100 100 100 100 100 100 100 100 100 90 5 5 22 0 5 4 37 0 2 0 0 0 17 12 5 5 100 100 100 100 91 74 100 100 27 100 100 100 100 99 100 100
100 100 100 90 100 100 100 100 100 100 100 100 100 98 89 5 6 92 38 5 1 51 0 2 5 1 4 14 51 89 6 100 100 94 100 100 99 94 100 96 100 100 100 100 100 100 100
82 100 88 94 98 100 100 100 100 100 100 100 100 96 6 26 32 88 62 4 22 9 0 5 5 0 0 0 41 72 15 88 100 100 100 100 100 92 100 99 100 100 100 100 100 100 99
100 99 99 100 100 99 100 100 100 100 100 100 100 100 55 64 13 78 40 0 0 0 2 5 4 0 1 5 5 5 5 98 100 100 100 100 98 71 100 47 98 100 100 100 100 100 100
100 100 100 99 100 100 100 100 100 100 100 100 100 100 100 100 100 18 5 0 0 4 5 5 0 5 30 11 8 5 5 100 100 84 100 97 100 100 100 98 100 100 100 100 100 100 100
100 100 100 100 100 100 100 100 100 100 100 100 100 100 83 100 99 46 5 0 0 5 5 4 4 10 8 4 6 46 36 59 100 63 100 100 100 100 100 92 100 100 100 100 100 100 100
100 100 100 100 100 100 100 100 100 100 100 100 100 98 100 100 91 5 5 1 4 5 5 0 2 4 4 37 99 84 62 66 100 91 100 100 100 100 100 77 100 100 100 100 100 100 100
100 100 100 100 100 100 100 100 100 100 100 100 100 100 100 100 74 23 3 4 5 5 5 4 0 2 5 99 100 83 22 100 100 100 100 100 95 98 100 100 100 100 100 100 100 100 100
100 100 100 100 100 100 100 100 100 100 100 100 100 100 100 100 99 31 1 4 5 5 8 20 3 3 4 100 95 100 26 100 100 100 100 74 99 100 90 97 100 100 100 100 100 100 100
100 100 100 100 100 100 100 100 100 100 100 100 100 100 100 100 100 100 10 5 5 5 80 5 5 32 36 100 98 100 100 100 100 100 100 100 100 81 68 98 77 89 100 100 100 100 100
81 98 100 100 100 100 100 100 100 100 100 100 100 100 100 100 100 88 19 5 5 6 54 4 0 2 100 100 100 100 100 100 100 100 99 100 100 100 97 89 86 10 12 100 100 95 99
2 100 100 100 100 100 100 100 100 100 100 100 100 100 100 100 100 76 3 5 7 31 20 6 0 4 99 73 100 100 100 100 100 100 100 100 98 100 100 95 100 97 20 100 100 100 100
3 100 100 100 100 100 100 100 100 100 100 100 100 100 100 100 100 60 0 5 81 6 47 3 4 12 14 73 99 100 100 100 99 100 100 100 100 100 100 100 100 99 100 100 100 99 100
62 79 100 100 100 100 100 100 100 100 100 100 100 100 100 100 100 21 5 73 16 11 14 3 5 9 6 12 76 61 99 100 100 100 100 100 100 53 100 47 23 59 100 100 100 96 46
100 100 100 100 100 100 100 100 100 100 100 100 100 100 100 100 100 14 31 86 88 19 4 5 5 5 5 18 21 97 96 100 100 100 100 100 100 70 92 100 60 5 6 100 100 100 100
100 100 100 100 100 100 100 100 100 100 100 100 100 100 100 100 99 18 71 89 93 3 5 17 18 5 32 7 53 35 65 96 100 98 100 98 97 70 54 95 100 86 24 29 100 100 100
100 100 100 100 100 100 100 100 100 100 100 100 100 100 100 100 30 95 98 100 98 3 1 5 5 5 5 32 58 64 50 62 51 62 38 92 89 100 55 62 100 100 98 100 80 100 97
100 100 73 100 100 100 100 100 100 100 100 100 100 100 100 54 52 100 100 100 98 50 8 2 5 5 5 40 29 32 97 11 5 16 23 84 100 98 59 20 100 100 100 100 100 100 100
100 100 100 100 100 100 100 100 100 100 100 100 100 100 100 100 75 97 89 100 100 100 12 5 5 3 5 9 13 95 82 48 97 6 6 100 94 84 96 30 97 100 100 100 100 100 100
96 99 100 100 100 100 100 100 100 100 100 100 100 100 100 100 73 71 5 19 91 100 100 6 2 5 5 21 5 79 68 73 96 39 100 63 76 70 100 100 99 100 94 100 100 100 100
63 98 100 100 100 100 100 100 100 100 100 100 100 100 86 97 92 81 54 8 5 19 37 78 33 11 27 19 54 95 99 100 67 21 8 6 89 42 94 100 92 72 81 100 100 100 100
17 100 100 100 100 100 100 100 100 100 100 100 100 100 100 96 83 73 93 100 5 5 5 81 62 35 6 5 5 40 100 86 15 6 5 5 93 100 100 100 62 100 100 100 100 100 100
100 100 100 100 100 100 100 100 100 100 100 100 100 99 84 100 100 14 5 74 38 5 42 5 57 5 5 5 4 9 64 18 23 5 26 33 76 87 95 84 100 100 100 100 100 100 100
100 100 100 100 100 100 100 100 100 100 100 100 100 90 51 82 100 5 5 23 5 5 6 39 59 5 2 3 5 5 5 5 17 57 37 34 5 8 19 19 56 54 45 73 89 100 100
100 100 100 100 100 100 100 100 100 100 100 100 100 66 76 85 100 14 71 82 5 4 0 5 5 4 3 5 5 5 14 5 5 61 63 12 5 5 50 23 5 6 8 5 5 6 19
100 100 100 100 100 100 100 100 100 100 100 100 100 100 60 100 90 31 99 62 4 5 1 3 0 5 5 5 5 5 30 60 24 5 5 5 15 51 22 72 67 12 10 12 5 23 5
100 100 100 100 100 100 100 100 100 100 100 100 100 100 85 100 65 13 20 5 5 5 0 4 2 5 5 5 5 7 32 8 5 5 5 5 5 22 18 62 75 33 14 16 67 5 55
100 100 100 100 100 100 100 100 100 100 100 100 100 100 100 100 49 40 7 5 5 5 3 4 4 5 5 5 6 5 5 5 21 5 5 5 5 5 51 98 73 5 5 21 55 92 81
100 100 100 100 100 100 100 100 100 100 100 100 100 100 100 100 62 51 17 5 5 5 3 4 4 3 5 9 5 5 5 5 5 5 5 5 5 12 5 8 5 5 5 28 68 89 92

GFSGBSN_prec_cloud_066.txt.gz
Cloud_Cover
100 98 100 98 93 100 100 100 100 100 100 100 100 100 100 100 83 78 77 46 5 90 11 0 2 0 0 25 0 2 5 1 99 100 100 100 100 100 97 8 27 100 100 100 90 94 100
96 25 28 40 21 90 100 100 100 100 100 100 100 100 100 100 68 100 8 90 5 12 16 0 0 4 4 45 3 11 5 0 100 96 100 100 100 100 100 16 97 100 100 100 100 100 100
100 100 53 99 72 14 100 100 100 100 100 100 100 100 94 100 100 100 50 36 5 3 16 0 3 5 0 0 0 5 5 5 100 100 100 100 100 100 100 63 94 100 100 100 100 100 100
100 100 100 97 100 73 43 100 100 100 100 100 100 100 100 100 100 95 37 5 4 1 5 3 4 0 10 0 5 5 5 5 100 100 100 100 100 96 100 73 100 100 100 100 100 100 100
100 100 100 100 100 90 91 96 100 100 100 100 100 100 100 100 100 90 23 5 2 0 5 3 0 5 1 3 2 5 5 40 100 100 100 100 100 99 100 99 100 100 100 100 100 100 100
89 96 100 100 100 100 100 100 100 100 100 100 100 100 100 100 100 100 7 5 4 0 3 3 1 3 2 5 5 59 7 9 100 100 89 100 100 99 100 98 100 100 100 100 100 100 100
26 100 48 100 100 100 99 100 100 100 100 100 100 100 100 100 100 100 13 5 4 5 0 0 0 0 4 6 59 99 15 5 100 100 100 100 100 100 100 97 46 100 100 100 100 100 100
0 0 0 70 100 100 100 100 100 100 100 100 100 100 100 100 100 100 13 5 0 0 0 0 1 0 5 84 94 91 35 76 100 100 100 100 100 90 91 100 100 100 100 100 100 100 100
93 6 5 5 6 100 100 100 100 100 100 100 100 100 100 100 100 100 14 5 3 0 5 5 5 4 90 90 100 63 46 96 99 100 100 98 100 100 100 96 100 100 100 100 100 100 100
96 100 46 0 0 62 100 100 100 100 100 100 100 100 100 100 100 78 5 5 5 0 6 1 2 15 67 94 94 100 100 99 100 100 100 100 99 100 100 89 61 100 100 100 100 100 100
7 100 92 18 0 47 100 100 100 100 100 100 100 100 100 100 100 16 5 5 38 2 4 0 0 46 100 77 85 100 100 100 100 100 100 100 100 100 83 18 100 100 100 100 100 100 100
93 100 65 93 24 20 100 100 100 100 100 100 100 100 100 100 100 5 5 13 5 5 2 7 2 27 97 100 100 100 100 100 100 100 100 100 94 99 98 48 90 100 100 100 100 100 100
5 99 27 100 100 18 100 100 100 100 100 100 100 100 100 100 69 5 5 5 5 7 6 2 3 5 100 98 94 100 100 100 42 100 100 100 100 100 94 23 34 100 100 100 100 100 100
5 99 100 100 95 100 100 100 100 100 100 100 100 100 100 100 44 6 5 46 7 5 5 0 5 5 24 51 39 100 100 100 97 96 100 100 100 100 87 91 61 100 86 100 100 100 100
71 100 100 100 100 100 98 100 100 100 100 100 100 100 100 100 98 53 14 10 5 5 0 0 5 5 59 5 100 100 100 100 100 76 92 97 100 100 92 92 80 100 94 100 100 100 100
100 100 100 100 100 100 100 100 100 100 100 100 100 100 100 100 94 80 62 5 5 0 0 5 5 5 5 6 97 90 99 98 100 98 92 35 93 85 14 48 66 74 97 97 100 95 86
100 100 100 100 100 100 83 100 100 100 100 100 100 100 100 100 100 88 71 63 5 0 0 2 5 5 5 78 100 100 100 100 76 92 76 90 100 100 95 75 68 5 90 100 100 100 99
100 100 62 100 100 100 100 100 100 100 100 100 100 100 100 100 87 91 65 100 5 0 0 4 5 5 7 100 78 73 83 93 94 100 63 63 22 74 17 18 100 100 54 36 84 100 96
98 99 16 15 100 100 100 100 100 100 100 100 100 100 100 100 100 100 94 88 5 4 2 5 5 1 5 5 37 86 7 5 7 51 49 5 16 36 21 22 96 100 100 100 39 96 100
5 16 5 10 100 100 100 100 100 100 100 100 100 100 100 100 94 88 100 94 89 5 4 5 5 5 1 5 5 80 93 40 5 1 4 5 5 6 85 15 90 100 100 73 45 72 100
9 82 5 78 100 100 100 100 100 100 100 100 100 100 100 100 88 70 30 85 100 6 4 2 5 5 5 5 4 62 100 100 79 5 5 4 46 62 99 5 51 46 100 100 100 100 99
30 5 13 100 100 100 100 100 100 100 100 100 100 100 100 100 67 29 40 6 5 5 4 5 4 5 5 3 2 5 99 100 100 38 5 54 5 5 5 71 17 29 100 100 100 100 100
5 27 100 100 100 100 100 100 100 100 100 100 100 100 100 100 100 18 58 86 16 5 8 8 10 5 5 5 5 5 5 5 5 5 5 5 5 5 6 44 41 91 75 25 65 100 100
53 100 100 100 100 100 100 100 100 100 100 100 100 100 100 100 98 23 27 79 79 38 7 5 27 5 5 5 5 9 5 5 5 5 5 5 5 9 40 35 14 29 72 96 99 100 100
100 100 100 100 100 100 100 100 100 100 100 100 100 100 100 100 100 50 90 5 90 5 5 5 5 5 5 5 10 5 5 6 6 5 5 5 5 5 5 5 4 5 5 4 5 16 78
100 100 100 100 100 100 100 100 100 100 100 100 100 100 100 100 97 31 81 68 10 5 5 5 5 5 5 5 5 5 18 5 5 7 10 5 5 5 5 5 5 0 0 0 1 5 4
100 100 100 100 100 100 100 100 100 100 100 100 100 100 100 100 99 36 96 62 54 5 5 5 4 5 5 5 5 7 5 5 5 5 5 74 22 5 5 5 9 5 25 5 5 5 66
100 61 100 100 100 100 100 100 100 100 100 100 100 100 100 100 100 47 6 5 5 5 0 1 5 5 9 5 5 5 5 5 5 4 5 2 5 5 5 5 52 0 5 5 5 7 60
100 100 100 100 100 100 100 100 100 100 100 100 100 100 100 100 100 76 6 6 5 4 5 0 0 3 25 5 5 4 5 5 5 5 5 5 0 5 3 4 0 0 5 5 5 2 0

GFSGBSN_prec_cloud_069.txt.gz
Cloud_Cover
100 100 100 79 82 100 69 86 96 80 100 100 100 100 100 100 63 100 100 100 29 18 100 5 3 2 0 5 3 0 2 1 4 0 65 100 100 100 100 100 72 5 52 100 100 95 100
100 100 100 100 100 99 55 5 8 63 100 100 100 100 100 100 100 100 100 86 5 5 14 40 5 0 5 55 0 0 0 3 5 0 100 94 100 100 100 100 48 0 98 93 100 100 100
100 100 99 98 100 100 100 47 18 26 100 100 100 100 100 100 100 100 100 36 5 5 5 4 5 4 0 1 0 5 5 5 2 4 100 100 100 100 100 100 19 0 98 100 100 100 100
5 72 100 100 100 100 100 100 77 38 69 100 100 100 100 100 100 100 100 95 5 5 8 5 3 0 28 0 1 4 5 5 2 96 100 99 100 100 100 100 41 32 100 100 100 100 100
0 4 9 80 100 100 89 100 100 82 77 100 100 100 100 100 100 100 100 66 16 5 14 17 18 4 9 0 1 4 5 5 7 99 100 100 100 100 100 92 92 100 100 99 100 100 98
93 100 32 3 28 100 100 95 100 35 100 100 100 100 100 100 100 100 100 100 39 5 5 0 0 14 0 0 3 5 5 56 34 100 100 100 100 100 100 95 95 97 100 100 100 100 100
100 100 100 99 11 16 84 88 64 92 100 100 100 100 100 100 100 100 100 100 48 5 0 0 0 0 0 4 68 98 64 5 8 100 100 100 100 82 100 100 100 100 100 100 100 100 100
87 83 100 100 100 43 9 68 27 99 100 100 100 100 100 100 100 100 100 99 20 5 1 0 1 0 4 93 90 63 6 57 85 100 100 100 100 93 100 100 100 100 100 100 100 100 100
100 100 28 100 100 95 1 6 5 97 100 100 100 100 100 100 100 100 100 96 5 5 5 0 4 5 5 76 38 52 40 64 94 100 100 99 100 57 100 100 100 100 90 100 100 100 100
100 72 22 35 80 98 73 19 18 52 100 100 100 100 100 100 100 100 100 77 5 5 5 0 0 19 54 53 100 98 100 100 94 100 100 100 100 98 100 100 100 100 100 100 100 100 100
52 11 49 67 100 100 2 96 58 16 100 100 100 100 100 100 100 100 100 88 5 5 3 0 0 5 76 100 97 100 100 100 100 100 82 100 100 99 100 100 100 100 97 100 100 100 100
33 34 7 9 55 100 15 100 95 30 100 100 100 100 100 100 100 100 100 54 25 10 0 3 0 24 84 100 100 100 100 100 100 100 100 100 100 100 100 100 100 100 100 100 100 100 100
57 100 14 3 57 68 90 100 44 83 100 100 100 100 100 100 100 100 100 46 53 7 4 0 1 54 80 70 100 100 100 100 100 100 90 100 100 100 100 85 100 100 100 100 100 100 100
99 100 55 89 100 100 100 100 89 100 100 100 100 100 100 100 100 100 100 100 94 5 5 0 5 5 8 88 90 100 100 99 87 100 100 100 100 100 57 49 79 100 100 100 100 100 100
95 100 64 100 100 100 100 100 100 100 100 100 100 100 100 100 100 100 100 100 100 4 0 0 3 5 5 65 60 94 99 100 100 100 100 100 100 100 50 5 100 74 100 100 100 100 100
44 30 42 96 100 100 100 100 98 100 100 100 100 100 100 100 100 100 100 100 80 0 0 0 4 6 14 5 10 79 24 69 100 100 100 100 100 98 52 25 100 100 98 95 100 100 99
17 98 100 100 77 100 100 83 55 100 100 100 100 100 100 100 100 100 100 100 5 0 0 0 3 5 5 5 86 72 6 77 100 100 100 100 96 86 99 83 62 62 97 95 98 98 100
94 75 70 100 100 100 100 99 100 100 100 100 100 100 100 100 100 100 100 83 3 0 0 0 5 5 5 7 5 5 98 40 96 88 53 6 15 59 57 13 5 5 6 7 97 100 100
100 54 66 5 97 100 100 100 100 100 100 100 100 100 100 100 100 100 100 59 3 0 0 1 5 5 5 5 71 13 5 57 5 5 5 34 48 34 12 99 57 63 10 5 46 91 99
99 84 11 5 9 73 100 100 100 100 100 100 100 100 100 100 100 100 100 33 2 4 0 4 5 5 5 5 11 85 5 5 5 3 0 2 2 5 5 5 8 9 17 5 9 73 92
86 100 31 5 11 100 100 100 100 100 100 100 100 100 100 100 100 100 94 40 5 5 4 5 5 5 5 5 5 95 5 5 4 1 0 1 4 5 5 5 5 15 63 87 85 8 5
93 100 42 100 100 100 100 100 100 100 100 100 100 100 100 100 100 100 92 99 89 5 5 5 5 5 2 2 4 6 100 5 5 5 0 0 8 5 5 5 5 5 5 6 84 50 63
100 98 95 63 100 100 100 100 100 100 100 100 100 100 100 100 100 93 52 5 9 5 2 1 0 1 5 5 4 5 32 24 5 5 5 0 4 5 5 5 5 5 0 4 5 3 43
85 5 30 100 100 100 100 100 100 100 100 100 100 100 100 100 100 65 20 5 5 5 2 5 5 5 5 5 5 63 65 26 5 5 5 5 5 9 5 5 4 0 0 2 4 5 5
86 36 78 100 100 100 100 100 100 100 100 100 100 100 100 100 75 56 84 40 37 5 5 5 5 5 5 5 5 6 21 41 19 5 5 5 5 6 4 4 3 0 2 0 1 3 5
100 100 100 100 100 100 100 100 100 100 100 100 100 100 100 76 62 50 100 82 42 6 5 5 5 5 5 5 4 5 17 5 5 8 97 5 5 5 5 5 5 4 5 5 4 5 5
100 100 100 100 100 100 100 100 100 100 100 100 92 100 100 57 25 100 100 59 98 6 5 5 5 5 5 5 5 5 5 5 5 5 35 32 5 5 5 5 2 0 0 3 3 3 5
100 100 100 100 100 100 100 100 100 100 100 100 100 100 100 74 22 93 100 100 41 6 5 6 5 10 5 5 5 5 5 5 4 4 2 5 6 5 5 5 4 0 4 4 0 5 5
100 80 99 100 100 100 100 100 100 100 100 100 100 100 100 31 12 75 48 66 9 5 5 0 1 3 5 5 5 4 5 5 5 5 0 3 2 4 5 4 0 0 0 3 1 5 1

GFSGBSN_prec_cloud_072.txt.gz
Cloud_Cover
100 100 100 100 100 100 100 100 100 84 33 13 52 100 100 100 100 100 94 22 75 100 90 6 25 7 4 33 7 0 0 0 3 0 0 5 15 76 67 6 4 93 10 3 99 100 100
100 100 100 100 100 100 100 100 100 100 100 100 98 100 100 100 100 100 100 99 100 100 78 43 27 5 5 35 0 0 0 0 0 2 1 4 5 96 100 77 50 92 94 21 100 100 100
77 21 70 100 42 99 100 100 100 100 100 100 98 100 100 100 100 100 100 100 100 100 94 19 53 48 13 0 0 0 1 5 4 0 5 4 48 100 100 99 98 100 84 46 100 100 100
100 100 100 100 100 100 100 100 100 66 74 100 39 100 100 100 100 100 100 100 100 100 95 100 6 5 28 0 0 0 5 0 2 5 5 41 100 100 100 100 100 100 96 100 100 100 100
100 88 86 97 30 2 44 87 100 96 64 100 100 100 100 100 100 100 100 100 100 100 100 82 39 49 18 0 0 0 0 1 5 5 24 100 100 100 100 98 100 100 89 100 100 100 100
52 47 62 5 57 60 10 2 5 95 57 47 79 100 100 100 100 100 100 100 100 100 100 14 82 38 0 0 0 5 15 7 16 5 100 99 99 100 100 100 100 99 100 100 100 100 100
100 29 17 70 100 61 96 88 4 70 58 5 100 100 100 100 100 100 100 100 98 96 97 88 5 0 0 5 42 20 58 5 5 31 96 100 100 100 100 100 80 47 74 100 100 100 100
90 85 100 67 38 88 100 100 100 100 100 32 100 100 100 100 100 100 100 100 100 100 93 92 4 0 5 65 48 58 15 45 6 99 96 100 100 100 100 100 98 100 100 100 100 100 100
100 55 100 100 100 100 100 97 100 96 75 73 100 100 100 100 100 100 100 100 100 100 100 5 1 4 5 69 10 96 83 78 100 100 100 100 100 100 100 100 100 100 100 100 100 100 100
100 100 100 64 5 2 2 4 59 69 64 6 38 100 100 100 100 100 100 100 100 100 59 5 0 3 29 10 62 72 100 100 100 100 100 100 100 98 98 100 100 100 100 100 100 100 100
100 100 39 2 5 0 0 3 0 6 61 16 7 100 100 100 100 100 100 100 100 100 12 2 0 5 5 77 96 100 98 100 100 100 100 100 100 96 100 100 100 100 100 100 100 100 100
96 23 5 5 5 5 5 54 21 62 11 28 36 100 100 100 100 100 100 100 100 100 20 1 3 26 53 100 100 100 100 100 95 100 100 90 97 100 100 100 100 100 100 100 100 100 100
99 86 47 84 51 5 78 81 100 100 92 7 100 100 100 100 100 100 100 100 100 99 5 0 5 34 48 95 98 100 100 100 100 100 100 100 100 100 100 100 100 100 100 100 100 100 100
100 100 98 100 92 10 65 46 100 100 100 99 100 100 100 100 100 100 100 100 100 11 4 0 2 5 64 99 100 100 100 94 76 100 100 100 100 100 100 100 100 100 100 100 100 100 100
100 100 100 100 56 6 10 81 100 100 96 100 100 100 100 100 100 100 100 100 57 2 0 0 0 6 5 47 98 100 100 100 95 100 100 100 100 100 100 100 96 100 100 74 100 100 100
100 100 100 100 59 71 14 98 100 100 43 100 100 100 100 100 100 100 100 82 4 0 0 0 0 5 82 42 99 100 100 97 100 100 100 98 98 100 100 96 100 100 100 100 100 100 100
100 96 100 100 100 8 100 100 100 100 100 100 100 100 100 100 100 100 100 7 3 0 0 0 0 5 72 62 80 100 100 70 100 96 84 46 50 100 39 17 83 100 99 55 100 100 100
87 100 100 100 100 100 100 100 100 100 100 100 100 100 100 100 100 100 87 5 0 0 0 0 2 5 95 27 5 74 79 100 64 99 75 5 80 100 39 88 100 100 100 100 100 100 100
100 100 100 98 78 98 78 100 100 100 100 100 100 100 100 100 100 100 13 5 0 0 0 0 5 5 5 5 5 5 80 52 90 98 84 5 5 26 43 25 5 5 8 78 56 58 94
100 100 100 100 32 65 100 100 100 100 100 100 100 100 100 100 100 47 5 5 0 0 0 0 0 3 5 5 5 5 5 5 5 0 0 0 3 1 5 0 0 2 3 0 2 4 3
100 100 100 100 5 70 100 100 100 100 100 100 100 100 100 100 100 20 5 5 0 2 0 0 0 0 3 5 5 5 5 5 5 3 0 0 5 5 5 5 0 0 0 0 0 1 4
100 100 100 71 7 99 100 100 100 100 100 100 100 100 100 100 45 5 41 5 0 4 4 5 0 0 0 3 5 5 5 0 4 5 0 0 8 4 5 5 0 0 5 0 0 0 0
100 92 71 20 59 100 100 100 100 100 100 100 100 100 100 100 62 66 66 54 4 0 5 0 2 0 0 0 4 5 5 5 5 5 1 0 4 5 5 5 5 2 0 1 0 0 0
97 97 95 32 100 36 96 100 100 100 100 100 100 100 100 100 63 80 81 90 16 4 1 0 5 3 5 5 5 5 8 5 5 5 5 0 5 8 5 5 5 0 0 0 0 0 0
90 71 98 100 5 100 100 100 100 100 100 100 100 100 100 100 12 66 67 87 67 5 4 5 5 20 5 5 5 5 5 3 5 5 5 5 5 12 4 5 0 0 0 3 2 5 1
100 100 100 97 100 100 100 100 100 100 100 100 100 100 56 6 89 80 80 46 5 30 5 5 5 5 5 5 4 5 17 5 5 5 5 5 5 4 5 4 0 0 0 0 1 5 5
100 100 100 42 86 100 100 100 100 100 100 100 100 81 9 6 41 97 54 26 73 67 7 5 5 5 5 5 5 5 5 5 5 5 5 28 5 5 5 5 2 0 0 0 2 0 0
100 100 87 92 100 100 100 100 100 100 100 98 100 45 56 10 5 84 98 60 5 5 5 5 5 8 5 5 4 5 5 5 4 3 5 5 6 5 5 5 5 5 4 3 1 4 0
100 100 15 100 100 100 100 91 99 100 100 100 100 70 88 33 10 78 86 96 5 5 5 5 2 3 5 3 3 2 5 5 5 5 0 3 2 4 5 4 4 5 5 5 5 5 25

GFSGBSN_prec_cloud_075.txt.gz
Cloud_Cover
85 100 100 100 100 100 100 100 100 100 96 100 100 75 99 100 100 100 100 100 100 93 100 100 100 35 43 5 84 5 95 32 0 0 0 0 5 10 60 15 25 13 0 5 1 5 43
100 100 100 100 100 100 100 100 100 100 100 99 99 100 99 100 100 100 100 100 100 74 100 95 100 35 21 64 81 71 49 6 0 1 2 0 2 4 55 80 100 5 1 5 5 3 6
100 100 100 100 100 98 100 100 100 49 82 93 95 32 100 100 100 100 95 100 100 100 100 51 100 60 5 58 80 53 44 1 0 0 0 0 5 64 35 100 100 81 36 3 6 3 100
100 100 100 100 100 100 12 76 100 76 92 100 100 78 100 100 100 99 100 100 100 100 55 100 100 59 15 32 33 34 5 3 1 0 2 5 5 100 100 100 100 99 50 88 4 3 64
100 100 100 100 100 100 100 96 85 31 7 5 80 53 100 100 100 100 100 100 100 100 96 100 100 55 76 5 5 3 0 1 4 2 5 5 29 23 68 100 100 96 100 96 100 5 99
100 100 100 100 100 100 96 100 98 62 46 5 10 40 90 100 100 92 100 100 100 100 100 97 100 96 20 5 4 5 5 5 5 5 11 12 31 95 100 100 100 100 100 98 93 68 98
100 100 100 100 100 100 100 100 100 100 100 100 100 28 69 100 100 100 100 100 100 100 100 100 100 94 93 5 5 5 5 5 16 27 10 12 97 100 100 100 100 100 100 97 100 100 100
100 100 99 93 100 86 100 100 92 100 100 82 100 100 100 100 100 100 100 100 100 100 100 100 100 100 18 5 22 5 40 29 5 17 84 93 98 98 100 100 100 100 98 95 100 100 100
100 100 97 95 100 98 51 100 100 100 100 84 2 81 12 100 100 100 100 100 100 100 100 100 100 95 5 5 8 5 75 76 100 98 100 100 100 100 100 100 100 100 100 100 100 100 100
100 100 100 90 100 100 100 66 24 64 18 94 3 54 50 100 100 100 100 100 100 100 100 100 100 39 7 5 88 65 69 100 100 100 100 100 100 100 100 100 99 89 98 100 100 100 100
100 100 100 100 100 100 100 100 100 49 37 5 5 6 4 100 100 100 100 100 100 100 98 100 99 5 12 34 88 98 100 100 100 100 100 100 100 98 100 100 100 100 100 100 100 100 100
100 100 100 100 100 100 98 96 59 66 10 90 41 51 1 100 100 100 100 100 100 100 100 100 31 5 98 100 100 100 77 100 100 100 100 100 100 56 100 100 100 100 100 100 100 100 100
100 100 100 100 100 100 94 5 5 6 100 100 95 58 95 100 100 100 100 100 100 100 100 100 5 5 5 37 99 90 100 99 100 100 100 100 99 100 100 100 100 100 100 100 100 100 100
100 100 100 54 96 100 100 7 18 98 85 100 97 50 95 100 100 100 100 100 100 100 100 6 5 5 5 8 100 100 100 100 100 100 100 100 100 100 100 100 100 100 100 100 100 100 100
100 100 100 100 100 100 89 100 100 100 94 73 99 100 100 100 100 100 100 100 100 100 77 4 5 5 5 5 83 100 100 100 100 100 100 100 100 100 100 100 100 100 100 90 100 100 100
100 100 100 100 100 94 100 100 100 100 91 10 98 100 100 100 100 100 100 100 100 100 0 0 1 0 5 86 98 96 73 92 100 100 100 100 100 100 100 100 100 100 100 100 97 97 100
100 100 100 100 52 96 100 100 100 100 100 95 100 100 100 100 100 100 100 99 98 10 0 0 1 5 5 100 40 81 100 100 100 100 100 100 100 99 100 100 100 100 100 100 100 100 100
100 100 100 100 37 94 100 100 100 100 100 100 100 100 100 100 100 100 100 100 7 2 0 0 5 5 46 87 64 100 100 97 97 94 100 93 100 68 79 97 74 33 76 100 100 100 100
100 94 100 38 28 100 100 100 100 100 100 100 100 100 100 100 100 100 100 68 3 4 0 0 5 45 5 5 50 8 79 67 42 5 5 5 5 46 5 6 5 5 6 80 71 29 97
97 94 88 63 43 100 100 100 100 100 100 100 100 100 100 100 100 63 100 73 4 0 0 0 5 23 1 67 99 65 84 34 5 2 0 1 5 1 5 2 0 0 4 0 0 13 7
100 66 100 73 72 100 100 100 100 100 100 100 100 100 100 100 100 100 100 5 0 0 0 0 1 0 2 3 5 5 5 5 3 2 0 0 4 5 5 1 0 0 1 4 4 0 0
82 84 52 10 5 5 94 100 100 100 100 100 100 100 100 100 100 100 100 5 0 2 0 0 0 0 0 3 4 5 2 0 4 0 0 0 5 3 5 5 0 0 0 0 2 3 5
56 82 14 15 30 17 100 100 100 100 100 100 100 100 100 100 91 100 100 4 0 0 1 0 0 0 1 0 5 3 5 2 5 1 0 0 5 5 5 2 0 2 5 5 4 0 0
90 83 100 76 11 58 95 100 100 93 100 100 100 100 100 100 94 100 100 4 2 0 0 0 4 2 4 5 5 5 5 5 5 5 1 2 5 5 5 1 4 0 0 0 0 0 1
77 100 47 22 96 96 100 100 90 96 100 100 87 90 94 68 100 100 100 53 5 0 0 0 0 4 5 5 5 5 5 5 5 5 3 0 5 5 4 4 0 0 0 0 0 0 0
96 48 97 100 100 100 99 76 100 88 96 72 50 69 95 49 100 92 100 96 5 4 4 5 5 5 5 5 2 5 18 5 5 5 5 0 1 2 3 4 0 0 1 0 0 0 0
26 100 100 99 100 100 100 100 100 100 83 89 87 26 11 73 100 100 99 94 5 5 5 5 5 5 4 2 5 5 5 5 5 5 5 5 5 4 14 4 1 0 2 0 0 1 5
54 66 15 100 100 100 100 100 100 83 100 87 11 5 20 24 100 100 99 94 5 5 5 5 5 12 5 4 5 5 5 5 5 4 5 5 6 27 11 5 5 5 5 5 5 1 5
18 2 5 97 99 100 100 100 96 96 98 35 92 53 40 22 55 81 82 97 45 5 5 5 4 5 5 3 0 5 5 5 5 9 23 6 76 89 86 5 5 5 5 5 5 5 19

GFSGBSN_prec_cloud_078.txt.gz
Cloud_Cover
100 100 100 100 100 100 100 100 100 100 100 100 100 100 91 10 100 100 100 100 100 68 70 88 53 24 5 5 91 48 86 6 5 5 5 25 14 5 5 5 16 21 3 18 12 6 58
100 100 100 100 100 100 100 100 100 100 100 100 100 100 100 5 47 100 100 100 100 100 100 60 9 82 32 38 54 99 6 4 0 5 3 4 5 18 16 40 48 5 6 10 99 64 38
100 100 100 100 100 100 100 100 87 100 100 100 100 100 100 100 96 100 99 100 99 100 13 84 100 28 84 52 15 100 6 5 0 2 5 4 3 19 76 95 33 96 36 96 60 76 6
100 100 100 100 100 100 97 100 100 100 11 100 100 100 100 100 100 100 100 100 95 100 96 76 53 100 59 2 96 95 2 5 5 5 5 0 5 34 99 24 58 77 99 100 30 65 9
100 97 100 100 100 100 100 100 88 97 100 80 77 100 100 100 100 100 100 100 100 100 100 58 88 57 6 5 98 13 3 1 2 3 0 5 18 58 73 99 99 97 100 90 73 32 6
100 100 100 100 100 100 100 100 100 82 100 100 100 100 100 100 100 100 100 100 100 100 100 27 20 70 87 93 35 5 5 5 14 72 20 39 94 95 99 100 90 100 96 80 73 6 5
100 100 100 100 100 100 100 100 5 100 92 53 100 100 100 100 100 100 100 100 100 100 87 64 74 98 100 75 40 5 5 5 18 31 52 58 86 64 44 100 100 100 100 100 94 73 13
100 100 100 100 57 72 98 100 100 62 77 9 26 32 65 100 100 100 100 100 100 100 71 87 100 100 100 50 6 6 5 38 26 45 30 84 81 96 100 98 100 100 100 100 100 65 44
100 100 100 96 25 93 98 70 92 87 59 27 55 22 4 46 100 100 100 100 100 100 78 95 100 100 100 92 33 17 18 14 55 62 18 97 88 99 100 100 100 100 91 100 100 100 100
100 99 100 81 90 49 100 100 100 100 78 66 78 100 5 78 100 100 92 100 100 96 72 100 100 100 100 42 86 74 99 44 94 87 98 100 100 100 100 100 100 100 94 100 100 100 100
100 57 100 100 100 100 100 100 100 91 100 100 100 100 100 5 92 100 100 100 76 90 100 98 100 100 100 83 82 87 95 84 100 99 100 100 100 100 100 100 99 100 100 100 100 100 100
32 83 100 100 100 100 100 100 82 35 75 100 100 100 76 52 90 100 100 100 100 96 100 100 100 100 100 100 91 100 99 91 100 100 100 100 100 100 100 99 89 100 100 100 100 100 100
96 100 100 100 100 100 85 98 90 100 100 83 99 81 96 100 93 85 100 100 97 100 100 100 100 100 100 100 84 91 100 92 88 100 100 90 100 100 100 100 100 100 96 100 100 100 100
100 100 100 100 100 63 100 100 100 100 100 100 100 100 100 100 94 100 100 100 100 100 100 100 100 100 100 94 100 100 100 100 100 100 100 100 100 100 100 100 100 100 100 100 100 100 100
98 100 100 100 54 99 100 100 100 100 100 100 100 100 90 100 100 100 100 100 100 100 100 100 99 99 20 14 26 100 100 89 100 100 100 100 100 100 100 100 100 100 100 100 100 100 99
100 100 100 69 100 99 100 100 100 100 100 82 78 93 100 100 100 100 100 100 100 100 100 100 65 16 6 5 8 67 63 94 100 100 100 100 100 100 100 100 100 100 100 100 100 100 97
100 100 100 100 95 100 100 100 100 100 100 100 86 100 100 100 100 100 100 100 100 100 100 47 2 5 5 25 96 100 100 100 100 100 100 100 100 100 100 96 100 100 100 92 100 100 91
100 100 100 100 11 100 100 100 100 100 100 100 100 100 100 100 100 100 100 100 100 81 5 4 3 5 4 33 100 100 81 100 95 100 100 100 34 91 100 64 66 91 100 100 100 100 90
100 100 81 56 98 100 100 100 100 100 100 100 100 100 100 100 100 100 100 100 12 3 5 10 5 4 5 22 10 22 84 76 15 75 32 92 23 14 6 43 99 23 4 1 5 6 100
100 96 5 24 38 100 100 100 100 100 100 100 100 100 100 100 100 100 99 25 4 5 5 20 5 1 5 5 5 29 5 5 5 5 1 0 4 4 4 42 14 2 8 1 5 34 84
16 48 8 99 52 98 86 100 100 100 100 100 100 100 100 100 100 78 87 9 5 5 5 5 2 0 0 5 5 5 5 5 3 0 0 1 5 5 5 4 0 0 0 4 23 50 45
88 12 99 100 52 5 5 99 100 70 100 100 100 100 100 96 73 100 65 5 4 5 5 0 0 0 5 0 5 5 5 5 0 0 0 0 4 0 0 0 0 4 0 0 0 3 5
100 30 27 100 17 18 83 100 92 50 100 100 98 67 40 52 38 98 32 5 0 0 1 0 0 0 0 2 0 1 0 0 0 0 0 0 3 3 4 0 0 0 0 3 3 0 0
68 88 86 84 5 100 71 38 100 100 98 97 71 84 5 45 28 94 27 1 0 0 4 0 0 0 4 5 5 5 2 2 3 0 0 0 0 2 4 0 1 0 0 0 0 0 0
13 91 100 12 90 79 5 84 80 61 35 94 5 22 5 29 45 98 86 0 0 4 3 0 0 1 5 2 4 5 1 1 2 0 0 0 0 0 1 0 0 0 0 0 0 0 0
39 6 9 5 5 24 55 5 50 68 46 5 5 5 4 5 48 60 89 5 5 4 3 3 5 5 0 0 0 2 4 5 5 4 0 0 0 0 0 0 0 0 0 0 0 0 0
58 9 7 5 5 46 80 92 98 98 11 5 5 5 5 5 88 94 6 12 5 5 4 5 5 5 0 0 2 4 5 5 5 5 5 5 2 2 1 3 2 2 1 0 0 5 1
3 5 5 5 93 100 50 100 15 54 5 5 4 5 1 5 52 26 5 13 5 5 4 5 5 5 2 1 1 5 5 5 5 5 5 5 4 5 5 5 5 5 5 5 5 5 20
28 7 9 7 100 100 100 57 94 50 3 5 4 5 5 3 6 14 68 5 5 5 4 3 0 0 0 0 0 2 1 5 5 5 5 5 0 2 8 51 5 5 12 38 6 5 14

GFSGBSN_prec_cloud_081.txt.gz
Cloud_Cover
100 100 100 100 100 64 79 68 6 100 100 100 100 100 100 100 100 100 98 100 100 100 68 41 5 5 5 5 3 1 0 0 1 0 14 100 100 77 5 5 5 25 28 5 5 55 5
99 100 91 68 55 97 67 96 100 100 100 98 100 100 100 100 100 100 96 100 100 100 100 5 5 5 4 3 1 0 0 0 2 3 5 100 97 23 24 2 5 5 6 63 83 74 96
100 100 100 100 100 100 100 100 100 100 100 100 100 100 100 100 100 100 100 100 100 100 100 24 5 5 10 2 0 0 0 0 3 4 5 68 9 77 27 63 12 44 63 5 5 57 57
100 100 100 100 99 100 100 100 100 100 100 100 100 100 100 100 100 100 100 100 100 100 100 44 5 45 11 0 0 0 0 0 1 0 5 10 5 75 100 94 60 67 77 93 5 8 6
100 100 100 100 99 100 100 100 100 100 100 100 100 100 100 100 100 100 100 100 100 100 100 100 85 94 9 0 0 0 1 4 6 48 5 21 57 97 75 99 100 97 63 80 55 72 89
100 100 93 100 100 100 100 100 100 100 100 100 100 97 98 94 100 100 100 100 100 100 100 100 100 49 3 3 4 0 47 5 11 89 100 99 100 100 100 100 99 93 100 100 86 69 100
95 100 99 100 100 100 70 38 78 22 19 5 5 5 5 0 100 100 100 100 100 100 100 100 100 18 5 5 5 2 5 23 58 100 100 98 100 95 73 64 78 95 100 90 95 100 100
77 100 100 100 100 80 7 5 26 30 44 44 99 100 73 1 78 100 100 100 100 100 100 100 94 39 5 5 5 14 5 55 57 98 90 72 98 90 100 100 95 100 100 96 95 86 57
100 100 100 92 100 100 89 100 100 100 100 99 14 21 100 100 92 99 100 100 100 100 100 81 66 6 5 5 22 85 6 42 97 100 94 94 99 99 100 100 100 100 100 100 100 12 88
100 100 100 100 100 100 100 100 100 100 100 100 100 100 92 86 97 100 92 100 100 100 100 100 24 5 5 51 98 82 76 88 97 96 100 100 100 100 100 100 100 100 92 98 100 88 84
100 100 100 100 100 100 100 99 100 100 100 100 100 100 100 100 97 100 100 100 100 100 100 45 30 15 50 100 94 33 99 100 91 100 100 100 100 100 100 100 100 100 100 100 100 100 98
18 100 100 100 100 100 93 100 100 92 100 100 100 100 93 100 100 92 100 100 100 99 88 10 19 63 100 72 60 96 81 96 100 100 100 100 97 91 100 85 90 100 100 100 100 100 100
51 100 100 100 100 100 100 99 100 100 100 100 100 98 48 100 100 89 96 100 100 100 91 22 100 100 100 88 100 100 86 100 100 100 93 98 98 100 100 100 100 100 100 100 100 100 100
100 100 100 100 100 100 100 100 100 100 100 100 100 100 98 90 100 87 100 100 100 92 86 100 100 100 100 100 100 100 96 100 100 100 100 73 99 100 100 100 100 100 100 100 100 100 100
100 100 96 100 87 100 100 100 100 100 99 82 100 100 100 96 21 100 100 100 100 100 100 100 100 100 100 87 100 95 91 100 100 100 100 100 100 100 100 100 100 99 100 100 92 100 100
100 67 100 42 100 100 100 100 100 100 100 100 100 100 100 100 91 100 100 100 100 100 100 100 100 100 100 47 100 98 99 99 100 100 100 100 100 99 100 100 100 98 100 100 100 100 100
50 92 85 41 100 100 100 100 100 100 99 76 37 99 100 100 100 100 100 100 100 100 100 100 91 43 100 69 100 97 99 100 100 100 100 100 100 100 100 100 100 100 100 100 100 100 100
5 9 97 51 100 100 100 100 100 100 100 96 100 100 100 100 100 100 100 100 100 100 100 20 6 87 100 100 98 100 100 100 98 100 100 100 100 100 100 100 100 100 100 100 100 55 100
5 78 54 9 99 95 100 100 100 100 97 100 100 100 100 100 100 100 100 100 92 76 21 59 18 93 100 98 72 100 97 92 38 29 80 34 99 81 67 95 97 38 28 5 24 16 90
51 100 98 24 14 74 100 100 100 100 100 100 100 100 100 100 99 100 100 5 90 100 30 6 28 53 39 15 5 80 5 5 58 96 3 1 5 6 42 28 5 5 5 3 3 0 4
48 96 19 45 7 5 68 84 100 100 100 100 100 100 100 100 93 83 22 35 85 34 5 5 5 22 37 33 10 9 5 5 2 1 2 5 4 3 4 4 0 1 0 0 4 2 1
41 5 5 80 48 100 100 100 100 100 100 94 55 58 100 40 93 18 5 80 5 5 45 5 5 5 5 5 5 5 3 3 2 1 0 0 4 0 0 0 4 5 3 0 0 0 0
96 22 5 12 100 100 100 100 100 100 13 20 50 5 38 94 60 46 43 5 5 5 4 38 31 5 4 3 1 0 0 0 0 0 0 0 2 2 3 0 0 1 0 3 1 0 0
99 21 23 5 18 47 100 100 100 39 5 5 6 2 61 89 28 51 9 5 2 4 0 0 3 5 4 0 1 0 0 0 0 0 0 0 0 4 4 0 3 0 0 0 0 0 0
21 1 3 5 5 56 71 100 60 5 5 0 0 3 26 48 19 5 5 2 0 0 0 0 0 0 0 0 11 5 4 4 2 0 0 0 0 0 3 0 0 0 0 0 0 0 0
67 5 6 7 33 52 2 5 5 5 5 5 4 0 5 4 7 0 15 8 7 4 0 3 1 0 0 4 4 5 4 2 0 0 0 0 0 2 0 0 0 0 0 0 0 0 0
17 7 18 100 95 32 5 5 5 3 4 4 0 0 0 0 4 5 18 4 5 5 3 5 3 1 0 3 0 2 1 0 1 0 0 1 0 2 0 0 0 5 4 5 2 2 4
5 29 62 100 85 87 6 5 4 0 0 0 0 0 0 0 0 3 2 0 0 2 6 2 3 3 4 5 4 3 1 0 1 0 3 4 5 5 5 5 5 5 5 5 5 5 5
0 33 28 100 100 100 46 5 0 0 5 1 0 0 0 0 2 0 1 5 0 0 0 2 1 0 5 5 17 5 5 5 5 5 5 5 5 4 5 5 5 5 13 17 63 49 7

GFSGBSN_prec_cloud_084.txt.gz
Cloud_Cover
100 100 100 100 100 100 100 100 100 100 100 98 66 37 100 100 100 100 100 100 100 100 100 100 66 6 82 100 53 2 0 0 0 0 0 2 3 5 5 5 5 53 16 5 69 6 5
100 100 100 100 86 100 100 100 100 100 100 100 98 100 100 100 100 100 100 100 100 100 100 100 98 61 99 82 100 5 0 0 0 0 0 3 5 5 18 2 4 1 5 5 22 26 32
100 100 100 88 100 100 100 100 100 100 100 100 100 100 100 100 100 100 100 100 100 100 100 100 100 89 100 100 100 26 5 0 0 2 2 11 14 5 5 5 5 32 17 5 2 0 0
100 100 100 100 100 100 100 100 100 100 100 100 100 100 100 100 100 100 100 100 100 100 100 100 88 56 100 100 100 82 5 0 0 0 0 4 5 5 8 32 9 6 6 5 0 1 0
100 100 99 100 100 100 100 100 100 100 100 100 100 100 100 100 100 100 100 100 100 100 100 100 100 96 99 100 100 88 5 1 3 11 38 31 50 63 87 66 74 42 78 5 64 96 68
100 97 100 100 100 100 100 100 100 32 22 8 32 44 97 100 100 100 100 100 100 100 100 100 94 91 100 100 100 95 9 2 4 25 84 70 100 100 65 100 74 6 76 85 92 95 100
100 100 100 98 91 28 100 100 62 55 99 78 60 5 3 5 100 100 100 100 100 100 100 100 100 39 100 100 100 6 5 1 16 100 60 78 77 66 51 9 5 79 24 29 59 95 100
100 89 8 22 45 100 98 100 100 98 100 100 100 96 96 100 53 90 100 100 100 100 100 100 100 66 100 99 72 48 4 3 14 7 12 75 96 76 53 100 95 88 78 48 66 98 100
100 99 97 100 100 100 100 100 98 100 100 100 100 100 100 100 100 100 100 100 100 100 100 100 97 98 100 100 70 100 5 9 9 5 27 84 95 79 99 100 98 89 100 97 100 100 78
100 100 100 100 100 100 100 100 100 40 100 100 100 100 100 100 100 100 100 100 100 98 100 76 98 100 100 97 62 100 5 9 5 86 79 96 100 100 100 98 100 100 100 100 100 100 40
100 100 96 86 56 71 34 100 100 100 100 100 100 100 100 100 100 100 100 100 100 97 99 79 100 100 100 70 84 75 6 99 27 70 100 96 84 72 100 98 100 100 100 100 96 91 100
100 87 100 74 100 100 100 100 100 100 100 100 100 100 46 100 100 100 100 100 100 100 98 100 100 100 89 64 72 55 100 98 15 87 99 96 86 98 78 97 100 100 100 100 100 100 100
5 100 100 40 100 99 100 100 100 100 100 100 100 100 34 100 100 100 100 100 100 100 93 100 97 98 96 71 77 100 100 100 92 100 96 84 99 92 100 100 100 100 100 100 100 100 100
5 9 69 90 100 100 100 100 100 100 100 100 100 100 39 92 100 100 83 98 100 100 98 17 81 83 100 100 99 100 96 58 98 100 99 100 100 100 100 100 100 100 100 100 100 100 100
14 59 55 58 99 100 100 100 99 100 95 86 37 100 99 86 100 100 100 100 100 100 96 100 100 100 100 100 88 75 48 100 95 99 100 100 100 100 100 100 100 100 100 100 100 100 100
99 100 100 55 97 92 100 100 100 100 100 58 100 100 100 86 7 97 100 100 100 100 100 100 100 100 99 16 42 79 95 100 94 100 100 100 100 100 100 99 100 100 99 100 100 100 100
100 100 100 16 5 28 100 100 56 98 94 82 57 82 92 98 97 100 100 100 100 100 100 100 100 99 5 67 93 82 100 100 100 100 100 100 100 100 94 93 100 100 100 100 100 100 100
5 100 100 7 16 60 100 100 90 40 6 6 55 100 90 100 100 100 100 100 100 100 90 22 53 70 42 40 97 98 100 100 97 100 100 100 100 100 99 98 100 100 97 32 100 100 100
7 33 43 51 100 100 100 100 100 100 96 22 100 100 100 100 100 100 100 96 73 19 17 38 41 97 100 100 100 100 100 100 100 100 100 51 93 75 100 100 95 98 18 44 62 100 96
66 17 9 50 99 100 100 100 100 100 100 100 100 100 91 100 100 99 40 42 44 89 100 96 75 71 99 88 93 80 70 95 100 50 91 87 12 6 30 12 93 12 5 4 5 89 62
6 88 31 60 97 99 14 50 5 68 90 72 79 100 86 91 7 41 82 79 78 9 5 5 5 39 66 100 73 5 4 1 2 0 1 1 2 4 1 2 3 1 1 1 5 28 17
5 8 27 94 100 49 5 5 5 12 5 65 12 8 5 5 5 24 7 17 4 5 23 6 5 38 49 25 22 5 5 0 0 0 0 0 0 0 0 0 0 0 0 0 0 0 0
91 7 17 7 82 96 18 0 4 0 0 0 0 5 4 5 5 4 3 4 2 5 5 6 77 5 5 4 0 0 0 0 0 0 0 0 1 2 4 0 0 1 0 0 0 0 0
61 100 6 39 98 92 6 0 0 1 3 0 0 5 4 5 0 0 4 2 2 2 0 3 5 0 0 0 0 0 0 0 0 0 0 0 0 15 2 0 1 0 0 0 0 0 0
70 65 46 18 100 8 0 0 0 0 0 0 5 9 3 5 5 3 0 0 0 0 0 0 0 0 0 0 0 0 0 0 0 0 0 0 0 0 1 1 0 0 0 0 0 0 0
74 1 100 38 100 56 0 0 0 1 2 0 1 5 1 0 0 0 4 2 4 0 0 0 0 0 0 0 0 0 0 0 0 0 0 0 0 0 0 0 0 0 0 0 0 0 0
1 0 11 82 100 14 5 0 0 0 3 0 0 0 0 0 0 0 4 5 5 4 1 0 0 0 0 0 0 0 0 0 1 1 0 0 0 0 0 0 0 0 0 0 0 0 0
3 0 3 100 100 53 6 5 0 0 0 0 0 0 0 0 0 0 0 0 0 0 2 0 2 0 1 1 0 0 0 0 0 0 0 0 0 0 1 2 2 4 0 0 0 0 4
2 0 1 9 100 30 88 17 5 5 5 0 0 0 0 0 0 0 0 0 0 0 0 0 2 3 0 1 2 4 4 2 5 5 5 5 5 5 5 5 5 5 5 5 5 21 5

GFSGBSN_prec_cloud_090.txt.gz
Cloud_Cover
42 48 71 77 8 66 98 100 100 100 100 100 100 100 100 100 100 100 100 100 100 100 100 100 100 100 86 14 4 0 0 0 0 0 0 0 0 0 0 0 0 0 0 0 0 0 0
82 98 100 100 92 100 99 100 100 100 100 100 100 100 100 100 100 100 100 100 100 100 100 100 100 100 83 34 22 5 5 14 32 8 8 0 0 0 0 0 0 0 0 0 0 0 0
86 100 100 100 100 100 100 100 100 100 100 100 100 100 100 100 100 100 100 100 100 100 100 100 100 100 100 92 78 100 44 100 84 72 80 3 0 0 0 0 0 0 0 0 0 0 0
57 88 100 100 100 92 61 89 100 100 90 100 82 100 100 100 100 100 100 100 100 100 100 100 100 100 100 55 100 100 100 71 39 17 5 26 4 0 0 0 0 0 1 21 0 0 0
6 56 87 33 51 17 15 5 81 89 100 93 81 100 100 81 100 100 100 100 100 100 100 100 100 100 100 100 100 52 95 61 72 25 6 4 3 2 4 2 20 6 73 5 4 0 3
96 86 68 19 2 5 5 5 42 29 45 48 100 98 90 60 28 32 100 100 100 100 100 100 100 100 100 100 100 74 60 76 69 38 19 15 5 5 5 59 36 16 81 12 5 12 4
8 5 29 5 97 86 14 58 99 78 5 36 36 100 100 100 46 100 100 100 100 100 100 100 100 100 100 100 100 100 94 84 5 5 48 5 23 70 5 5 5 5 20 42 5 5 99
8 18 45 100 83 92 93 100 100 100 100 93 8 68 100 99 100 100 100 100 100 100 100 100 100 100 100 100 100 100 100 76 12 5 42 33 81 5 5 5 5 14 98 62 11 5 82
58 100 100 100 100 100 100 100 100 100 100 100 72 86 25 24 100 97 100 100 100 100 100 100 100 100 100 100 100 100 96 67 40 7 5 59 4 5 4 5 34 40 74 43 100 99 98
98 100 100 100 86 100 100 100 98 100 100 100 100 76 35 5 68 100 100 100 100 100 100 100 100 100 100 100 100 88 99 100 97 39 68 71 5 5 15 97 99 100 87 100 100 89 76
100 100 100 100 97 72 100 100 98 74 94 100 100 57 92 0 100 100 100 100 100 100 100 100 100 100 100 100 100 100 100 100 74 59 92 5 5 5 14 82 100 100 100 100 100 100 99
99 100 100 100 77 67 46 49 48 97 98 100 91 39 6 99 100 100 100 100 100 100 100 100 100 100 100 100 65 100 100 5 7 78 26 46 28 58 79 94 66 98 99 100 100 100 98
100 100 92 100 97 68 47 57 100 14 62 98 80 19 52 83 99 99 100 100 100 100 100 100 99 100 100 100 100 100 18 58 88 94 73 97 100 92 100 93 93 83 100 100 100 100 100
99 100 61 100 100 93 19 62 34 10 34 94 12 98 100 100 100 77 100 55 43 80 92 100 100 74 95 69 22 83 10 82 82 81 100 100 100 88 100 100 98 100 100 100 100 95 100
100 98 32 93 68 100 70 93 97 14 15 5 1 3 5 42 93 100 89 93 94 80 88 80 86 87 90 99 85 74 100 100 100 100 100 100 100 81 100 74 100 100 100 100 100 100 100
94 98 88 100 47 100 100 84 21 51 8 38 5 11 22 5 6 91 100 100 100 95 96 100 100 100 100 100 100 97 63 67 100 100 100 100 100 100 100 84 100 100 100 100 100 100 100
9 100 100 54 51 68 100 88 90 42 31 64 71 27 5 85 100 100 100 100 100 100 100 100 99 100 100 100 99 70 87 100 100 100 100 78 88 100 100 100 100 100 100 100 100 100 100
1 100 100 100 51 8 80 99 88 44 6 99 100 100 100 100 96 100 100 100 100 100 100 100 100 100 64 100 83 100 100 100 97 100 95 100 60 100 100 100 87 98 100 100 100 100 100
82 86 100 100 100 5 5 7 44 0 4 64 94 47 80 100 80 84 78 42 21 10 5 53 19 40 40 100 100 100 88 15 95 98 86 100 100 99 87 95 100 100 100 74 100 35 94
100 100 100 91 97 62 2 5 0 0 0 22 0 8 2 5 54 43 5 10 5 5 5 19 81 100 33 88 73 100 100 100 83 31 11 7 31 33 42 11 6 43 84 100 97 66 76
98 32 100 73 30 4 0 0 0 0 0 0 0 3 7 60 5 71 9 5 5 5 24 80 39 32 91 16 5 32 12 6 49 69 44 41 72 10 5 2 4 8 5 5 6 3 7
96 4 100 100 14 0 0 0 0 0 0 0 0 2 4 5 5 5 5 0 4 0 0 0 0 0 0 1 0 1 0 0 0 0 0 0 0 0 0 0 0 0 0 0 0 0 0
48 4 86 97 5 0 0 0 0 0 0 0 0 0 0 1 1 0 0 0 0 0 0 0 5 4 1 0 0 0 0 0 0 0 0 0 0 4 1 0 0 0 0 0 0 0 0
69 9 95 100 2 5 0 0 0 0 0 0 0 0 0 0 0 0 0 0 0 0 0 0 0 0 0 0 0 0 0 0 0 0 0 0 0 9 4 0 0 0 0 0 0 0 0
10 45 11 100 2 5 5 2 0 0 0 0 0 0 0 0 0 0 0 0 0 0 0 0 0 0 0 0 0 0 0 0 0 0 0 0 0 3 2 3 0 0 0 0 0 0 0
50 55 15 74 6 0 0 4 5 0 0 0 0 0 0 0 0 0 0 0 0 0 0 0 0 0 0 0 0 0 0 0 0 0 0 0 0 0 3 0 0 0 0 0 0 0 0
5 43 17 75 98 8 2 0 1 5 2 0 0 0 0 5 2 2 0 0 0 0 0 0 0 0 0 0 0 0 3 0 0 0 0 0 0 1 0 2 0 0 0 0 0 0 0
21 50 41 19 46 6 5 25 2 0 0 5 3 0 0 0 4 5 5 5 5 5 5 3 2 3 4 4 2 0 0 0 0 0 0 0 1 3 1 2 0 2 0 0 0 0 0
90 14 93 8 98 34 86 29 100 12 0 0 0 1 2 0 0 0 2 5 5 2 4 0 1 0 1 0 0 0 0 0 0 0 0 0 0 0 0 0 0 3 1 5 4 0 0

GFSGBSN_prec_cloud_093.txt.gz
Cloud_Cover
32 39 64 100 45 100 87 100 74 5 5 74 65 71 100 100 100 100 100 100 100 100 100 100 100 100 100 100 28 3 1 0 0 0 0 0 0 0 0 0 0 0 0 0 0 0 0
5 5 2 6 21 20 57 5 5 5 42 89 100 38 92 100 100 100 100 100 100 100 100 100 100 100 100 100 100 77 10 21 31 4 5 2 0 0 0 0 0 0 0 0 0 0 0
53 4 2 9 7 98 5 4 5 5 5 5 40 100 100 100 100 100 100 100 100 100 100 100 100 100 100 100 100 100 100 84 16 5 5 1 0 0 0 1 0 0 0 0 0 0 0
5 44 98 50 87 65 30 5 5 5 5 5 78 100 100 100 100 100 100 100 100 100 100 100 100 100 100 100 100 100 100 100 94 19 31 36 4 0 1 0 0 0 1 13 0 0 0
66 100 68 24 77 99 100 6 5 5 5 5 5 86 100 100 100 100 100 100 100 100 100 100 100 100 100 100 100 100 99 97 100 46 42 23 5 1 2 2 5 5 80 17 4 0 2
99 92 77 98 74 100 26 43 100 100 92 67 5 11 100 100 100 42 100 100 100 100 100 100 100 100 100 100 100 100 90 87 54 29 10 5 5 5 5 5 3 5 38 5 6 1 5
100 100 100 100 97 100 24 67 100 100 100 100 94 5 5 100 93 96 88 100 100 100 100 100 100 100 100 100 100 100 100 96 76 9 24 38 14 20 5 3 3 5 5 16 5 5 90
100 100 100 100 100 100 86 99 100 100 100 100 98 96 5 4 86 100 100 100 100 100 100 100 100 100 100 100 100 100 100 100 41 8 5 16 34 3 3 5 5 12 100 69 7 14 84
100 100 100 100 100 68 99 100 100 100 99 100 78 100 48 1 100 100 100 100 100 100 100 100 100 100 100 100 100 94 100 99 84 32 22 45 31 54 11 6 53 79 100 96 83 51 18
100 100 100 100 98 88 67 100 84 100 100 100 100 100 4 93 100 100 100 100 100 100 100 100 100 100 100 100 100 100 100 62 95 100 95 26 50 12 27 100 100 100 83 100 100 100 63
100 100 100 100 76 14 3 100 5 13 99 100 100 69 0 100 100 100 100 100 100 100 100 100 100 100 100 100 95 86 82 100 91 84 51 8 5 9 58 29 89 100 74 71 100 100 98
100 99 100 100 63 2 4 14 17 5 66 64 5 1 29 100 100 100 100 100 100 100 100 100 100 100 100 100 100 100 36 12 5 7 15 19 39 65 79 96 100 92 100 100 100 100 100
100 100 100 100 65 14 99 84 14 5 2 0 1 0 97 100 100 100 100 100 100 100 100 100 100 100 100 100 100 93 26 14 99 88 51 100 63 100 100 99 95 100 100 100 100 100 80
98 100 100 100 98 4 100 78 81 17 4 2 19 11 90 70 100 73 55 46 20 100 99 100 100 100 49 17 7 16 96 100 8 79 100 99 100 100 96 98 100 100 100 100 100 100 100
100 100 100 100 100 5 16 76 50 4 0 4 1 5 3 21 92 97 100 100 99 98 100 100 100 100 100 100 100 96 77 98 100 100 100 100 99 93 100 100 100 100 100 100 100 100 100
35 100 100 100 100 67 4 0 3 5 1 1 5 9 43 62 36 22 100 100 97 60 89 91 96 78 14 65 84 46 94 100 100 100 100 91 99 100 100 100 100 100 100 100 100 100 100
88 100 100 100 72 17 0 7 0 5 4 5 34 30 18 5 5 5 97 100 100 100 100 70 79 96 100 100 100 100 100 100 100 100 97 100 100 100 100 93 100 100 100 95 100 100 100
52 100 100 100 80 7 7 0 5 0 0 0 31 5 36 100 100 98 100 100 100 100 100 100 100 100 81 23 97 100 100 100 96 97 100 100 100 100 100 97 100 100 100 100 100 100 100
27 100 100 100 57 0 0 0 0 0 0 0 0 2 4 5 42 85 100 99 100 100 98 100 100 100 100 100 93 96 100 84 61 72 100 100 100 100 100 100 100 95 97 100 100 100 100
5 100 77 79 2 0 0 0 0 0 0 0 0 1 0 0 18 8 30 5 5 63 88 59 99 24 7 9 100 83 17 100 57 72 16 73 100 90 100 100 100 100 61 62 48 90 100
4 59 100 85 0 0 0 0 0 0 0 0 8 1 2 37 0 3 0 0 57 5 5 22 8 5 16 5 4 5 21 5 19 7 4 2 1 1 4 4 15 29 14 5 5 3 14
48 5 85 1 2 0 0 0 0 0 0 1 0 0 0 0 0 0 0 0 5 5 4 4 0 5 1 3 11 5 0 0 0 0 0 0 0 0 4 0 0 0 0 0 0 0 0
8 8 90 8 0 5 0 0 0 0 0 0 0 0 0 0 0 0 0 0 0 0 0 0 0 0 0 0 0 0 0 0 0 0 0 0 0 5 1 0 0 0 0 0 0 0 0
5 8 23 100 3 2 2 0 0 0 0 0 0 0 0 0 0 0 0 0 0 0 0 0 0 0 0 0 0 0 0 0 0 0 0 0 0 16 5 1 0 0 0 0 0 0 0
39 2 23 100 90 0 5 0 0 0 0 0 0 0 0 0 0 0 0 0 0 0 0 0 0 0 0 0 0 0 0 0 0 0 0 0 1 3 4 3 0 0 0 0 0 0 0
99 5 5 5 81 79 0 0 0 0 0 0 0 0 0 0 0 0 0 0 0 0 0 0 0 0 0 0 0 0 0 0 0 0 0 0 0 1 3 0 0 0 0 0 0 0 0
9 5 19 3 56 88 34 0 0 3 0 0 0 0 2 0 0 0 0 0 0 0 0 0 0 0 0 0 0 0 3 0 0 0 0 0 2 1 4 4 0 0 0 0 0 0 0
43 5 6 5 6 35 99 52 1 4 5 0 0 0 0 2 0 4 3 0 0 0 0 0 0 0 0 0 0 0 0 0 0 0 0 0 2 5 4 2 0 0 0 0 0 0 0
100 40 6 12 6 11 6 100 5 3 5 24 0 0 0 0 0 0 5 5 0 0 0 0 0 0 0 0 0 0 0 0 0 0 0 2 0 0 0 0 0 0 0 0 0 0 0

GFSGBSN_prec_cloud_096.txt.gz
Cloud_Cover
79 94 5 34 16 7 22 5 0 5 3 19 5 5 5 98 45 100 100 98 100 100 100 100 100 100 100 100 99 38 58 15 1 0 0 0 0 0 0 0 4 5 0 2 5 2 0
91 95 99 23 44 100 100 6 5 5 4 1 2 3 2 53 22 100 100 100 100 100 100 100 100 100 100 100 100 100 100 83 9 4 0 0 0 0 0 0 0 0 0 0 0 0 0
87 90 100 77 100 100 100 100 5 5 4 3 5 3 0 4 100 100 100 100 100 100 100 100 100 100 100 100 100 100 100 100 100 91 54 5 2 0 0 0 0 0 0 0 0 0 0
4 100 40 87 100 100 100 100 100 98 18 23 18 6 5 32 100 100 100 100 100 100 99 100 100 100 100 100 100 100 100 100 99 100 100 100 91 4 5 6 0 1 0 3 0 0 0
10 74 91 100 100 98 75 100 99 100 92 100 100 99 2 90 100 100 100 100 100 100 100 100 100 100 100 100 100 100 100 100 100 100 100 89 40 42 10 5 28 28 38 5 2 0 0
93 14 83 100 100 75 76 83 92 100 100 100 100 95 5 79 100 93 100 100 100 100 99 99 100 100 100 100 100 100 100 100 100 100 100 100 99 49 88 49 12 6 21 5 5 0 5
9 100 100 100 84 25 96 100 100 100 100 100 100 52 5 5 44 100 100 100 100 100 100 100 100 100 100 100 100 100 100 100 100 100 100 96 84 47 5 8 5 5 6 8 5 5 50
17 100 100 100 72 100 100 100 100 100 98 60 25 16 5 0 100 100 100 100 100 100 100 100 100 100 100 100 100 100 100 100 100 100 100 100 97 99 48 49 5 6 95 64 7 5 92
10 100 91 96 41 100 99 11 39 100 32 100 97 33 5 99 100 100 100 100 100 100 100 100 100 100 100 100 100 100 100 100 100 100 100 100 100 33 35 6 10 13 90 35 91 70 13
12 100 94 49 99 66 4 5 12 87 86 92 97 1 43 100 100 100 100 100 100 100 100 100 100 100 100 100 100 100 100 100 92 77 74 20 6 8 5 22 38 100 69 95 100 100 97
96 100 100 30 100 15 18 38 2 5 10 5 3 100 100 100 100 100 100 100 100 100 100 100 100 100 100 99 99 99 100 100 100 100 68 22 7 5 45 10 85 57 100 100 100 100 100
57 100 100 32 100 43 0 0 5 2 4 26 4 82 100 100 100 100 100 100 100 100 100 100 100 100 100 95 65 37 12 15 10 5 6 5 5 5 19 42 63 99 100 88 100 100 98
36 100 100 52 100 100 72 3 1 2 3 4 70 85 100 100 99 90 95 100 100 100 100 100 100 100 100 45 83 50 5 5 35 71 32 5 5 94 92 94 100 100 100 98 100 100 100
21 100 100 71 2 96 43 38 0 0 1 46 7 26 54 92 100 96 100 100 100 100 100 100 100 100 100 100 95 85 11 8 8 91 89 44 5 72 97 100 100 100 100 100 100 100 100
12 94 100 98 0 0 0 0 0 0 0 0 1 37 74 14 14 31 97 100 100 100 100 100 100 100 100 94 61 5 9 100 95 95 48 68 88 100 100 100 100 100 100 100 100 100 100
92 46 100 95 0 1 0 0 0 0 0 0 0 0 4 5 5 43 76 100 39 62 34 58 81 78 54 47 75 100 100 69 71 100 99 100 100 100 82 88 93 100 98 100 100 100 100
100 10 100 100 1 0 0 0 0 0 0 0 0 0 3 0 4 16 75 89 30 82 100 100 98 95 49 73 100 66 8 88 100 100 100 100 100 81 96 70 100 100 94 100 100 100 100
100 98 50 90 0 0 0 0 0 0 0 0 0 0 5 4 6 31 95 67 38 18 61 61 5 82 100 64 38 100 100 100 100 100 100 100 99 51 100 100 100 100 100 100 100 97 100
9 100 1 0 0 0 0 0 0 0 0 0 0 0 3 4 15 81 78 40 15 88 99 66 65 50 5 98 100 100 100 100 100 100 100 92 100 98 91 100 100 100 100 100 100 100 100
0 61 21 0 0 0 0 0 0 0 0 0 0 0 0 0 5 4 47 5 5 26 33 5 20 59 58 95 52 62 100 100 71 63 25 56 62 82 35 5 12 38 76 90 100 34 8
4 22 68 5 0 0 0 0 0 0 0 0 6 0 2 5 0 0 0 2 0 5 5 5 5 5 3 6 4 4 3 6 4 10 20 2 4 12 4 6 3 0 1 4 5 11 5
7 17 22 5 5 0 0 0 0 0 0 5 0 0 0 0 0 0 0 0 4 4 5 0 0 0 0 0 0 0 0 0 0 0 0 0 0 0 0 0 0 0 0 0 0 0 0
100 5 46 9 5 5 1 0 0 0 0 0 6 0 0 0 0 0 1 0 0 0 0 0 0 0 0 0 0 0 0 0 0 0 0 0 1 5 3 0 0 0 0 0 0 0 0
100 28 16 28 3 28 5 1 0 0 0 0 0 0 0 0 0 0 0 0 0 0 0 0 0 0 0 0 0 0 0 0 0 0 0 0 2 9 5 1 0 0 0 0 0 0 0
100 71 11 25 7 7 4 5 1 0 0 0 0 0 0 0 0 0 0 0 0 0 0 0 0 0 0 0 0 0 0 0 0 0 0 0 2 4 4 4 0 0 0 0 0 0 0
100 100 32 28 5 5 8 5 20 4 0 0 0 0 0 0 0 0 0 0 0 0 0 0 0 0 0 0 0 0 0 0 0 0 0 0 0 1 3 0 0 3 2 0 0 0 0
100 100 83 5 8 16 5 11 44 90 20 0 0 0 0 0 0 4 0 0 0 0 0 0 0 0 0 0 0 0 3 0 0 0 0 0 3 2 4 2 0 0 0 0 0 0 0
100 100 100 52 89 99 14 7 5 33 72 42 3 2 0 0 0 0 5 3 0 0 0 0 0 0 0 1 0 1 5 0 0 0 0 0 1 3 4 2 1 0 0 2 5 5 5
100 100 100 100 100 100 88 26 8 16 87 100 69 15 2 0 0 0 0 2 5 4 4 1 4 0 0 0 0 0 0 0 0 0 0 0 0 0 0 0 0 0 0 0 0 0 0

GFSGBSN_prec_cloud_099.txt.gz
Cloud_Cover
81 94 21 29 100 96 89 100 100 100 59 60 5 5 5 25 5 5 5 99 100 100 22 100 100 100 100 100 100 96 72 99 2 0 0 0 0 0 0 1 2 3 67 56 89 5 0
9 5 84 81 89 68 8 57 92 99 100 100 56 0 0 0 0 5 10 100 100 100 100 80 100 100 100 100 100 100 100 100 92 6 5 0 2 0 0 0 0 0 0 0 0 3 5
5 100 64 52 15 22 65 62 100 100 100 100 100 41 5 5 5 3 96 98 100 100 100 100 100 100 100 100 100 100 100 100 100 100 77 4 5 36 2 0 0 0 0 0 0 0 0
87 73 73 60 100 100 100 95 100 100 100 100 100 79 5 5 5 6 100 100 100 100 100 100 100 100 100 100 100 100 100 100 100 100 100 100 50 5 70 39 11 1 0 0 0 0 0
100 49 100 99 100 100 100 100 100 100 100 100 93 94 87 100 5 43 100 100 100 100 100 100 100 100 100 100 100 100 100 100 100 100 100 100 100 80 76 63 79 8 0 2 0 2 0
100 70 95 100 100 94 96 96 100 100 100 100 100 100 100 96 4 45 100 100 100 100 80 100 100 100 100 100 100 100 100 100 100 100 100 100 100 100 100 93 38 59 28 5 4 4 23
99 78 100 37 52 100 26 5 67 100 100 100 94 100 60 5 4 85 100 100 100 100 98 100 100 100 100 100 100 100 100 100 100 100 100 100 100 100 87 42 100 100 97 100 5 17 5
90 80 89 6 100 66 15 27 86 9 62 9 5 9 75 2 88 100 100 100 100 100 100 100 100 100 100 100 100 100 100 100 100 100 100 100 98 83 96 42 26 11 96 82 85 5 14
36 73 45 38 100 72 24 92 32 6 5 2 4 8 4 82 100 88 100 100 100 100 100 100 100 100 100 100 100 100 80 100 100 100 100 100 100 92 100 100 37 26 45 18 27 36 5
100 69 85 22 100 50 0 11 35 22 85 100 100 100 100 97 100 100 100 100 100 100 100 100 100 100 100 100 100 100 71 73 100 100 100 100 100 100 100 100 99 24 5 78 88 100 97
100 42 100 38 100 98 10 16 43 0 71 93 95 100 100 100 100 100 100 100 100 100 100 100 100 100 100 100 100 96 75 59 97 100 83 100 100 100 100 64 5 5 14 20 78 100 100
100 22 93 25 93 100 24 1 53 2 4 22 100 100 100 100 100 100 100 100 100 100 100 100 100 100 100 100 100 100 100 100 89 25 41 62 79 60 6 5 6 9 36 79 98 100 96
100 39 48 4 1 37 0 0 0 1 39 100 25 97 95 100 99 100 100 97 76 100 100 100 100 100 100 100 100 100 100 77 5 5 7 5 5 5 11 73 93 74 100 74 88 99 97
98 97 6 3 0 0 0 0 0 0 0 0 5 12 14 9 97 100 100 100 100 100 95 71 84 100 100 99 82 100 23 6 6 12 94 48 5 21 9 6 87 100 100 96 92 100 100
5 100 40 0 0 0 0 0 0 0 0 0 4 2 5 100 79 74 88 100 100 100 99 91 64 5 88 8 9 5 47 5 5 5 60 82 33 48 10 80 100 100 100 100 100 100 100
96 16 0 4 0 0 0 0 0 0 0 0 0 12 2 4 99 84 100 93 94 12 30 85 100 100 100 98 16 5 5 22 70 65 43 93 97 90 74 72 67 99 78 97 99 100 100
99 94 23 1 0 0 0 0 0 0 0 0 0 0 0 0 2 100 47 86 82 95 74 70 62 47 50 53 16 11 70 47 85 31 79 79 93 49 100 100 100 100 100 26 100 100 100
8 99 6 0 0 0 0 0 0 0 0 0 0 0 0 0 3 36 99 63 5 5 5 6 65 81 6 62 100 100 13 22 48 88 100 75 90 100 100 100 100 5 15 100 100 100 65
94 71 59 0 0 0 0 0 0 0 0 0 0 0 0 0 9 23 4 5 5 5 5 5 5 5 5 98 97 100 98 66 94 93 99 100 100 100 100 47 100 100 93 100 100 100 89
27 99 41 2 0 0 0 0 0 0 0 0 0 0 0 0 0 0 3 0 4 5 5 5 5 5 14 5 6 58 18 60 5 5 5 5 5 5 31 77 38 7 5 5 32 63 91
66 29 20 21 0 0 0 0 0 0 0 0 3 0 2 0 0 0 0 3 2 5 5 1 0 0 1 5 4 4 0 0 0 0 2 4 1 4 2 0 1 1 2 4 4 6 5
100 3 19 100 5 0 0 0 0 0 0 4 0 0 0 0 0 0 0 0 0 0 0 0 0 0 0 0 0 0 0 0 0 0 0 0 0 1 0 0 0 0 0 0 0 0 0
100 43 7 28 5 3 5 1 0 0 0 0 22 0 0 0 0 0 0 0 0 0 0 0 0 0 0 0 0 0 0 0 0 0 0 0 0 5 3 0 0 0 0 0 0 0 0
100 100 99 2 5 1 5 5 5 0 0 0 0 0 0 0 0 0 0 0 0 0 0 0 0 0 3 3 3 4 5 5 5 5 5 5 4 7 5 3 0 1 0 0 0 0 0
100 100 100 86 84 12 5 5 5 5 4 1 0 0 0 0 0 0 0 0 0 0 0 0 0 0 0 0 0 0 0 4 5 1 3 2 4 5 5 4 3 5 5 3 0 1 4
100 100 62 100 97 100 54 5 5 4 5 1 0 0 0 0 0 0 0 0 0 0 0 0 0 0 0 0 0 0 0 0 0 0 0 0 0 2 3 0 0 0 0 0 3 3 5
100 100 100 100 46 28 80 93 5 6 5 24 8 5 0 0 0 0 0 0 0 0 0 0 0 0 0 0 0 0 3 0 1 0 0 1 3 4 5 4 2 2 1 0 3 4 5
100 100 100 100 100 100 100 67 100 18 32 73 5 33 5 2 0 0 3 0 0 0 0 0 0 3 1 0 0 4 5 5 8 7 15 18 46 42 20 18 16 16 15 5 5 4 3
12 22 100 100 100 100 72 100 79 97 5 90 76 12 5 20 0 0 0 1 0 0 0 0 0 0 0 4 5 5 5 5 5 5 27 8 7 17 45 100 56 46 23 33 16 56 100

GFSGBSN_prec_cloud_102.txt.gz
Cloud_Cover
0 100 81 74 100 74 81 98 99 100 100 100 69 12 100 100 99 98 100 70 38 61 99 43 100 100 100 100 100 100 96 94 99 4 0 0 0 0 0 0 20 20 26 6 7 15 28
67 95 100 100 92 90 15 65 100 100 100 100 100 35 46 97 100 100 93 42 66 100 100 75 52 100 100 100 100 96 99 100 100 96 2 0 0 0 0 0 0 0 5 7 5 5 68
100 83 100 81 79 72 96 100 100 100 100 100 100 100 69 5 100 100 91 6 5 84 100 98 27 100 100 95 99 100 100 100 100 100 100 79 25 2 0 0 0 0 0 0 0 0 0
100 100 100 85 100 29 44 100 100 100 100 100 100 100 13 4 5 14 14 4 24 100 100 61 84 100 100 100 100 100 93 100 100 100 100 100 100 100 31 0 0 0 0 0 0 0 0
100 100 90 65 82 5 11 70 100 100 92 100 100 100 96 26 5 5 5 54 62 100 86 37 99 100 100 100 100 100 57 97 100 100 100 100 100 100 100 88 4 1 0 0 0 0 0
100 100 67 100 56 98 100 17 26 92 100 16 34 100 100 87 5 5 40 100 98 97 74 76 100 100 100 100 100 100 97 88 100 100 100 100 100 91 100 99 85 27 5 0 0 2 5
100 98 20 100 81 100 100 93 24 10 15 47 49 9 24 2 1 4 100 100 100 100 100 100 100 100 100 100 100 100 100 100 100 100 100 100 100 100 100 100 99 100 100 59 30 3 7
100 98 9 76 95 100 98 76 42 35 100 31 8 0 0 2 3 18 92 100 100 100 100 100 100 100 100 100 100 98 100 91 70 95 100 100 100 100 100 100 67 84 75 100 100 68 23
100 100 3 43 99 26 84 7 100 100 96 100 92 45 78 88 88 100 100 100 100 100 100 100 100 100 100 100 100 100 69 72 53 33 100 100 100 100 100 91 39 6 35 5 10 7 17
100 100 95 3 5 0 1 6 74 100 100 100 100 100 100 100 100 100 100 100 100 100 100 100 100 100 100 100 100 100 100 95 73 58 88 100 100 100 100 99 83 59 41 5 38 89 70
100 62 88 0 0 0 0 0 5 52 25 100 56 100 92 100 100 100 100 100 100 100 100 100 100 100 100 100 100 100 100 98 24 47 74 100 100 100 97 99 100 97 12 51 97 100 100
100 24 51 0 0 0 0 0 0 2 3 6 36 97 98 100 97 100 100 100 100 100 98 100 100 100 100 100 100 100 100 37 5 17 54 90 94 5 6 5 5 5 32 100 99 100 81
100 95 3 0 0 0 0 0 0 0 4 21 53 100 98 85 100 100 100 100 100 100 100 100 100 100 96 100 100 99 100 39 19 24 36 5 6 5 5 30 38 54 100 62 70 92 70
100 92 1 0 0 0 0 0 0 4 5 5 9 98 6 91 100 100 100 100 100 100 100 100 100 100 100 100 86 57 5 10 5 14 80 42 47 6 5 15 84 100 99 79 98 90 94
86 88 4 0 0 3 16 16 0 0 2 61 0 19 14 5 6 22 42 100 96 100 100 100 100 100 100 100 100 81 79 40 28 5 53 63 51 5 5 34 61 100 100 97 100 100 96
100 80 19 0 0 3 87 81 0 0 0 0 0 2 4 5 62 91 99 60 21 6 8 13 43 18 20 34 44 19 12 5 88 7 16 28 46 5 19 35 50 60 71 92 100 94 77
90 100 20 0 0 0 0 0 0 0 0 0 0 0 0 0 6 12 18 57 30 92 68 55 7 5 4 5 5 5 5 6 8 21 90 45 9 5 6 46 37 82 100 93 64 100 96
13 100 87 0 0 0 0 0 0 4 0 0 0 29 0 0 7 40 59 5 5 5 5 5 5 5 5 5 5 5 5 6 5 28 7 19 100 89 60 27 87 100 100 100 72 100 58
0 89 96 23 0 0 0 0 0 0 0 0 0 0 0 0 4 5 5 5 5 5 5 13 85 99 99 39 5 10 5 5 6 95 90 98 91 100 94 97 100 30 29 33 74 47 36
7 35 100 94 4 0 0 0 0 0 0 0 0 27 0 0 0 0 2 5 5 5 2 3 2 2 2 2 4 3 3 3 11 11 82 36 47 5 5 5 5 32 44 17 60 99 61
100 23 100 100 31 0 0 0 0 0 0 0 0 0 0 0 0 0 0 0 0 0 0 0 0 0 0 0 0 0 0 0 0 0 0 4 5 0 0 0 0 0 0 1 5 2 3
100 100 54 100 89 5 0 0 2 0 0 0 0 0 0 0 0 0 0 0 0 0 0 0 0 0 0 0 0 0 0 0 0 0 0 0 4 2 4 0 0 0 0 0 0 0 0
100 100 52 98 39 12 2 0 0 0 0 0 0 0 0 0 0 0 0 0 0 0 0 0 0 0 0 0 0 0 3 5 5 5 5 5 5 5 5 2 1 0 0 0 0 0 0
93 100 62 100 74 40 46 0 2 0 0 2 0 0 2 2 0 0 0 0 0 0 0 0 0 0 0 0 0 0 0 0 1 1 1 0 0 4 4 0 0 0 1 1 2 2 0
100 84 100 92 100 100 73 11 97 4 4 0 0 1 0 0 1 1 0 0 0 0 0 0 0 0 0 0 0 0 0 0 4 5 5 5 5 5 5 5 4 4 3 0 0 0 0
100 100 51 98 96 100 100 100 100 7 21 5 0 0 0 5 5 4 0 0 0 0 0 0 0 1 3 5 5 5 4 0 1 5 5 5 6 11 56 71 90 98 100 99 91 76 90
100 98 46 5 5 86 98 100 100 62 5 19 5 1 0 0 5 5 5 5 2 0 0 0 0 0 0 2 5 21 28 37 60 28 5 5 5 26 5 5 7 5 4 4 0 0 2
100 100 100 100 98 6 96 72 100 64 86 14 50 5 6 0 0 1 5 1 2 4 3 2 0 0 0 0 2 5 20 20 10 5 1 1 2 0 4 4 2 1 0 0 0 0 0
100 100 100 100 100 100 97 82 100 100 100 100 100 90 40 95 32 5 5 5 5 4 0 0 0 0 0 4 0 0 0 0 0 0 0 2 0 0 0 0 4 5 5 5 5 5 3

GFSGBSN_prec_cloud_105.txt.gz
Cloud_Cover
13 95 91 19 77 31 33 79 100 100 100 100 100 100 100 100 99 100 100 100 100 100 3 5 56 100 100 100 93 100 100 100 74 53 9 1 1 80 57 5 5 82 84 54 60 6 8
95 39 68 76 79 25 79 64 100 100 100 100 100 100 98 100 100 100 100 100 100 100 78 83 86 95 100 100 96 100 100 100 100 89 98 14 2 0 0 0 0 0 30 53 70 28 12
48 100 45 100 46 83 96 100 50 100 100 100 100 84 18 100 20 98 100 100 100 100 100 18 19 99 100 100 98 100 100 100 100 100 100 99 87 72 3 0 0 0 0 1 1 0 0
15 97 100 100 100 100 54 75 71 41 28 65 100 100 57 87 66 5 100 94 16 55 100 100 17 90 100 88 100 100 100 100 100 100 100 100 100 100 74 6 2 0 0 0 0 0 0
5 100 16 79 91 100 71 26 25 9 55 100 100 100 98 66 10 5 3 28 5 66 100 100 97 94 100 99 100 100 100 100 100 100 100 100 100 100 65 25 11 5 0 0 0 0 0
38 3 28 100 100 0 62 33 17 98 54 5 98 100 100 100 97 5 4 5 7 100 100 85 100 100 100 100 100 100 100 72 100 100 100 100 100 100 100 97 68 100 71 26 3 0 0
80 0 9 62 100 3 5 5 75 5 99 100 5 4 37 100 9 4 41 97 73 100 100 100 100 100 100 100 100 98 100 94 100 100 100 100 100 100 100 100 100 100 100 100 75 18 23
99 16 0 2 29 0 5 5 93 100 100 100 100 100 78 13 13 67 100 100 100 99 96 100 100 100 100 100 100 100 100 86 76 98 100 100 100 100 100 100 100 100 100 100 77 66 34
71 44 0 0 40 0 0 5 57 100 100 100 100 100 100 100 100 100 100 100 100 100 100 100 100 100 100 100 100 99 100 100 100 100 100 100 100 100 100 100 100 100 100 16 17 5 5
100 99 0 0 1 26 0 4 5 63 88 100 100 100 100 100 100 100 100 100 100 100 100 100 100 100 100 100 100 100 100 100 98 100 91 100 100 100 92 100 100 100 100 100 97 84 5
49 100 72 0 0 0 1 1 5 100 99 94 100 100 100 100 98 100 100 100 100 100 100 100 100 100 100 100 100 100 85 87 66 79 64 86 99 99 100 100 100 100 83 41 69 100 85
14 3 26 0 0 0 0 22 10 34 79 100 100 100 100 100 100 99 99 100 99 92 98 100 100 100 100 100 100 100 100 87 95 77 70 54 5 5 26 100 99 41 46 80 100 100 88
95 31 19 79 0 5 56 81 89 5 6 80 100 100 100 100 100 100 100 100 100 89 100 100 100 100 100 100 100 100 100 77 15 58 58 10 14 5 5 91 57 93 98 88 100 99 64
95 29 0 0 0 0 4 8 60 14 45 0 0 25 95 100 100 100 100 100 100 100 99 100 100 100 100 100 98 100 88 14 5 22 23 87 32 24 5 93 100 100 96 93 96 87 74
100 74 6 0 0 0 0 0 0 18 8 0 0 0 0 5 44 94 100 100 100 100 100 100 100 100 100 100 100 100 100 88 32 21 54 91 74 5 13 93 78 78 98 73 100 83 88
36 100 97 0 0 0 0 0 0 0 0 0 0 0 0 0 4 45 100 34 68 93 99 100 100 100 100 99 98 65 70 12 7 5 42 16 78 17 21 11 39 58 45 89 100 100 99
5 31 100 91 0 0 0 0 0 0 0 0 0 0 0 0 3 3 75 46 5 2 12 28 6 5 5 5 68 59 18 3 16 8 30 58 44 7 3 18 74 68 91 74 88 100 100
5 88 31 70 9 0 0 0 0 0 0 0 0 29 0 0 60 67 71 52 20 5 5 4 5 5 15 12 76 65 51 44 5 47 70 4 9 98 100 96 100 100 92 100 81 92 100
100 36 97 91 0 0 0 0 0 0 0 0 0 0 0 0 26 5 5 5 5 6 2 4 3 5 4 5 4 5 6 40 5 41 33 12 8 68 94 23 18 97 56 49 17 26 14
100 11 83 100 30 0 0 0 1 0 0 0 0 29 0 0 0 4 5 5 4 0 1 3 0 0 4 5 4 5 5 2 5 5 4 23 53 85 23 2 8 43 16 4 50 16 54
90 87 5 39 99 2 5 2 0 0 0 0 0 0 0 0 0 0 0 1 1 1 0 0 0 0 0 0 0 0 0 0 0 0 0 1 5 2 0 0 0 0 0 1 5 0 0
98 98 31 5 62 5 5 5 0 4 0 0 0 0 0 0 0 0 0 0 0 0 0 0 0 0 0 0 0 0 2 2 1 3 2 2 5 3 5 5 5 5 4 0 0 0 0
100 100 51 5 6 0 5 16 3 0 0 0 0 0 0 0 0 0 0 0 0 0 0 0 0 0 0 0 0 0 0 0 0 0 0 0 3 3 1 1 1 3 2 0 1 1 1
86 100 100 82 81 4 8 6 0 0 0 0 5 0 0 0 0 0 0 0 0 0 0 0 0 0 0 0 0 0 0 0 0 0 4 5 5 5 5 5 19 13 5 5 5 5 16
29 100 96 100 99 16 4 4 83 0 0 0 2 5 2 3 0 0 0 0 0 0 0 0 0 2 4 5 5 5 20 52 50 62 53 50 58 82 93 84 73 91 58 17 5 3 1
67 100 100 90 100 95 55 93 100 18 9 0 0 5 2 2 4 2 0 2 5 0 0 0 0 0 4 5 7 31 25 26 13 14 5 8 20 7 5 8 5 5 3 0 2 4 3
100 100 100 100 100 5 56 54 100 48 100 100 72 6 12 18 5 5 3 1 2 5 5 2 0 0 0 0 0 3 5 3 3 2 0 2 4 3 4 4 0 0 4 5 3 0 0
100 100 99 31 99 80 78 15 100 90 100 100 95 22 19 100 9 96 14 5 4 4 6 5 5 5 5 1 0 0 0 0 0 0 0 0 0 0 0 0 2 0 2 5 2 0 0
100 100 98 100 95 17 64 100 100 76 54 100 100 100 95 100 100 100 100 63 22 5 5 5 5 5 5 4 5 5 1 0 0 0 0 1 0 1 0 0 0 0 0 0 0 0 0

GFSGBSN_prec_cloud_108.txt.gz
Cloud_Cover
5 97 16 7 100 93 35 96 60 22 98 100 100 100 41 21 68 10 100 100 91 83 73 59 45 92 100 100 100 100 100 100 100 6 0 10 100 100 98 72 77 99 33 5 1 5 5
1 39 99 94 100 92 0 4 4 29 91 100 99 79 42 23 100 96 100 100 100 71 66 100 67 64 100 100 100 100 100 100 100 92 56 4 2 91 100 100 96 95 62 1 0 2 5
0 21 53 100 100 100 67 27 16 23 100 100 100 20 42 100 100 100 100 100 75 99 100 100 100 34 100 100 88 100 100 100 100 100 78 10 6 5 4 26 100 68 66 5 5 4 5
2 5 5 75 100 81 99 5 55 5 68 100 100 100 81 100 100 96 13 100 100 96 100 100 100 92 99 100 100 100 100 100 100 100 100 100 80 93 60 3 5 14 62 26 86 5 11
93 1 2 77 39 13 67 57 56 54 74 92 100 100 98 100 100 100 37 100 48 58 100 100 100 100 100 100 100 100 100 100 100 99 100 100 100 100 99 48 7 5 4 2 0 0 1
100 0 63 4 15 37 33 52 54 96 97 7 8 94 100 100 100 22 4 33 32 100 100 100 100 100 100 100 100 100 100 100 95 84 98 100 100 100 100 100 76 73 11 5 0 0 0
8 0 0 70 2 28 5 5 75 53 100 100 85 58 33 100 100 26 83 13 73 100 100 100 100 100 100 99 100 100 100 100 78 66 100 100 100 72 100 100 100 100 88 14 5 23 36
16 0 0 36 100 71 60 100 100 94 99 88 14 89 55 11 18 70 58 95 100 100 100 100 100 100 100 95 94 94 100 97 95 100 100 100 100 100 100 100 100 100 100 93 98 85 97
70 0 1 0 0 0 1 48 100 100 47 100 100 34 98 100 100 100 95 78 84 99 100 100 100 100 100 96 98 92 100 99 100 100 94 44 98 100 100 100 98 27 30 97 100 71 5
100 8 0 0 0 0 0 80 93 100 100 100 100 94 53 19 100 100 44 84 72 100 99 100 100 100 100 100 96 100 94 82 95 96 98 63 46 82 100 100 100 100 100 100 88 84 99
100 87 1 0 0 0 0 1 84 47 82 100 100 100 100 28 74 98 95 100 100 96 96 100 100 100 100 93 99 100 100 100 100 100 98 79 71 34 100 92 43 98 100 100 57 100 89
100 100 2 0 0 0 0 0 6 70 97 90 100 97 100 100 71 74 75 75 84 93 93 100 100 100 100 100 100 99 100 90 90 54 73 20 6 6 34 48 57 89 100 100 100 87 97
100 100 78 0 0 0 0 5 32 7 67 100 100 100 100 100 100 100 100 76 99 51 98 97 100 100 94 100 100 100 90 77 58 46 82 74 18 5 3 51 50 67 100 69 67 77 18
95 100 100 5 0 0 0 3 3 1 1 2 22 48 100 84 100 100 100 100 100 100 96 100 100 100 100 100 100 100 100 88 73 34 23 77 56 14 5 57 41 100 100 95 32 55 8
25 44 100 23 0 0 0 0 2 0 0 0 0 3 0 91 100 100 96 100 100 100 100 100 100 100 100 100 100 100 100 95 14 5 38 45 70 5 16 100 87 79 98 89 84 10 18
9 27 95 71 0 0 0 0 0 0 0 0 0 0 0 4 84 100 100 70 94 97 99 100 99 93 100 100 100 100 92 10 6 5 5 20 67 23 7 5 17 100 38 87 73 94 74
18 100 62 97 0 0 0 0 0 0 0 0 0 0 0 0 5 0 20 5 73 100 100 100 100 100 100 43 94 24 20 4 46 5 29 47 86 42 5 17 75 91 64 65 87 92 97
19 64 100 54 0 0 0 0 0 0 0 0 0 27 0 3 3 4 5 5 5 5 2 5 5 5 6 70 100 33 77 13 6 11 86 3 17 56 22 10 35 32 5 55 28 100 88
95 56 90 100 0 5 0 0 0 0 0 0 0 0 0 0 3 5 1 0 4 5 2 4 5 5 11 28 9 5 5 1 0 2 4 3 9 4 2 25 73 82 59 11 5 6 5
98 87 6 84 39 0 0 0 0 0 0 0 0 11 0 0 0 2 0 0 0 0 0 0 0 2 2 1 2 5 3 4 11 5 5 10 5 5 3 5 5 20 5 5 5 5 3
100 100 90 4 93 14 0 2 0 0 0 0 0 0 0 1 0 0 0 0 0 0 0 0 0 0 0 0 0 0 0 0 0 0 0 1 3 1 0 0 0 0 0 0 0 0 0
100 100 100 25 5 5 70 7 5 0 0 0 0 0 0 0 0 0 0 0 0 0 0 0 0 0 0 0 0 0 0 0 0 0 2 4 2 0 4 0 0 0 0 0 0 0 0
100 23 100 96 10 3 39 88 0 5 4 0 1 0 0 0 0 0 0 0 0 0 0 0 0 0 0 0 1 0 0 0 0 1 1 0 0 1 4 1 1 1 2 3 5 5 4
100 98 100 100 63 39 5 100 4 61 5 16 0 8 2 0 0 0 0 0 0 0 0 0 4 3 2 5 5 5 5 5 5 5 5 5 5 5 18 28 39 32 5 1 0 0 0
100 84 100 100 100 8 5 13 100 99 82 54 79 46 5 22 5 0 0 2 4 4 0 0 0 1 2 5 5 5 7 36 16 10 5 5 5 4 4 1 0 0 0 0 0 0 0
100 100 100 100 100 12 5 17 13 5 88 100 100 93 54 99 100 36 2 5 1 0 0 3 1 0 0 0 0 0 0 0 0 0 0 3 3 3 1 0 2 4 2 0 0 0 4
100 100 100 100 100 91 8 5 17 26 29 50 74 99 100 100 100 96 8 48 34 2 1 0 0 0 2 0 4 0 0 0 0 0 0 2 5 5 5 5 10 74 99 100 77 14 5
100 100 100 100 100 96 22 9 5 5 5 5 9 63 100 100 100 100 100 100 98 82 5 1 2 4 2 5 5 1 0 0 0 0 0 1 4 3 5 5 5 10 74 100 100 100 100
100 100 100 100 100 100 50 6 5 7 5 5 9 27 5 4 52 2 40 99 100 100 90 12 5 5 5 17 5 5 5 5 5 5 5 22 96 92 94 100 100 90 87 71 100 13 100

GFSGBSN_prec_cloud_111.txt.gz
Cloud_Cover
9 1 8 100 98 100 17 100 8 3 95 100 100 100 20 5 7 39 97 100 81 22 5 27 100 42 92 100 98 100 100 92 100 50 3 0 2 50 5 5 10 98 45 100 67 54 64
76 0 41 100 100 100 93 94 50 86 49 100 100 48 13 5 5 5 5 56 96 73 5 93 19 90 66 78 100 100 100 86 97 100 40 2 0 0 0 3 39 7 5 5 12 44 92
92 0 46 87 100 100 94 5 100 100 90 94 98 76 5 5 8 81 79 100 100 100 70 30 100 100 94 92 100 100 100 95 17 100 100 96 53 5 4 0 5 5 5 5 9 5 5
1 0 24 88 90 64 12 13 22 22 99 83 97 55 97 11 100 100 100 100 100 84 25 5 14 98 95 64 98 100 100 87 98 100 100 100 100 100 61 2 0 1 0 8 16 36 10
0 2 93 16 5 12 5 5 38 84 18 37 96 100 68 16 100 100 100 100 66 73 92 21 64 83 97 100 86 100 100 97 100 100 100 100 100 100 100 8 4 0 0 1 13 44 83
0 0 0 2 5 97 78 12 100 100 100 6 4 95 100 16 97 100 100 100 99 95 98 95 99 100 100 100 100 100 98 100 100 92 98 100 100 100 100 94 28 4 5 0 0 0 5
82 11 0 0 0 5 9 100 15 100 100 100 100 2 79 5 5 4 34 100 99 88 100 100 100 100 100 100 100 100 100 100 100 70 100 100 100 100 100 100 98 17 5 4 0 5 5
88 9 7 0 0 1 5 81 42 85 100 100 100 98 5 0 5 5 60 98 100 92 100 100 100 100 100 100 100 100 86 100 100 100 96 71 99 100 100 100 100 100 31 19 43 100 99
100 100 31 0 0 0 0 2 100 80 100 23 65 59 5 1 5 14 70 79 68 94 100 100 100 100 100 100 100 100 100 90 97 86 98 100 64 45 95 100 100 96 94 100 57 95 74
100 80 0 0 0 0 0 1 8 69 75 29 5 5 5 5 3 5 58 88 100 100 100 100 100 100 100 100 100 100 100 100 99 100 100 57 5 5 5 21 96 100 100 100 97 70 5
100 100 33 0 0 0 17 100 4 52 6 36 36 5 5 62 81 28 26 99 100 100 100 100 100 100 100 98 97 97 69 77 100 100 90 8 5 5 5 5 44 98 90 96 100 100 100
100 100 85 2 1 5 66 100 94 0 5 7 100 100 70 24 40 6 5 21 92 78 95 100 100 100 100 98 58 49 49 28 100 70 5 5 4 5 5 5 5 5 5 63 80 77 62
100 94 100 88 6 14 9 48 16 9 0 4 20 96 95 100 100 100 95 96 97 43 100 100 100 100 100 100 100 100 100 90 32 5 20 28 22 62 5 5 4 4 5 43 33 78 25
86 96 100 100 30 17 54 37 10 0 0 5 5 6 8 26 67 100 100 100 100 100 100 100 100 100 100 100 100 100 100 72 6 5 14 6 9 6 5 17 13 64 52 11 5 62 10
96 87 92 92 15 33 34 73 27 0 0 0 3 5 5 75 100 100 100 98 100 100 100 100 100 100 100 100 100 100 100 100 54 5 6 33 48 5 48 100 76 16 92 36 10 12 22
5 98 100 4 0 0 13 18 41 7 0 0 0 0 0 0 45 90 100 45 55 100 100 100 100 92 100 100 100 100 91 17 4 1 5 5 5 22 5 10 55 100 81 86 88 52 64
74 14 13 17 0 0 0 1 15 4 0 0 0 0 0 0 0 0 4 4 45 80 90 100 99 100 100 100 100 94 10 4 5 0 4 36 8 58 24 7 8 58 26 7 5 13 10
100 98 5 1 0 0 0 0 0 0 0 0 0 0 0 0 0 0 0 5 4 1 0 5 5 6 9 24 5 5 5 3 1 2 5 5 24 12 2 4 5 5 1 4 5 6 14
100 100 78 5 1 0 4 0 0 0 0 0 0 0 0 0 0 0 0 0 0 0 4 0 0 1 5 4 2 2 0 0 1 2 2 1 3 5 5 5 5 3 1 2 5 5 5
100 100 100 89 1 4 0 4 4 0 0 0 0 1 0 0 0 1 0 0 0 0 0 0 0 0 0 0 0 0 0 0 0 0 0 0 3 1 4 0 0 0 0 0 0 20 3
100 100 100 100 58 5 5 2 0 1 0 0 0 0 0 0 0 0 0 0 0 0 0 0 0 0 0 0 0 0 0 0 0 0 0 0 5 0 0 0 0 0 0 0 0 0 1
100 100 99 95 100 5 5 5 46 5 2 0 5 4 0 0 0 0 0 0 0 0 0 0 0 0 0 0 0 0 0 0 0 0 0 0 2 0 1 0 0 0 0 0 0 0 2
100 100 100 100 100 46 5 24 5 38 5 0 5 4 0 0 1 0 0 0 0 0 0 0 2 5 5 5 11 4 2 1 0 0 0 0 0 2 2 0 0 0 0 0 0 0 0
100 100 100 100 100 99 16 5 16 41 5 5 5 5 1 4 0 5 4 0 0 0 3 0 1 0 0 0 2 3 5 4 3 2 1 0 0 0 5 2 0 0 0 0 0 0 2
100 100 100 100 100 100 99 18 5 4 5 4 5 5 4 3 4 0 3 5 0 0 0 1 4 0 0 0 0 0 0 0 0 0 0 0 2 5 38 95 97 84 55 27 78 78 37
99 100 100 100 100 100 100 54 84 5 5 5 5 5 8 4 4 3 2 5 5 5 17 2 0 0 0 0 1 2 0 0 0 0 4 5 5 6 13 6 5 9 96 71 7 95 10
100 98 100 100 100 100 100 98 60 25 6 21 5 5 4 5 0 0 2 3 5 4 43 31 8 6 3 1 2 4 5 5 5 5 73 90 53 94 100 100 100 95 95 100 100 45 56
100 100 100 100 100 100 100 100 100 95 43 52 5 5 54 3 0 2 2 5 5 5 97 59 63 20 22 7 5 5 16 5 5 4 5 19 44 77 82 63 29 20 22 25 19 5 11
100 100 100 100 100 100 100 100 100 100 87 51 7 5 40 100 51 5 0 5 4 5 17 5 34 100 100 76 97 72 8 21 8 15 25 90 28 5 54 77 6 5 18 5 5 5 14

GFSGBSN_prec_cloud_114.txt.gz
Cloud_Cover
87 6 4 19 100 34 92 10 100 86 38 100 95 80 83 8 57 100 100 100 100 100 100 5 50 93 78 81 100 100 92 7 47 100 2 0 0 0 0 4 98 100 100 100 100 100 34
10 10 38 97 35 34 31 89 100 86 74 100 100 89 74 5 5 24 100 100 100 100 100 96 36 100 100 61 100 100 100 78 55 98 63 1 2 0 0 0 58 86 100 100 100 100 66
0 0 15 0 0 4 12 8 100 45 28 82 100 100 5 5 0 4 41 100 100 100 100 99 99 91 100 98 100 100 100 64 98 77 100 95 5 5 5 1 0 6 65 100 100 100 100
0 0 0 0 47 100 79 5 100 14 11 78 99 97 5 44 67 100 40 100 100 100 69 83 97 99 99 100 100 93 100 100 96 100 85 100 94 5 0 0 0 0 8 18 9 83 61
0 0 0 0 0 15 100 85 99 4 2 6 92 75 6 95 100 100 98 100 100 100 100 81 18 100 100 100 100 100 100 100 100 100 100 91 100 60 3 0 0 0 0 0 0 0 1
95 7 0 0 0 5 92 100 60 3 2 0 6 0 4 10 100 100 100 100 98 100 78 97 66 95 100 100 100 100 100 100 95 97 72 55 83 100 25 5 4 4 0 0 0 0 0
97 2 31 0 0 0 16 100 89 5 2 0 1 0 5 31 100 98 96 100 100 89 100 100 100 100 100 100 100 100 100 75 96 100 100 100 89 100 100 17 5 5 5 1 0 0 0
31 70 0 33 28 36 28 75 100 10 5 5 5 5 6 98 100 100 100 100 100 100 100 100 100 100 100 100 100 100 100 100 100 100 100 96 100 90 100 100 24 5 5 5 5 5 1
1 100 96 94 100 100 71 22 53 5 3 2 5 59 26 100 100 100 100 100 100 100 100 100 100 100 100 100 100 100 100 100 100 100 100 100 99 91 21 76 90 87 76 100 96 100 100
0 100 100 100 100 100 100 41 8 5 5 5 1 1 5 14 53 61 71 94 100 100 100 100 100 100 100 100 100 100 100 51 100 100 100 47 12 31 10 5 5 8 52 96 85 35 62
2 6 100 100 100 100 100 100 6 8 0 4 5 5 5 12 51 78 47 49 100 100 100 100 100 100 100 100 100 93 100 100 100 100 61 24 5 5 3 5 5 3 5 6 60 99 99
77 6 62 100 100 100 100 100 84 2 0 0 5 7 14 84 100 100 100 100 69 31 83 100 100 100 100 99 100 100 100 100 100 100 100 17 5 1 0 0 0 0 2 5 5 5 5
89 19 35 39 100 100 100 100 99 10 0 0 0 6 100 100 100 100 100 100 100 90 90 100 100 100 100 74 90 100 100 100 80 93 29 5 5 2 5 4 0 0 4 15 4 61 5
100 99 8 12 31 100 100 100 89 19 0 0 0 1 54 88 100 100 100 100 100 100 100 100 100 93 100 78 99 26 6 28 57 63 51 9 3 5 5 4 4 5 5 5 4 50 5
100 100 41 8 1 9 100 100 98 0 0 0 0 1 0 5 98 100 100 100 100 100 100 100 100 100 100 100 100 100 91 5 5 5 5 5 25 5 17 67 7 5 7 8 5 10 70
100 100 25 9 0 0 29 99 15 6 0 0 0 0 0 0 3 71 89 46 100 100 100 100 100 100 100 100 100 100 100 100 62 5 4 3 19 13 23 40 10 5 14 19 78 33 5
100 49 100 8 0 3 0 12 39 0 0 0 0 0 0 0 0 0 3 5 5 12 100 100 100 100 100 100 100 100 100 100 92 6 5 5 4 54 84 6 4 5 5 5 5 5 7
100 100 67 56 7 5 5 0 15 0 0 0 0 0 0 0 0 0 0 3 2 4 0 1 2 12 28 62 19 12 6 3 0 0 5 4 5 29 3 5 5 5 5 0 5 4 5
100 100 97 100 6 9 5 5 0 3 0 0 0 0 0 0 0 0 0 0 0 0 4 0 4 5 4 5 2 2 3 3 1 2 3 0 4 5 6 3 5 32 5 5 4 5 5
100 100 100 100 81 8 4 3 0 0 7 0 0 0 0 0 0 0 0 0 0 0 0 0 0 0 1 0 0 0 0 0 0 0 1 0 1 1 3 0 0 19 1 1 4 4 5
100 100 100 100 100 42 4 5 4 0 0 0 0 0 0 0 0 0 0 0 0 0 0 0 0 0 0 0 0 0 0 0 0 0 0 0 4 0 0 0 0 0 0 0 0 0 3
100 100 100 100 100 66 5 5 5 4 0 0 0 0 0 4 0 0 0 0 0 0 0 0 0 0 0 0 0 0 0 0 0 0 0 0 0 0 0 0 0 0 0 0 0 0 0
100 100 100 99 100 100 58 6 5 5 5 0 0 0 0 0 0 0 0 0 0 0 0 0 0 0 0 0 0 0 0 0 0 0 1 0 0 1 4 0 3 18 5 5 1 5 5
100 100 100 100 94 100 100 100 6 17 5 5 4 0 0 0 0 0 0 0 0 0 0 0 0 0 0 0 0 0 0 0 0 1 2 2 1 35 69 93 34 3 17 5 2 1 4
100 100 100 97 72 100 100 100 82 21 9 5 25 14 0 0 0 0 0 0 2 0 0 0 0 0 0 0 0 1 1 2 0 0 3 4 5 14 79 5 5 89 5 4 4 6 5
100 100 100 100 94 100 100 100 100 100 98 14 18 10 4 5 2 0 0 0 4 2 3 0 1 0 0 0 0 0 3 0 5 4 4 5 5 5 5 5 5 4 5 5 5 5 5
100 100 100 100 100 80 100 100 100 69 6 100 75 100 23 18 50 22 1 1 5 3 0 0 1 2 1 3 0 2 1 2 0 1 0 3 6 8 10 23 65 5 5 16 68 72 21
100 50 100 100 100 37 93 100 100 100 99 86 83 66 90 75 93 72 8 5 5 20 4 4 4 5 5 4 3 5 4 5 5 4 73 27 13 26 41 36 23 5 5 5 38 9 89
100 100 100 100 100 98 91 100 100 100 100 100 100 100 100 35 42 100 74 66 69 6 10 8 10 5 5 5 3 5 5 5 5 10 3 87 100 88 10 15 38 71 94 85 99 91 99

GFSGBSN_prec_cloud_117.txt.gz
Cloud_Cover
0 1 9 66 59 33 1 7 4 5 54 98 100 18 22 5 100 100 100 100 100 100 100 100 84 9 100 100 100 100 94 5 0 0 0 0 0 4 3 5 3 41 43 95 33 19 13
0 0 46 70 19 100 35 4 0 5 70 95 100 100 9 5 100 100 100 100 100 100 100 60 50 55 57 93 100 100 87 5 2 1 2 2 0 0 0 0 5 5 5 32 52 27 54
0 0 0 5 1 50 100 19 0 5 7 7 100 6 0 2 6 100 100 100 100 100 100 25 5 96 23 100 100 100 86 46 5 5 5 23 13 0 0 0 0 2 0 0 0 5 40
2 1 0 2 3 12 100 53 0 3 10 24 1 2 71 99 8 6 98 100 100 100 100 74 8 96 100 65 100 100 100 88 5 6 5 100 100 24 0 0 0 0 0 0 0 4 36
7 0 10 7 1 87 71 36 5 0 3 3 8 6 99 12 56 39 59 100 100 100 100 41 76 73 100 89 100 100 100 100 100 86 37 40 58 80 2 0 0 0 0 0 0 0 2
0 45 39 95 51 11 88 13 5 1 1 11 5 98 9 23 100 46 86 100 100 100 100 25 94 100 99 100 100 100 100 100 98 100 73 4 5 28 17 1 0 0 0 0 0 0 0
0 100 100 100 100 54 14 24 11 3 0 5 100 98 94 100 100 100 98 70 100 100 100 100 100 100 100 100 100 100 100 100 65 89 89 7 5 5 78 10 5 0 0 0 0 0 0
1 55 100 100 100 100 41 94 8 1 0 0 6 21 14 64 100 100 100 100 82 96 100 100 100 100 100 100 77 100 100 85 56 90 100 53 5 5 14 55 89 12 4 1 0 0 0
100 21 100 100 100 100 100 8 37 2 1 5 5 5 5 5 100 100 100 100 100 100 100 100 100 100 100 100 100 100 100 93 86 100 100 99 44 92 41 5 8 90 68 5 2 0 0
100 66 13 100 100 100 100 96 9 0 0 4 83 21 13 5 31 98 100 100 100 100 89 100 100 100 100 100 100 100 100 83 82 100 98 91 60 70 5 5 5 5 8 38 6 16 4
80 100 92 82 100 55 100 63 50 1 0 4 5 62 64 94 100 100 89 64 100 100 97 100 100 100 100 100 100 100 100 100 100 100 83 27 36 5 5 5 0 0 0 5 5 5 5
100 100 82 75 88 93 86 100 65 0 0 5 19 7 84 91 13 84 61 89 12 99 100 100 100 100 100 100 100 100 100 59 90 76 50 73 56 5 5 3 1 0 0 5 5 5 4
98 97 84 100 73 61 98 100 99 4 0 0 4 5 64 81 84 67 14 99 100 67 100 100 100 100 100 100 99 90 76 80 71 17 5 5 6 5 1 0 0 0 4 4 2 8 0
100 89 36 80 85 40 56 67 56 17 0 0 0 5 5 91 100 89 93 100 69 100 94 99 100 100 100 74 80 100 100 100 98 74 5 5 3 0 1 3 1 3 0 4 0 17 5
100 91 100 65 6 16 10 72 24 0 0 0 0 0 0 4 100 92 99 64 89 100 100 100 100 100 100 100 100 100 100 100 96 100 94 59 6 5 5 5 3 5 5 4 5 26 86
100 100 12 100 51 8 3 7 22 4 0 0 0 0 0 0 2 90 94 15 52 97 81 85 74 68 85 100 100 94 66 64 66 5 5 1 17 9 12 31 6 5 5 5 47 25 17
100 100 96 5 67 91 20 2 17 0 0 0 0 0 0 0 0 0 11 40 100 100 100 100 100 100 91 10 5 21 6 5 3 3 5 3 4 51 63 5 5 3 5 5 7 5 7
99 100 99 12 5 5 18 46 20 0 0 0 0 0 0 0 0 0 0 0 4 5 66 100 100 100 100 100 100 97 98 6 5 3 5 5 5 67 4 4 3 5 5 1 5 2 5
7 100 100 100 5 5 8 4 91 30 0 0 0 0 0 0 0 0 0 0 0 0 0 0 0 0 0 1 1 0 3 2 0 5 4 2 4 5 5 2 4 5 2 5 2 4 5
10 65 92 100 78 5 5 5 22 70 11 0 0 0 0 0 0 0 0 0 0 0 0 0 0 0 0 0 0 0 0 0 0 0 0 0 0 0 0 0 0 3 0 1 5 5 5
42 6 100 98 100 98 4 5 5 4 0 0 0 0 0 0 0 0 0 0 0 0 0 0 0 0 0 0 0 0 0 0 0 0 0 0 0 1 1 0 0 0 0 0 4 3 4
100 95 40 97 99 100 87 9 21 59 1 4 0 0 0 0 0 0 0 0 0 0 0 0 0 0 0 0 0 0 0 0 0 0 0 0 0 1 4 0 0 0 0 0 2 5 5
100 100 57 68 59 97 100 87 5 22 66 5 20 4 0 0 0 0 0 0 0 0 0 0 0 0 0 0 0 0 0 2 4 1 1 0 4 4 4 0 0 0 1 0 1 4 5
100 100 100 98 100 62 98 100 100 7 68 8 43 42 5 0 0 0 2 3 0 0 0 0 0 0 0 0 0 0 0 0 0 0 0 0 1 6 5 2 0 0 2 4 4 7 60
100 100 100 100 45 94 100 100 100 7 17 34 90 50 99 16 5 4 1 0 0 3 4 2 0 0 0 0 0 0 0 0 0 0 0 0 1 3 5 9 0 0 0 0 0 0 4
100 81 59 100 100 8 42 99 100 100 40 29 16 100 55 55 30 1 4 5 2 0 0 0 0 3 4 5 2 4 5 5 6 5 5 3 1 3 5 5 5 0 3 5 6 10 5
100 98 94 100 100 100 69 100 100 100 100 100 18 97 100 70 32 74 81 5 39 55 3 3 2 0 2 4 4 5 2 5 5 4 5 5 9 8 6 16 5 5 5 5 5 5 5
57 100 84 100 100 98 98 98 71 100 100 93 100 98 100 100 100 94 59 97 69 100 100 100 18 41 32 27 16 5 9 4 3 4 5 4 30 51 54 45 22 5 5 5 7 11 12
52 17 96 76 100 100 100 100 100 100 100 100 97 100 100 100 83 82 100 100 100 66 99 100 100 99 86 7 19 50 10 17 31 28 5 99 83 10 28 10 43 5 6 5 35 99 96

GFSGBSN_prec_cloud_120.txt.gz
Cloud_Cover
0 0 3 71 39 5 13 7 29 0 5 4 17 5 2 5 100 100 100 100 100 100 100 88 58 23 100 100 100 100 45 5 5 2 37 100 100 100 100 99 16 9 73 100 93 100 81
0 0 0 24 6 10 98 6 1 3 5 0 2 1 0 5 100 100 100 100 100 100 100 57 100 84 100 100 100 100 98 5 5 5 0 8 90 100 99 68 56 7 4 5 19 69 99
17 85 23 1 6 43 11 5 0 3 5 5 0 6 61 3 100 100 100 100 100 100 100 46 100 100 100 100 100 100 96 68 50 6 3 2 5 5 6 9 18 23 5 5 5 6 37
0 32 0 0 19 61 5 5 0 1 5 5 6 7 78 5 100 100 100 100 100 100 100 6 79 100 100 100 100 100 100 100 96 85 5 3 5 5 0 2 0 0 3 5 5 3 4
9 100 89 87 0 49 40 6 1 0 3 4 8 93 71 13 84 100 100 100 100 100 100 37 18 100 100 100 100 100 100 100 100 82 5 5 3 8 2 0 0 0 0 0 4 2 0
100 100 100 59 63 25 81 16 0 0 0 1 52 100 100 32 12 100 100 100 100 100 59 21 91 97 100 100 100 100 100 100 100 98 5 0 0 5 5 3 0 0 0 0 0 0 0
100 100 100 92 58 98 50 50 3 0 0 0 4 69 100 57 12 9 96 100 100 100 95 100 100 100 100 100 100 100 100 100 100 100 5 0 1 0 5 5 4 0 0 0 0 0 0
100 100 100 93 95 73 90 44 5 2 1 2 8 5 97 35 67 99 44 100 99 94 100 100 100 100 100 100 100 100 100 100 100 100 88 4 3 0 4 5 5 5 0 0 0 0 0
97 100 100 93 100 97 91 15 7 5 5 4 1 41 6 100 100 100 49 89 93 100 100 100 100 100 98 100 100 100 100 97 100 100 96 50 1 2 5 5 5 5 5 5 2 0 0
15 100 100 100 97 100 86 60 0 1 5 5 5 46 100 5 98 91 42 46 64 87 100 100 100 100 100 100 100 100 100 82 100 100 100 90 3 3 5 5 5 5 3 2 5 5 3
75 100 100 100 100 100 88 10 5 0 4 5 6 28 45 98 57 50 16 50 90 100 76 100 100 100 100 100 100 100 100 97 100 100 98 34 19 1 3 4 5 5 0 0 0 5 1
100 2 100 100 100 100 100 54 26 1 0 5 6 59 5 6 92 88 99 97 100 100 100 100 100 100 100 100 100 100 95 40 43 72 58 93 49 5 4 0 3 1 0 0 5 3 2
100 54 84 100 100 100 100 100 13 25 0 0 4 5 6 5 55 93 23 100 100 100 100 100 100 100 100 100 100 100 100 77 25 5 32 40 5 34 3 0 0 0 2 3 2 5 0
100 83 28 12 100 100 100 100 100 3 0 0 0 1 5 56 98 96 59 24 100 100 100 100 100 91 100 100 100 100 34 81 83 100 30 7 3 3 0 0 0 5 0 2 0 3 5
86 40 53 58 4 100 100 77 80 9 0 0 0 0 0 5 43 100 100 65 67 69 95 93 83 95 68 78 42 88 94 25 6 23 5 5 32 5 5 1 0 5 4 4 5 67 83
13 71 11 37 7 10 83 100 100 12 0 0 0 0 0 0 4 86 73 37 6 36 96 73 62 25 67 20 88 93 100 99 96 5 5 4 35 5 5 4 5 5 4 5 26 2 4
33 22 45 58 11 13 39 3 100 0 0 0 0 0 0 0 0 0 5 5 34 100 100 26 67 29 5 53 100 100 100 100 92 83 16 1 2 21 5 5 5 3 5 5 5 5 5
93 11 8 86 23 50 9 10 52 45 0 0 0 0 0 0 0 0 1 5 2 10 100 74 7 17 73 49 5 8 44 100 84 59 4 3 3 67 3 3 3 5 5 3 5 1 5
100 5 26 70 99 8 22 52 27 23 6 0 0 0 0 0 0 0 0 0 0 0 0 0 44 42 78 77 49 10 5 34 4 1 0 2 4 5 5 3 4 5 0 5 3 5 5
9 5 39 92 78 89 6 4 63 7 25 1 0 0 0 0 0 0 0 0 0 0 0 0 0 0 0 0 0 0 0 1 0 1 1 0 0 0 0 0 0 2 0 0 4 19 5
22 99 96 64 18 97 5 5 36 92 5 4 3 0 0 0 0 0 0 0 0 0 0 0 0 0 0 0 0 0 0 0 0 0 0 0 0 4 4 4 0 0 0 0 5 5 5
16 99 100 100 58 49 100 64 71 9 59 17 5 5 4 0 0 0 0 0 0 0 0 0 0 0 0 0 0 0 0 0 0 0 0 0 0 4 5 0 4 5 2 0 3 0 0
24 32 7 82 5 34 98 10 93 96 5 5 79 16 4 5 4 0 0 0 0 0 0 0 0 0 0 0 0 0 0 0 0 0 0 0 0 4 2 0 3 0 1 2 1 0 0
97 71 59 6 23 5 54 87 89 9 73 6 5 42 84 4 6 17 2 4 4 0 0 0 0 0 0 0 0 0 0 0 0 3 3 5 4 7 5 3 1 3 1 3 1 2 2
100 79 12 40 89 91 5 5 35 100 75 10 60 5 88 68 26 5 12 5 25 16 4 0 0 3 3 4 5 3 4 5 2 0 1 1 0 5 5 6 4 5 5 5 5 5 5
100 100 89 5 5 21 100 52 10 94 62 47 25 99 100 16 16 100 5 97 46 5 35 92 5 3 1 5 5 0 2 5 5 5 5 5 5 5 5 5 5 5 5 5 5 5 5
100 100 100 16 5 51 23 88 22 100 100 100 86 9 42 100 11 8 72 98 100 100 30 21 96 100 100 70 24 5 5 5 5 4 5 5 6 18 5 17 5 5 5 5 5 5 5
100 100 100 100 43 33 41 13 93 99 100 100 99 98 95 80 100 91 10 5 99 100 100 99 61 89 100 100 100 100 94 13 6 5 5 5 44 41 58 72 23 5 9 7 37 14 69
98 100 100 98 100 100 54 100 100 96 100 100 100 100 100 100 100 100 100 97 10 98 99 100 100 100 100 100 100 100 100 100 100 91 89 100 88 6 5 8 46 8 100 100 100 100 100

GFSGBSN_prec_cloud_123.txt.gz
Cloud_Cover
66 91 7 0 14 63 8 0 0 2 1 1 6 4 23 0 82 100 100 100 100 100 100 100 97 98 95 100 100 100 100 96 34 5 4 100 100 100 100 100 100 100 100 100 100 100 100
71 100 22 1 3 14 5 3 0 0 0 11 5 40 100 0 82 100 100 100 100 100 100 100 100 97 98 100 100 100 100 66 74 5 3 16 100 100 100 100 100 100 100 97 77 97 100
46 100 88 47 0 6 5 0 0 0 0 13 95 86 82 5 100 100 100 100 100 100 100 100 100 100 100 100 100 100 100 94 99 38 5 4 38 100 100 100 100 100 100 97 9 42 80
100 100 100 59 0 9 15 1 0 0 0 8 100 6 2 5 100 100 100 100 100 98 100 99 100 100 100 100 100 100 100 100 100 99 9 5 5 85 100 100 100 100 100 100 99 31 10
100 100 100 95 65 0 9 14 1 0 0 0 5 5 2 90 100 100 100 100 100 100 82 100 100 100 100 100 100 100 100 100 100 100 78 5 5 1 77 100 100 100 100 100 100 99 29
100 97 100 100 84 4 0 8 2 0 3 0 5 27 10 78 100 100 100 100 100 26 29 23 100 100 100 100 100 100 100 83 100 94 79 5 4 0 0 36 100 100 100 100 100 55 21
100 100 95 100 100 42 2 5 2 0 1 4 5 72 98 5 99 100 100 93 63 64 98 100 100 100 100 100 100 100 100 99 100 100 92 5 3 0 0 0 0 5 6 8 5 5 5
100 100 100 100 100 30 0 18 5 0 4 14 5 91 97 0 20 100 100 100 95 70 100 100 100 100 100 100 100 100 100 100 97 92 100 5 5 0 0 0 0 0 1 4 4 4 1
100 100 99 100 100 39 0 0 0 5 5 5 13 31 84 14 4 24 58 97 100 100 100 100 100 100 100 100 100 100 100 100 100 100 99 20 2 0 0 0 0 0 0 0 0 0 0
100 100 100 100 100 100 23 0 0 0 4 19 89 5 5 100 100 91 35 30 16 57 100 100 100 100 100 100 100 100 100 55 100 100 96 8 0 0 0 0 0 0 0 0 0 0 0
100 100 100 65 100 100 100 5 0 0 0 5 100 96 7 98 100 100 92 30 5 5 97 100 100 100 100 100 100 100 100 11 99 31 72 5 0 0 0 0 0 3 0 0 0 2 0
100 100 100 43 100 100 100 98 0 0 0 0 15 100 100 90 100 100 100 100 100 30 95 100 100 100 100 100 100 100 100 97 99 100 100 41 8 0 0 0 0 0 0 0 0 1 0
100 100 67 23 22 87 100 100 99 5 0 0 0 7 96 100 100 100 100 100 100 39 77 100 100 100 100 100 100 100 100 71 39 25 91 44 39 0 0 0 0 0 0 0 0 1 0
59 100 73 36 6 79 49 100 100 62 0 0 0 0 19 80 100 100 100 100 48 95 99 100 100 100 100 100 100 90 5 32 14 14 23 5 0 1 0 0 0 1 0 0 0 0 2
12 15 10 6 35 47 21 20 100 78 0 0 0 0 0 4 96 100 100 100 100 7 94 56 97 99 69 91 96 96 38 26 5 5 5 5 54 5 5 0 0 4 4 1 5 55 16
98 1 5 33 5 18 72 7 41 62 0 0 0 0 0 0 0 99 54 25 5 5 32 100 62 100 100 100 88 49 14 57 98 5 5 0 39 5 5 4 2 0 1 2 5 0 1
5 62 4 34 5 5 75 100 45 9 0 0 0 0 0 0 0 0 10 5 5 5 5 8 100 100 100 100 100 100 14 8 100 100 5 0 1 43 4 5 1 3 5 4 4 4 4
5 5 13 5 5 7 25 100 94 64 0 0 0 0 0 0 0 1 2 6 16 4 5 5 65 98 98 100 100 100 100 96 37 99 5 0 5 28 4 4 4 5 1 2 0 2 5
4 5 8 6 28 5 6 35 81 91 7 1 0 0 0 0 0 0 0 0 0 0 54 92 58 62 63 97 75 100 100 100 100 12 5 0 0 5 5 3 4 5 4 0 3 2 5
5 5 6 12 7 27 5 5 8 50 66 42 4 0 0 0 5 0 0 0 0 0 0 0 0 0 1 8 44 17 10 73 76 20 4 0 0 0 0 0 0 5 0 2 1 5 5
5 24 5 5 74 5 5 5 5 93 89 5 65 11 3 0 0 4 0 0 0 0 0 0 0 0 0 0 0 0 0 0 0 0 0 0 0 4 1 3 0 0 0 0 4 0 1
6 7 5 5 64 80 6 5 9 72 85 98 56 53 53 26 5 5 5 0 0 0 0 0 0 0 0 0 0 0 0 0 0 0 0 0 2 3 4 0 5 5 5 0 0 1 3
100 5 13 96 5 5 5 8 61 5 37 29 99 80 13 85 54 10 7 5 3 0 0 0 0 0 0 0 0 0 0 0 0 0 0 0 2 4 1 0 1 0 0 4 5 5 4
100 96 5 89 83 4 28 5 5 47 18 61 54 80 100 6 86 26 90 60 5 11 2 5 5 4 0 0 0 0 0 0 0 0 0 0 3 6 5 5 5 5 5 5 5 5 2
100 100 100 64 76 5 10 4 5 13 85 10 6 18 26 5 5 55 16 97 49 14 32 5 12 96 16 47 1 1 0 5 4 5 4 4 5 5 5 4 5 5 5 5 5 5 5
100 100 100 70 99 65 42 5 5 9 80 81 5 6 11 88 79 8 12 32 100 73 100 95 41 5 50 100 100 79 46 6 4 4 5 4 5 5 5 5 5 5 5 5 5 5 6
100 100 100 99 97 87 71 55 5 5 24 71 100 79 43 14 69 99 76 17 12 99 100 100 100 100 57 6 71 100 99 99 100 91 88 61 37 16 5 9 5 4 5 5 26 53 65
100 100 100 100 96 87 64 97 100 42 54 97 73 93 97 100 93 85 100 100 98 27 60 29 75 100 100 100 100 100 100 100 100 100 100 100 100 100 81 67 22 5 11 51 78 100 90
100 100 100 100 100 89 80 59 80 11 27 96 68 62 94 100 100 100 100 100 100 100 100 89 73 100 92 84 100 100 100 100 100 100 100 100 100 100 100 100 100 100 100 100 94 84 86